<?xml version='1.0' encoding='UTF-8'?><gpx version="1.1" creator="JPX - https://github.com/jenetics/jpx" xmlns="http://www.topografix.com/GPX/1/1"><trk><trkseg><trkpt lat="41.778838" lon="1.8309237"><ele>320.0</ele><time>2026-04-18T11:44:52.707Z</time></trkpt><trkpt lat="41.778917" lon="1.8309084"><ele>320.0</ele><time>2026-04-18T11:44:54.708Z</time></trkpt><trkpt lat="41.7789985" lon="1.8309033"><ele>320.0</ele><time>2026-04-18T11:44:56.708Z</time></trkpt><trkpt lat="41.7790758" lon="1.8309032"><ele>320.0</ele><time>2026-04-18T11:44:58.708Z</time></trkpt><trkpt lat="41.7791474" lon="1.8309119"><ele>320.0</ele><time>2026-04-18T11:45:00.708Z</time></trkpt><trkpt lat="41.7791979" lon="1.8309668"><ele>320.0</ele><time>2026-04-18T11:45:02.707Z</time></trkpt><trkpt lat="41.7792313" lon="1.8310589"><ele>320.0</ele><time>2026-04-18T11:45:05.707Z</time></trkpt><trkpt lat="41.7792894" lon="1.8311245"><ele>320.0</ele><time>2026-04-18T11:45:08.708Z</time></trkpt><trkpt lat="41.779303" lon="1.8312329"><ele>320.0</ele><time>2026-04-18T11:45:10.707Z</time></trkpt><trkpt lat="41.7793031" lon="1.8313587"><ele>320.0</ele><time>2026-04-18T11:45:12.708Z</time></trkpt><trkpt lat="41.7793127" lon="1.8314762"><ele>320.0</ele><time>2026-04-18T11:45:14.708Z</time></trkpt><trkpt lat="41.7793679" lon="1.8315903"><ele>320.0</ele><time>2026-04-18T11:45:16.708Z</time></trkpt><trkpt lat="41.7794033" lon="1.8317087"><ele>320.1666666666667</ele><time>2026-04-18T11:45:18.708Z</time></trkpt><trkpt lat="41.7794221" lon="1.8318385"><ele>320.33333333333337</ele><time>2026-04-18T11:45:20.708Z</time></trkpt><trkpt lat="41.7794098" lon="1.8319618"><ele>320.5</ele><time>2026-04-18T11:45:22.708Z</time></trkpt><trkpt lat="41.7793504" lon="1.8320963"><ele>320.6666666666667</ele><time>2026-04-18T11:45:24.707Z</time></trkpt><trkpt lat="41.7793582" lon="1.8321829"><ele>320.8333333333333</ele><time>2026-04-18T11:45:25.708Z</time></trkpt><trkpt lat="41.7793853" lon="1.8322596"><ele>321.0</ele><time>2026-04-18T11:45:26.708Z</time></trkpt><trkpt lat="41.7794388" lon="1.8323134"><ele>321.0</ele><time>2026-04-18T11:45:27.707Z</time></trkpt><trkpt lat="41.7795523" lon="1.8323116"><ele>321.0</ele><time>2026-04-18T11:45:29.707Z</time></trkpt><trkpt lat="41.7796404" lon="1.8322938"><ele>321.0</ele><time>2026-04-18T11:45:31.707Z</time></trkpt><trkpt lat="41.7797234" lon="1.8323543"><ele>321.0</ele><time>2026-04-18T11:45:33.708Z</time></trkpt><trkpt lat="41.7797849" lon="1.8324906"><ele>321.0</ele><time>2026-04-18T11:45:35.708Z</time></trkpt><trkpt lat="41.7798252" lon="1.8326263"><ele>320.40000000000003</ele><time>2026-04-18T11:45:37.708Z</time></trkpt><trkpt lat="41.7798692" lon="1.8327912"><ele>319.8</ele><time>2026-04-18T11:45:39.708Z</time></trkpt><trkpt lat="41.7798905" lon="1.8328815"><ele>319.20000000000005</ele><time>2026-04-18T11:45:40.708Z</time></trkpt><trkpt lat="41.7799174" lon="1.832985"><ele>318.6</ele><time>2026-04-18T11:45:41.708Z</time></trkpt><trkpt lat="41.7799445" lon="1.8330899"><ele>318.0</ele><time>2026-04-18T11:45:42.708Z</time></trkpt><trkpt lat="41.7799759" lon="1.8332053"><ele>318.0</ele><time>2026-04-18T11:45:43.707Z</time></trkpt><trkpt lat="41.7800077" lon="1.8333211"><ele>318.0</ele><time>2026-04-18T11:45:44.707Z</time></trkpt><trkpt lat="41.7800403" lon="1.8334441"><ele>318.0</ele><time>2026-04-18T11:45:45.708Z</time></trkpt><trkpt lat="41.7800747" lon="1.8335671"><ele>318.0</ele><time>2026-04-18T11:45:46.708Z</time></trkpt><trkpt lat="41.7801122" lon="1.8336987"><ele>318.0</ele><time>2026-04-18T11:45:47.708Z</time></trkpt><trkpt lat="41.7801522" lon="1.8338307"><ele>317.4</ele><time>2026-04-18T11:45:48.708Z</time></trkpt><trkpt lat="41.7801922" lon="1.8339581"><ele>316.8</ele><time>2026-04-18T11:45:49.707Z</time></trkpt><trkpt lat="41.7802315" lon="1.8340791"><ele>316.2</ele><time>2026-04-18T11:45:50.708Z</time></trkpt><trkpt lat="41.7802669" lon="1.8341997"><ele>315.6</ele><time>2026-04-18T11:45:51.708Z</time></trkpt><trkpt lat="41.7803031" lon="1.8343233"><ele>315.0</ele><time>2026-04-18T11:45:52.707Z</time></trkpt><trkpt lat="41.7803419" lon="1.8344527"><ele>314.8</ele><time>2026-04-18T11:45:53.708Z</time></trkpt><trkpt lat="41.7803794" lon="1.8345871"><ele>314.6</ele><time>2026-04-18T11:45:54.707Z</time></trkpt><trkpt lat="41.7804154" lon="1.8347204"><ele>314.4</ele><time>2026-04-18T11:45:55.707Z</time></trkpt><trkpt lat="41.7804501" lon="1.8348496"><ele>314.2</ele><time>2026-04-18T11:45:56.708Z</time></trkpt><trkpt lat="41.7804832" lon="1.8349702"><ele>314.0</ele><time>2026-04-18T11:45:57.708Z</time></trkpt><trkpt lat="41.7805131" lon="1.8350834"><ele>313.83333333333337</ele><time>2026-04-18T11:45:58.708Z</time></trkpt><trkpt lat="41.7805425" lon="1.8351887"><ele>313.6666666666667</ele><time>2026-04-18T11:45:59.708Z</time></trkpt><trkpt lat="41.7805678" lon="1.8352802"><ele>313.5</ele><time>2026-04-18T11:46:00.707Z</time></trkpt><trkpt lat="41.7805901" lon="1.8353632"><ele>313.3333333333333</ele><time>2026-04-18T11:46:01.708Z</time></trkpt><trkpt lat="41.7806315" lon="1.8354964"><ele>313.16666666666663</ele><time>2026-04-18T11:46:03.707Z</time></trkpt><trkpt lat="41.780665" lon="1.8355917"><ele>313.0</ele><time>2026-04-18T11:46:05.708Z</time></trkpt><trkpt lat="41.7806936" lon="1.8356748"><ele>313.0</ele><time>2026-04-18T11:46:07.708Z</time></trkpt><trkpt lat="41.7807158" lon="1.8357624"><ele>313.0</ele><time>2026-04-18T11:46:09.708Z</time></trkpt><trkpt lat="41.780749" lon="1.8358506"><ele>313.0</ele><time>2026-04-18T11:46:23.708Z</time></trkpt><trkpt lat="41.7807916" lon="1.8360081"><ele>313.0</ele><time>2026-04-18T11:46:25.708Z</time></trkpt><trkpt lat="41.7808159" lon="1.8361029"><ele>313.0</ele><time>2026-04-18T11:46:26.707Z</time></trkpt><trkpt lat="41.7808422" lon="1.8362132"><ele>313.0</ele><time>2026-04-18T11:46:27.708Z</time></trkpt><trkpt lat="41.7808735" lon="1.8363275"><ele>313.0</ele><time>2026-04-18T11:46:28.707Z</time></trkpt><trkpt lat="41.7809094" lon="1.8364521"><ele>313.0</ele><time>2026-04-18T11:46:29.708Z</time></trkpt><trkpt lat="41.7809446" lon="1.8365799"><ele>313.0</ele><time>2026-04-18T11:46:30.707Z</time></trkpt><trkpt lat="41.7809818" lon="1.8367111"><ele>313.0</ele><time>2026-04-18T11:46:31.708Z</time></trkpt><trkpt lat="41.781018" lon="1.8368463"><ele>313.0</ele><time>2026-04-18T11:46:32.707Z</time></trkpt><trkpt lat="41.7810563" lon="1.8369848"><ele>313.2</ele><time>2026-04-18T11:46:33.708Z</time></trkpt><trkpt lat="41.7810944" lon="1.8371279"><ele>313.4</ele><time>2026-04-18T11:46:34.708Z</time></trkpt><trkpt lat="41.7811332" lon="1.837267"><ele>313.59999999999997</ele><time>2026-04-18T11:46:35.708Z</time></trkpt><trkpt lat="41.7811702" lon="1.8373941"><ele>313.8</ele><time>2026-04-18T11:46:36.708Z</time></trkpt><trkpt lat="41.781203" lon="1.8375107"><ele>314.0</ele><time>2026-04-18T11:46:37.708Z</time></trkpt><trkpt lat="41.7812317" lon="1.8376175"><ele>314.1666666666667</ele><time>2026-04-18T11:46:38.708Z</time></trkpt><trkpt lat="41.7812594" lon="1.837717"><ele>314.33333333333337</ele><time>2026-04-18T11:46:39.708Z</time></trkpt><trkpt lat="41.7812845" lon="1.8378061"><ele>314.5</ele><time>2026-04-18T11:46:40.708Z</time></trkpt><trkpt lat="41.7813271" lon="1.8379519"><ele>314.6666666666667</ele><time>2026-04-18T11:46:42.708Z</time></trkpt><trkpt lat="41.7813528" lon="1.8380503"><ele>314.8333333333333</ele><time>2026-04-18T11:46:44.708Z</time></trkpt><trkpt lat="41.781384" lon="1.8381541"><ele>315.0</ele><time>2026-04-18T11:47:56.708Z</time></trkpt><trkpt lat="41.7814152" lon="1.838272"><ele>315.0</ele><time>2026-04-18T11:47:58.708Z</time></trkpt><trkpt lat="41.7814536" lon="1.8384015"><ele>315.0</ele><time>2026-04-18T11:48:00.707Z</time></trkpt><trkpt lat="41.7814768" lon="1.8384809"><ele>315.0</ele><time>2026-04-18T11:48:01.708Z</time></trkpt><trkpt lat="41.7815022" lon="1.8385683"><ele>315.0</ele><time>2026-04-18T11:48:02.708Z</time></trkpt><trkpt lat="41.78153" lon="1.8386657"><ele>315.0</ele><time>2026-04-18T11:48:03.707Z</time></trkpt><trkpt lat="41.7815592" lon="1.8387751"><ele>315.0</ele><time>2026-04-18T11:48:04.708Z</time></trkpt><trkpt lat="41.7815906" lon="1.8388923"><ele>315.2</ele><time>2026-04-18T11:48:05.708Z</time></trkpt><trkpt lat="41.7816239" lon="1.8390152"><ele>315.4</ele><time>2026-04-18T11:48:06.708Z</time></trkpt><trkpt lat="41.7816626" lon="1.8391448"><ele>315.6</ele><time>2026-04-18T11:48:07.707Z</time></trkpt><trkpt lat="41.7817048" lon="1.839278"><ele>315.8</ele><time>2026-04-18T11:48:08.707Z</time></trkpt><trkpt lat="41.7817452" lon="1.8394148"><ele>316.0</ele><time>2026-04-18T11:48:09.708Z</time></trkpt><trkpt lat="41.7817843" lon="1.8395548"><ele>316.0</ele><time>2026-04-18T11:48:10.708Z</time></trkpt><trkpt lat="41.7818235" lon="1.8397026"><ele>316.0</ele><time>2026-04-18T11:48:11.707Z</time></trkpt><trkpt lat="41.7818649" lon="1.839851"><ele>316.0</ele><time>2026-04-18T11:48:12.708Z</time></trkpt><trkpt lat="41.7819072" lon="1.8400037"><ele>316.0</ele><time>2026-04-18T11:48:13.708Z</time></trkpt><trkpt lat="41.7819509" lon="1.8401594"><ele>316.5</ele><time>2026-04-18T11:48:14.708Z</time></trkpt><trkpt lat="41.7819964" lon="1.8403197"><ele>317.0</ele><time>2026-04-18T11:48:15.708Z</time></trkpt><trkpt lat="41.7820407" lon="1.8404821"><ele>317.5</ele><time>2026-04-18T11:48:16.708Z</time></trkpt><trkpt lat="41.7820852" lon="1.8406481"><ele>318.0</ele><time>2026-04-18T11:48:17.707Z</time></trkpt><trkpt lat="41.782133" lon="1.8408157"><ele>317.0</ele><time>2026-04-18T11:48:18.708Z</time></trkpt><trkpt lat="41.7821816" lon="1.8409902"><ele>316.0</ele><time>2026-04-18T11:48:19.708Z</time></trkpt><trkpt lat="41.7822326" lon="1.8411668"><ele>315.0</ele><time>2026-04-18T11:48:20.708Z</time></trkpt><trkpt lat="41.7822836" lon="1.8413444"><ele>314.0</ele><time>2026-04-18T11:48:21.707Z</time></trkpt><trkpt lat="41.7823344" lon="1.8415165"><ele>314.0</ele><time>2026-04-18T11:48:22.707Z</time></trkpt><trkpt lat="41.7823789" lon="1.8416846"><ele>314.0</ele><time>2026-04-18T11:48:23.708Z</time></trkpt><trkpt lat="41.7824223" lon="1.8418416"><ele>314.0</ele><time>2026-04-18T11:48:24.707Z</time></trkpt><trkpt lat="41.7824614" lon="1.8419856"><ele>314.0</ele><time>2026-04-18T11:48:25.708Z</time></trkpt><trkpt lat="41.7824947" lon="1.8421175"><ele>314.2</ele><time>2026-04-18T11:48:26.708Z</time></trkpt><trkpt lat="41.7825259" lon="1.8422378"><ele>314.4</ele><time>2026-04-18T11:48:27.708Z</time></trkpt><trkpt lat="41.782556" lon="1.842354"><ele>314.6</ele><time>2026-04-18T11:48:28.707Z</time></trkpt><trkpt lat="41.7825848" lon="1.8424765"><ele>314.8</ele><time>2026-04-18T11:48:29.707Z</time></trkpt><trkpt lat="41.782613" lon="1.8426058"><ele>315.0</ele><time>2026-04-18T11:48:30.707Z</time></trkpt><trkpt lat="41.7826437" lon="1.84274"><ele>315.75</ele><time>2026-04-18T11:48:31.707Z</time></trkpt><trkpt lat="41.7826829" lon="1.8428894"><ele>316.5</ele><time>2026-04-18T11:48:32.707Z</time></trkpt><trkpt lat="41.7827272" lon="1.8430494"><ele>317.25</ele><time>2026-04-18T11:48:33.708Z</time></trkpt><trkpt lat="41.7827796" lon="1.8432248"><ele>318.0</ele><time>2026-04-18T11:48:34.708Z</time></trkpt><trkpt lat="41.7828387" lon="1.8434078"><ele>317.6666666666667</ele><time>2026-04-18T11:48:35.707Z</time></trkpt><trkpt lat="41.7828995" lon="1.8435906"><ele>317.33333333333337</ele><time>2026-04-18T11:48:36.708Z</time></trkpt><trkpt lat="41.7829628" lon="1.8437839"><ele>317.0</ele><time>2026-04-18T11:48:37.708Z</time></trkpt><trkpt lat="41.7830238" lon="1.8439841"><ele>317.0</ele><time>2026-04-18T11:48:38.708Z</time></trkpt><trkpt lat="41.7830828" lon="1.8441918"><ele>317.0</ele><time>2026-04-18T11:48:39.708Z</time></trkpt><trkpt lat="41.7831422" lon="1.8444059"><ele>317.0</ele><time>2026-04-18T11:48:40.708Z</time></trkpt><trkpt lat="41.7832033" lon="1.8446243"><ele>317.0</ele><time>2026-04-18T11:48:41.708Z</time></trkpt><trkpt lat="41.7832686" lon="1.844846"><ele>317.0</ele><time>2026-04-18T11:48:42.708Z</time></trkpt><trkpt lat="41.783333" lon="1.8450662"><ele>317.0</ele><time>2026-04-18T11:48:43.708Z</time></trkpt><trkpt lat="41.783389" lon="1.8452739"><ele>316.6666666666667</ele><time>2026-04-18T11:48:44.708Z</time></trkpt><trkpt lat="41.7834307" lon="1.8454806"><ele>316.3333333333333</ele><time>2026-04-18T11:48:45.708Z</time></trkpt><trkpt lat="41.7834455" lon="1.8456882"><ele>316.0</ele><time>2026-04-18T11:48:46.708Z</time></trkpt><trkpt lat="41.7834195" lon="1.8459"><ele>315.66666666666663</ele><time>2026-04-18T11:48:47.708Z</time></trkpt><trkpt lat="41.7833704" lon="1.8461098"><ele>315.3333333333333</ele><time>2026-04-18T11:48:48.707Z</time></trkpt><trkpt lat="41.7832944" lon="1.8463159"><ele>315.0</ele><time>2026-04-18T11:48:49.708Z</time></trkpt><trkpt lat="41.7832161" lon="1.8465272"><ele>315.0</ele><time>2026-04-18T11:48:50.708Z</time></trkpt><trkpt lat="41.783138" lon="1.8467402"><ele>315.0</ele><time>2026-04-18T11:48:51.708Z</time></trkpt><trkpt lat="41.7830568" lon="1.8469459"><ele>315.0</ele><time>2026-04-18T11:48:52.708Z</time></trkpt><trkpt lat="41.7829659" lon="1.8471408"><ele>315.6666666666667</ele><time>2026-04-18T11:48:53.708Z</time></trkpt><trkpt lat="41.7828571" lon="1.8473217"><ele>316.33333333333337</ele><time>2026-04-18T11:48:54.708Z</time></trkpt><trkpt lat="41.7827269" lon="1.8474789"><ele>317.0</ele><time>2026-04-18T11:48:55.707Z</time></trkpt><trkpt lat="41.7825897" lon="1.8476129"><ele>315.33333333333337</ele><time>2026-04-18T11:48:56.708Z</time></trkpt><trkpt lat="41.782461" lon="1.8477377"><ele>313.6666666666667</ele><time>2026-04-18T11:48:57.708Z</time></trkpt><trkpt lat="41.7823399" lon="1.8478709"><ele>312.0</ele><time>2026-04-18T11:48:58.708Z</time></trkpt><trkpt lat="41.7822316" lon="1.8480356"><ele>312.0</ele><time>2026-04-18T11:48:59.707Z</time></trkpt><trkpt lat="41.7821412" lon="1.8482277"><ele>312.0</ele><time>2026-04-18T11:49:00.708Z</time></trkpt><trkpt lat="41.7820604" lon="1.8484302"><ele>312.0</ele><time>2026-04-18T11:49:01.707Z</time></trkpt><trkpt lat="41.7819798" lon="1.848637"><ele>311.6666666666667</ele><time>2026-04-18T11:49:02.708Z</time></trkpt><trkpt lat="41.7818945" lon="1.8488451"><ele>311.33333333333337</ele><time>2026-04-18T11:49:03.708Z</time></trkpt><trkpt lat="41.7818113" lon="1.8490511"><ele>311.0</ele><time>2026-04-18T11:49:04.708Z</time></trkpt><trkpt lat="41.7817283" lon="1.849259"><ele>310.0</ele><time>2026-04-18T11:49:05.708Z</time></trkpt><trkpt lat="41.7816448" lon="1.849462"><ele>309.0</ele><time>2026-04-18T11:49:06.708Z</time></trkpt><trkpt lat="41.781567" lon="1.8496615"><ele>308.0</ele><time>2026-04-18T11:49:07.707Z</time></trkpt><trkpt lat="41.7814836" lon="1.8498515"><ele>308.0</ele><time>2026-04-18T11:49:08.707Z</time></trkpt><trkpt lat="41.7813923" lon="1.850033"><ele>308.0</ele><time>2026-04-18T11:49:09.707Z</time></trkpt><trkpt lat="41.7812957" lon="1.8502028"><ele>308.0</ele><time>2026-04-18T11:49:10.708Z</time></trkpt><trkpt lat="41.7811897" lon="1.8503592"><ele>307.33333333333337</ele><time>2026-04-18T11:49:11.708Z</time></trkpt><trkpt lat="41.7810755" lon="1.8505066"><ele>306.6666666666667</ele><time>2026-04-18T11:49:12.708Z</time></trkpt><trkpt lat="41.7809593" lon="1.8506432"><ele>306.0</ele><time>2026-04-18T11:49:13.708Z</time></trkpt><trkpt lat="41.780842" lon="1.85078"><ele>305.6666666666667</ele><time>2026-04-18T11:49:14.708Z</time></trkpt><trkpt lat="41.7807222" lon="1.8509215"><ele>305.33333333333337</ele><time>2026-04-18T11:49:15.707Z</time></trkpt><trkpt lat="41.7806039" lon="1.8510655"><ele>305.0</ele><time>2026-04-18T11:49:16.708Z</time></trkpt><trkpt lat="41.7804941" lon="1.85121"><ele>304.75</ele><time>2026-04-18T11:49:17.707Z</time></trkpt><trkpt lat="41.7803879" lon="1.8513505"><ele>304.5</ele><time>2026-04-18T11:49:18.707Z</time></trkpt><trkpt lat="41.7802843" lon="1.8514786"><ele>304.25</ele><time>2026-04-18T11:49:19.707Z</time></trkpt><trkpt lat="41.7801888" lon="1.8515995"><ele>304.0</ele><time>2026-04-18T11:49:20.708Z</time></trkpt><trkpt lat="41.7801016" lon="1.8517108"><ele>304.16666666666663</ele><time>2026-04-18T11:49:21.708Z</time></trkpt><trkpt lat="41.7800194" lon="1.8518159"><ele>304.3333333333333</ele><time>2026-04-18T11:49:22.708Z</time></trkpt><trkpt lat="41.7799448" lon="1.8519049"><ele>304.5</ele><time>2026-04-18T11:49:23.707Z</time></trkpt><trkpt lat="41.779877" lon="1.8519726"><ele>304.6666666666667</ele><time>2026-04-18T11:49:24.708Z</time></trkpt><trkpt lat="41.7798099" lon="1.8520081"><ele>304.83333333333337</ele><time>2026-04-18T11:49:25.708Z</time></trkpt><trkpt lat="41.7797459" lon="1.8520223"><ele>305.0</ele><time>2026-04-18T11:49:26.708Z</time></trkpt><trkpt lat="41.7796854" lon="1.8520507"><ele>305.0</ele><time>2026-04-18T11:49:27.708Z</time></trkpt><trkpt lat="41.7796405" lon="1.8521212"><ele>305.0</ele><time>2026-04-18T11:49:28.707Z</time></trkpt><trkpt lat="41.7796211" lon="1.8522165"><ele>305.0</ele><time>2026-04-18T11:49:29.708Z</time></trkpt><trkpt lat="41.7796326" lon="1.8523215"><ele>305.0</ele><time>2026-04-18T11:49:30.708Z</time></trkpt><trkpt lat="41.7796435" lon="1.852438"><ele>305.0</ele><time>2026-04-18T11:49:31.707Z</time></trkpt><trkpt lat="41.7796257" lon="1.8525693"><ele>305.0</ele><time>2026-04-18T11:49:32.708Z</time></trkpt><trkpt lat="41.7795917" lon="1.8527132"><ele>304.25</ele><time>2026-04-18T11:49:33.708Z</time></trkpt><trkpt lat="41.7795449" lon="1.8528756"><ele>303.5</ele><time>2026-04-18T11:49:34.707Z</time></trkpt><trkpt lat="41.7794928" lon="1.8530568"><ele>302.75</ele><time>2026-04-18T11:49:35.708Z</time></trkpt><trkpt lat="41.779441" lon="1.8532549"><ele>302.0</ele><time>2026-04-18T11:49:36.707Z</time></trkpt><trkpt lat="41.7793866" lon="1.8534705"><ele>300.6666666666667</ele><time>2026-04-18T11:49:37.708Z</time></trkpt><trkpt lat="41.779329" lon="1.8537019"><ele>299.3333333333333</ele><time>2026-04-18T11:49:38.708Z</time></trkpt><trkpt lat="41.7792705" lon="1.8539397"><ele>298.0</ele><time>2026-04-18T11:49:39.707Z</time></trkpt><trkpt lat="41.7792104" lon="1.8541914"><ele>297.66666666666663</ele><time>2026-04-18T11:49:40.708Z</time></trkpt><trkpt lat="41.7791504" lon="1.854455"><ele>297.3333333333333</ele><time>2026-04-18T11:49:41.708Z</time></trkpt><trkpt lat="41.7790923" lon="1.8547305"><ele>297.0</ele><time>2026-04-18T11:49:42.708Z</time></trkpt><trkpt lat="41.7790324" lon="1.8550135"><ele>296.6666666666667</ele><time>2026-04-18T11:49:43.707Z</time></trkpt><trkpt lat="41.7789673" lon="1.8552989"><ele>296.33333333333337</ele><time>2026-04-18T11:49:44.707Z</time></trkpt><trkpt lat="41.7788982" lon="1.8555829"><ele>296.0</ele><time>2026-04-18T11:49:45.708Z</time></trkpt><trkpt lat="41.7788225" lon="1.8558576"><ele>296.6666666666667</ele><time>2026-04-18T11:49:46.708Z</time></trkpt><trkpt lat="41.7787276" lon="1.8561186"><ele>297.3333333333333</ele><time>2026-04-18T11:49:47.708Z</time></trkpt><trkpt lat="41.7786078" lon="1.8563597"><ele>298.0</ele><time>2026-04-18T11:49:48.708Z</time></trkpt><trkpt lat="41.7784707" lon="1.856584"><ele>298.0</ele><time>2026-04-18T11:49:49.708Z</time></trkpt><trkpt lat="41.7783345" lon="1.8567852"><ele>298.0</ele><time>2026-04-18T11:49:50.707Z</time></trkpt><trkpt lat="41.7782033" lon="1.8569793"><ele>298.0</ele><time>2026-04-18T11:49:51.708Z</time></trkpt><trkpt lat="41.7780811" lon="1.8571552"><ele>298.25</ele><time>2026-04-18T11:49:52.708Z</time></trkpt><trkpt lat="41.7779685" lon="1.8573125"><ele>298.5</ele><time>2026-04-18T11:49:53.708Z</time></trkpt><trkpt lat="41.7778617" lon="1.8574478"><ele>298.75</ele><time>2026-04-18T11:49:54.708Z</time></trkpt><trkpt lat="41.7777502" lon="1.8575459"><ele>299.0</ele><time>2026-04-18T11:49:55.707Z</time></trkpt><trkpt lat="41.7776431" lon="1.8576062"><ele>299.8</ele><time>2026-04-18T11:49:56.708Z</time></trkpt><trkpt lat="41.7775544" lon="1.8576661"><ele>300.59999999999997</ele><time>2026-04-18T11:49:57.707Z</time></trkpt><trkpt lat="41.7775131" lon="1.8577699"><ele>301.4</ele><time>2026-04-18T11:49:58.708Z</time></trkpt><trkpt lat="41.7775069" lon="1.8578937"><ele>302.2</ele><time>2026-04-18T11:49:59.708Z</time></trkpt><trkpt lat="41.7775228" lon="1.858046"><ele>303.0</ele><time>2026-04-18T11:50:00.708Z</time></trkpt><trkpt lat="41.7775182" lon="1.8582189"><ele>303.0</ele><time>2026-04-18T11:50:01.707Z</time></trkpt><trkpt lat="41.7775042" lon="1.8584099"><ele>303.0</ele><time>2026-04-18T11:50:02.708Z</time></trkpt><trkpt lat="41.7774887" lon="1.8586237"><ele>303.0</ele><time>2026-04-18T11:50:03.707Z</time></trkpt><trkpt lat="41.7774697" lon="1.8588449"><ele>304.6666666666667</ele><time>2026-04-18T11:50:04.708Z</time></trkpt><trkpt lat="41.7774349" lon="1.8590747"><ele>306.33333333333337</ele><time>2026-04-18T11:50:05.707Z</time></trkpt><trkpt lat="41.77737" lon="1.8592974"><ele>308.0</ele><time>2026-04-18T11:50:06.708Z</time></trkpt><trkpt lat="41.777269" lon="1.8595094"><ele>308.33333333333337</ele><time>2026-04-18T11:50:07.707Z</time></trkpt><trkpt lat="41.7771382" lon="1.8596997"><ele>308.6666666666667</ele><time>2026-04-18T11:50:08.707Z</time></trkpt><trkpt lat="41.7769782" lon="1.8598537"><ele>309.0</ele><time>2026-04-18T11:50:09.707Z</time></trkpt><trkpt lat="41.776797" lon="1.8599846"><ele>309.0</ele><time>2026-04-18T11:50:10.707Z</time></trkpt><trkpt lat="41.7766003" lon="1.8601079"><ele>309.0</ele><time>2026-04-18T11:50:11.707Z</time></trkpt><trkpt lat="41.7763976" lon="1.860232"><ele>309.0</ele><time>2026-04-18T11:50:12.708Z</time></trkpt><trkpt lat="41.7761922" lon="1.8603537"><ele>309.0</ele><time>2026-04-18T11:50:13.708Z</time></trkpt><trkpt lat="41.7760005" lon="1.8604659"><ele>309.0</ele><time>2026-04-18T11:50:14.708Z</time></trkpt><trkpt lat="41.7758254" lon="1.8605717"><ele>309.0</ele><time>2026-04-18T11:50:15.708Z</time></trkpt><trkpt lat="41.775674" lon="1.8606894"><ele>309.0</ele><time>2026-04-18T11:50:16.708Z</time></trkpt><trkpt lat="41.7755443" lon="1.8608418"><ele>309.0</ele><time>2026-04-18T11:50:17.708Z</time></trkpt><trkpt lat="41.7754413" lon="1.8610273"><ele>309.0</ele><time>2026-04-18T11:50:18.708Z</time></trkpt><trkpt lat="41.7753676" lon="1.8612469"><ele>308.3333333333333</ele><time>2026-04-18T11:50:19.708Z</time></trkpt><trkpt lat="41.7753294" lon="1.8614995"><ele>307.66666666666663</ele><time>2026-04-18T11:50:20.708Z</time></trkpt><trkpt lat="41.7753134" lon="1.8617734"><ele>307.0</ele><time>2026-04-18T11:50:21.708Z</time></trkpt><trkpt lat="41.7753037" lon="1.8620601"><ele>305.3333333333333</ele><time>2026-04-18T11:50:22.708Z</time></trkpt><trkpt lat="41.7752963" lon="1.8623486"><ele>303.6666666666667</ele><time>2026-04-18T11:50:23.708Z</time></trkpt><trkpt lat="41.7752898" lon="1.8626231"><ele>302.0</ele><time>2026-04-18T11:50:24.708Z</time></trkpt><trkpt lat="41.7752823" lon="1.8628908"><ele>302.0</ele><time>2026-04-18T11:50:25.708Z</time></trkpt><trkpt lat="41.775274" lon="1.8631566"><ele>302.0</ele><time>2026-04-18T11:50:26.707Z</time></trkpt><trkpt lat="41.775267" lon="1.8634197"><ele>302.0</ele><time>2026-04-18T11:50:27.708Z</time></trkpt><trkpt lat="41.7752605" lon="1.8636788"><ele>302.33333333333337</ele><time>2026-04-18T11:50:28.707Z</time></trkpt><trkpt lat="41.7752531" lon="1.8639323"><ele>302.6666666666667</ele><time>2026-04-18T11:50:29.708Z</time></trkpt><trkpt lat="41.7752453" lon="1.8641798"><ele>303.0</ele><time>2026-04-18T11:50:30.708Z</time></trkpt><trkpt lat="41.7752369" lon="1.8644179"><ele>303.0</ele><time>2026-04-18T11:50:31.707Z</time></trkpt><trkpt lat="41.7752284" lon="1.8646456"><ele>303.0</ele><time>2026-04-18T11:50:32.708Z</time></trkpt><trkpt lat="41.7752199" lon="1.8648599"><ele>303.0</ele><time>2026-04-18T11:50:33.708Z</time></trkpt><trkpt lat="41.7752106" lon="1.8650537"><ele>302.0</ele><time>2026-04-18T11:50:34.708Z</time></trkpt><trkpt lat="41.7752014" lon="1.8652369"><ele>301.0</ele><time>2026-04-18T11:50:35.708Z</time></trkpt><trkpt lat="41.7751991" lon="1.8654087"><ele>300.0</ele><time>2026-04-18T11:50:36.707Z</time></trkpt><trkpt lat="41.7752082" lon="1.8655717"><ele>299.0</ele><time>2026-04-18T11:50:37.708Z</time></trkpt><trkpt lat="41.7752227" lon="1.8657238"><ele>299.0</ele><time>2026-04-18T11:50:38.708Z</time></trkpt><trkpt lat="41.7752237" lon="1.8658709"><ele>299.0</ele><time>2026-04-18T11:50:39.707Z</time></trkpt><trkpt lat="41.7751943" lon="1.8660162"><ele>299.0</ele><time>2026-04-18T11:50:40.707Z</time></trkpt><trkpt lat="41.7751819" lon="1.8661721"><ele>299.0</ele><time>2026-04-18T11:50:41.708Z</time></trkpt><trkpt lat="41.7751944" lon="1.866346"><ele>298.0</ele><time>2026-04-18T11:50:42.707Z</time></trkpt><trkpt lat="41.7751936" lon="1.8665484"><ele>297.0</ele><time>2026-04-18T11:50:43.708Z</time></trkpt><trkpt lat="41.7751689" lon="1.8667728"><ele>296.0</ele><time>2026-04-18T11:50:44.708Z</time></trkpt><trkpt lat="41.7751387" lon="1.8670151"><ele>293.5</ele><time>2026-04-18T11:50:45.708Z</time></trkpt><trkpt lat="41.7751234" lon="1.8672983"><ele>291.0</ele><time>2026-04-18T11:50:46.708Z</time></trkpt><trkpt lat="41.7751095" lon="1.8676237"><ele>290.5</ele><time>2026-04-18T11:50:47.707Z</time></trkpt><trkpt lat="41.7750942" lon="1.8679395"><ele>290.0</ele><time>2026-04-18T11:50:48.708Z</time></trkpt><trkpt lat="41.7750824" lon="1.8682684"><ele>288.0</ele><time>2026-04-18T11:50:49.708Z</time></trkpt><trkpt lat="41.7750732" lon="1.868608"><ele>286.0</ele><time>2026-04-18T11:50:50.708Z</time></trkpt><trkpt lat="41.7750622" lon="1.8689533"><ele>286.0</ele><time>2026-04-18T11:50:51.708Z</time></trkpt><trkpt lat="41.7750498" lon="1.8692996"><ele>286.0</ele><time>2026-04-18T11:50:52.708Z</time></trkpt><trkpt lat="41.7750365" lon="1.8696506"><ele>286.0</ele><time>2026-04-18T11:50:53.708Z</time></trkpt><trkpt lat="41.775024" lon="1.8700035"><ele>286.0</ele><time>2026-04-18T11:50:54.708Z</time></trkpt><trkpt lat="41.7750145" lon="1.870351"><ele>287.0</ele><time>2026-04-18T11:50:55.708Z</time></trkpt><trkpt lat="41.7750066" lon="1.8706907"><ele>288.0</ele><time>2026-04-18T11:50:56.708Z</time></trkpt><trkpt lat="41.7749974" lon="1.8710263"><ele>288.0</ele><time>2026-04-18T11:50:57.708Z</time></trkpt><trkpt lat="41.7749881" lon="1.8713563"><ele>288.0</ele><time>2026-04-18T11:50:58.707Z</time></trkpt><trkpt lat="41.774977" lon="1.8716827"><ele>288.0</ele><time>2026-04-18T11:50:59.708Z</time></trkpt><trkpt lat="41.7749644" lon="1.8720007"><ele>288.0</ele><time>2026-04-18T11:51:00.708Z</time></trkpt><trkpt lat="41.7749517" lon="1.8722977"><ele>288.0</ele><time>2026-04-18T11:51:01.707Z</time></trkpt><trkpt lat="41.774941" lon="1.872579"><ele>288.0</ele><time>2026-04-18T11:51:02.708Z</time></trkpt><trkpt lat="41.7749296" lon="1.8728391"><ele>288.0</ele><time>2026-04-18T11:51:03.708Z</time></trkpt><trkpt lat="41.7749173" lon="1.873073"><ele>288.0</ele><time>2026-04-18T11:51:04.708Z</time></trkpt><trkpt lat="41.7748984" lon="1.8732838"><ele>288.0</ele><time>2026-04-18T11:51:05.708Z</time></trkpt><trkpt lat="41.7748634" lon="1.8734708"><ele>288.0</ele><time>2026-04-18T11:51:06.707Z</time></trkpt><trkpt lat="41.7748135" lon="1.8736347"><ele>288.0</ele><time>2026-04-18T11:51:07.707Z</time></trkpt><trkpt lat="41.7747659" lon="1.8737858"><ele>288.25</ele><time>2026-04-18T11:51:08.707Z</time></trkpt><trkpt lat="41.7747429" lon="1.8739241"><ele>288.5</ele><time>2026-04-18T11:51:09.707Z</time></trkpt><trkpt lat="41.774747" lon="1.8740722"><ele>288.75</ele><time>2026-04-18T11:51:10.708Z</time></trkpt><trkpt lat="41.7747814" lon="1.8742276"><ele>289.0</ele><time>2026-04-18T11:51:11.708Z</time></trkpt><trkpt lat="41.7748253" lon="1.8744075"><ele>289.3333333333333</ele><time>2026-04-18T11:51:12.708Z</time></trkpt><trkpt lat="41.774846" lon="1.8746175"><ele>289.6666666666667</ele><time>2026-04-18T11:51:13.708Z</time></trkpt><trkpt lat="41.7748438" lon="1.8748563"><ele>290.0</ele><time>2026-04-18T11:51:14.708Z</time></trkpt><trkpt lat="41.7748329" lon="1.8751168"><ele>290.0</ele><time>2026-04-18T11:51:15.708Z</time></trkpt><trkpt lat="41.7748195" lon="1.8753959"><ele>290.0</ele><time>2026-04-18T11:51:16.707Z</time></trkpt><trkpt lat="41.7748025" lon="1.8756898"><ele>290.0</ele><time>2026-04-18T11:51:17.708Z</time></trkpt><trkpt lat="41.7747839" lon="1.8759881"><ele>290.0</ele><time>2026-04-18T11:51:18.708Z</time></trkpt><trkpt lat="41.7747669" lon="1.8762858"><ele>290.0</ele><time>2026-04-18T11:51:19.707Z</time></trkpt><trkpt lat="41.7747493" lon="1.8765684"><ele>290.0</ele><time>2026-04-18T11:51:20.708Z</time></trkpt><trkpt lat="41.7747265" lon="1.8768329"><ele>288.33333333333337</ele><time>2026-04-18T11:51:21.707Z</time></trkpt><trkpt lat="41.774721" lon="1.8770682"><ele>286.6666666666667</ele><time>2026-04-18T11:51:22.707Z</time></trkpt><trkpt lat="41.7747118" lon="1.8772836"><ele>285.0</ele><time>2026-04-18T11:51:23.708Z</time></trkpt><trkpt lat="41.774698" lon="1.8774639"><ele>284.25</ele><time>2026-04-18T11:51:24.707Z</time></trkpt><trkpt lat="41.7746651" lon="1.8776176"><ele>283.5</ele><time>2026-04-18T11:51:25.708Z</time></trkpt><trkpt lat="41.7746095" lon="1.8777472"><ele>282.75</ele><time>2026-04-18T11:51:26.708Z</time></trkpt><trkpt lat="41.7745612" lon="1.8778791"><ele>282.0</ele><time>2026-04-18T11:51:27.708Z</time></trkpt><trkpt lat="41.7745615" lon="1.8780305"><ele>282.0</ele><time>2026-04-18T11:51:28.708Z</time></trkpt><trkpt lat="41.7745948" lon="1.8781933"><ele>282.0</ele><time>2026-04-18T11:51:29.707Z</time></trkpt><trkpt lat="41.7746242" lon="1.8783871"><ele>282.0</ele><time>2026-04-18T11:51:30.708Z</time></trkpt><trkpt lat="41.7746274" lon="1.8786076"><ele>282.0</ele><time>2026-04-18T11:51:31.708Z</time></trkpt><trkpt lat="41.7746276" lon="1.8788518"><ele>282.3333333333333</ele><time>2026-04-18T11:51:32.708Z</time></trkpt><trkpt lat="41.7746248" lon="1.8791176"><ele>282.66666666666663</ele><time>2026-04-18T11:51:33.707Z</time></trkpt><trkpt lat="41.7746181" lon="1.8794075"><ele>283.0</ele><time>2026-04-18T11:51:34.708Z</time></trkpt><trkpt lat="41.7746097" lon="1.8797154"><ele>281.5</ele><time>2026-04-18T11:51:35.708Z</time></trkpt><trkpt lat="41.7745971" lon="1.8800362"><ele>280.0</ele><time>2026-04-18T11:51:36.708Z</time></trkpt><trkpt lat="41.7745829" lon="1.8803726"><ele>279.5</ele><time>2026-04-18T11:51:37.708Z</time></trkpt><trkpt lat="41.7745657" lon="1.8807214"><ele>279.0</ele><time>2026-04-18T11:51:38.707Z</time></trkpt><trkpt lat="41.7745454" lon="1.8810747"><ele>278.0</ele><time>2026-04-18T11:51:39.707Z</time></trkpt><trkpt lat="41.7745248" lon="1.8814357"><ele>277.0</ele><time>2026-04-18T11:51:40.708Z</time></trkpt><trkpt lat="41.7745074" lon="1.8817961"><ele>277.0</ele><time>2026-04-18T11:51:41.708Z</time></trkpt><trkpt lat="41.7744894" lon="1.882162"><ele>277.0</ele><time>2026-04-18T11:51:42.708Z</time></trkpt><trkpt lat="41.7744727" lon="1.8825227"><ele>276.0</ele><time>2026-04-18T11:51:43.708Z</time></trkpt><trkpt lat="41.7744555" lon="1.8828804"><ele>275.0</ele><time>2026-04-18T11:51:44.708Z</time></trkpt><trkpt lat="41.7744365" lon="1.8832421"><ele>275.0</ele><time>2026-04-18T11:51:45.708Z</time></trkpt><trkpt lat="41.7744173" lon="1.8835953"><ele>275.0</ele><time>2026-04-18T11:51:46.708Z</time></trkpt><trkpt lat="41.7743969" lon="1.8839365"><ele>275.5</ele><time>2026-04-18T11:51:47.708Z</time></trkpt><trkpt lat="41.7743793" lon="1.8842758"><ele>276.0</ele><time>2026-04-18T11:51:48.708Z</time></trkpt><trkpt lat="41.7743643" lon="1.8846095"><ele>275.5</ele><time>2026-04-18T11:51:49.708Z</time></trkpt><trkpt lat="41.7743538" lon="1.8849371"><ele>275.0</ele><time>2026-04-18T11:51:50.708Z</time></trkpt><trkpt lat="41.7743596" lon="1.8852683"><ele>275.0</ele><time>2026-04-18T11:51:51.708Z</time></trkpt><trkpt lat="41.7743728" lon="1.885597"><ele>275.0</ele><time>2026-04-18T11:51:52.708Z</time></trkpt><trkpt lat="41.7743885" lon="1.8859319"><ele>275.0</ele><time>2026-04-18T11:51:53.708Z</time></trkpt><trkpt lat="41.7744051" lon="1.8862713"><ele>275.0</ele><time>2026-04-18T11:51:54.707Z</time></trkpt><trkpt lat="41.774422" lon="1.8866126"><ele>277.0</ele><time>2026-04-18T11:51:55.708Z</time></trkpt><trkpt lat="41.7744388" lon="1.8869557"><ele>279.0</ele><time>2026-04-18T11:51:56.708Z</time></trkpt><trkpt lat="41.7744541" lon="1.8873056"><ele>279.0</ele><time>2026-04-18T11:51:57.707Z</time></trkpt><trkpt lat="41.7744727" lon="1.8876616"><ele>279.0</ele><time>2026-04-18T11:51:58.708Z</time></trkpt><trkpt lat="41.7744894" lon="1.8880271"><ele>279.0</ele><time>2026-04-18T11:51:59.708Z</time></trkpt><trkpt lat="41.7745073" lon="1.8883967"><ele>279.0</ele><time>2026-04-18T11:52:00.708Z</time></trkpt><trkpt lat="41.7745253" lon="1.8887764"><ele>279.0</ele><time>2026-04-18T11:52:01.708Z</time></trkpt><trkpt lat="41.7745475" lon="1.8891615"><ele>279.0</ele><time>2026-04-18T11:52:02.708Z</time></trkpt><trkpt lat="41.7745687" lon="1.8895486"><ele>280.0</ele><time>2026-04-18T11:52:03.708Z</time></trkpt><trkpt lat="41.7745874" lon="1.8899404"><ele>281.0</ele><time>2026-04-18T11:52:04.707Z</time></trkpt><trkpt lat="41.7746037" lon="1.890335"><ele>280.5</ele><time>2026-04-18T11:52:05.708Z</time></trkpt><trkpt lat="41.7746224" lon="1.8907273"><ele>280.0</ele><time>2026-04-18T11:52:06.708Z</time></trkpt><trkpt lat="41.7746429" lon="1.891123"><ele>280.0</ele><time>2026-04-18T11:52:07.708Z</time></trkpt><trkpt lat="41.7746619" lon="1.8915169"><ele>280.0</ele><time>2026-04-18T11:52:08.708Z</time></trkpt><trkpt lat="41.7746832" lon="1.8919093"><ele>279.5</ele><time>2026-04-18T11:52:09.708Z</time></trkpt><trkpt lat="41.7747057" lon="1.8923004"><ele>279.0</ele><time>2026-04-18T11:52:10.708Z</time></trkpt><trkpt lat="41.7747256" lon="1.8926887"><ele>278.5</ele><time>2026-04-18T11:52:11.708Z</time></trkpt><trkpt lat="41.7747426" lon="1.8930554"><ele>278.0</ele><time>2026-04-18T11:52:12.708Z</time></trkpt><trkpt lat="41.7747604" lon="1.8934083"><ele>279.5</ele><time>2026-04-18T11:52:13.708Z</time></trkpt><trkpt lat="41.774779" lon="1.8937586"><ele>281.0</ele><time>2026-04-18T11:52:14.708Z</time></trkpt><trkpt lat="41.7747961" lon="1.8941073"><ele>283.0</ele><time>2026-04-18T11:52:15.708Z</time></trkpt><trkpt lat="41.7748131" lon="1.8944502"><ele>285.0</ele><time>2026-04-18T11:52:16.707Z</time></trkpt><trkpt lat="41.7748309" lon="1.8947961"><ele>285.5</ele><time>2026-04-18T11:52:17.708Z</time></trkpt><trkpt lat="41.7748559" lon="1.8951483"><ele>286.0</ele><time>2026-04-18T11:52:18.708Z</time></trkpt><trkpt lat="41.7748774" lon="1.8954997"><ele>286.0</ele><time>2026-04-18T11:52:19.708Z</time></trkpt><trkpt lat="41.7749" lon="1.8958583"><ele>286.0</ele><time>2026-04-18T11:52:20.708Z</time></trkpt><trkpt lat="41.7749227" lon="1.8962132"><ele>287.0</ele><time>2026-04-18T11:52:21.708Z</time></trkpt><trkpt lat="41.7749438" lon="1.8965685"><ele>288.0</ele><time>2026-04-18T11:52:22.707Z</time></trkpt><trkpt lat="41.7749634" lon="1.89691"><ele>290.0</ele><time>2026-04-18T11:52:23.708Z</time></trkpt><trkpt lat="41.7749681" lon="1.897227"><ele>292.0</ele><time>2026-04-18T11:52:24.707Z</time></trkpt><trkpt lat="41.774942" lon="1.8975301"><ele>291.5</ele><time>2026-04-18T11:52:25.707Z</time></trkpt><trkpt lat="41.7748562" lon="1.8978432"><ele>291.0</ele><time>2026-04-18T11:52:26.708Z</time></trkpt><trkpt lat="41.7747375" lon="1.8981608"><ele>291.0</ele><time>2026-04-18T11:52:27.707Z</time></trkpt><trkpt lat="41.7746037" lon="1.898487"><ele>291.0</ele><time>2026-04-18T11:52:28.708Z</time></trkpt><trkpt lat="41.7744715" lon="1.8988144"><ele>290.0</ele><time>2026-04-18T11:52:29.708Z</time></trkpt><trkpt lat="41.7743355" lon="1.8991503"><ele>289.0</ele><time>2026-04-18T11:52:30.708Z</time></trkpt><trkpt lat="41.7742009" lon="1.899487"><ele>292.0</ele><time>2026-04-18T11:52:31.708Z</time></trkpt><trkpt lat="41.77407" lon="1.8998061"><ele>295.0</ele><time>2026-04-18T11:52:32.707Z</time></trkpt><trkpt lat="41.7739365" lon="1.9000951"><ele>295.0</ele><time>2026-04-18T11:52:33.707Z</time></trkpt><trkpt lat="41.7737802" lon="1.9003461"><ele>295.0</ele><time>2026-04-18T11:52:34.708Z</time></trkpt><trkpt lat="41.7735971" lon="1.9005521"><ele>291.0</ele><time>2026-04-18T11:52:35.708Z</time></trkpt><trkpt lat="41.7733944" lon="1.9007098"><ele>287.0</ele><time>2026-04-18T11:52:36.708Z</time></trkpt><trkpt lat="41.7731832" lon="1.9008154"><ele>287.0</ele><time>2026-04-18T11:52:37.708Z</time></trkpt><trkpt lat="41.7729574" lon="1.9008705"><ele>287.0</ele><time>2026-04-18T11:52:38.708Z</time></trkpt><trkpt lat="41.7727209" lon="1.9009256"><ele>285.5</ele><time>2026-04-18T11:52:39.708Z</time></trkpt><trkpt lat="41.7724682" lon="1.9009142"><ele>284.0</ele><time>2026-04-18T11:52:40.708Z</time></trkpt><trkpt lat="41.7722283" lon="1.9009352"><ele>278.5</ele><time>2026-04-18T11:52:41.708Z</time></trkpt><trkpt lat="41.771995" lon="1.9009427"><ele>273.0</ele><time>2026-04-18T11:52:42.708Z</time></trkpt><trkpt lat="41.7717648" lon="1.9009625"><ele>270.5</ele><time>2026-04-18T11:52:43.708Z</time></trkpt><trkpt lat="41.7715386" lon="1.9010068"><ele>268.0</ele><time>2026-04-18T11:52:44.708Z</time></trkpt><trkpt lat="41.7713189" lon="1.9010777"><ele>268.0</ele><time>2026-04-18T11:52:45.708Z</time></trkpt><trkpt lat="41.7711087" lon="1.9011692"><ele>268.0</ele><time>2026-04-18T11:52:46.707Z</time></trkpt><trkpt lat="41.770907" lon="1.9012628"><ele>268.0</ele><time>2026-04-18T11:52:47.708Z</time></trkpt><trkpt lat="41.7707154" lon="1.9013445"><ele>267.66666666666663</ele><time>2026-04-18T11:52:48.708Z</time></trkpt><trkpt lat="41.7705362" lon="1.9014168"><ele>267.3333333333333</ele><time>2026-04-18T11:52:49.708Z</time></trkpt><trkpt lat="41.7703778" lon="1.9014866"><ele>267.0</ele><time>2026-04-18T11:52:50.708Z</time></trkpt><trkpt lat="41.7702443" lon="1.9015738"><ele>267.25</ele><time>2026-04-18T11:52:51.708Z</time></trkpt><trkpt lat="41.7701465" lon="1.9017006"><ele>267.5</ele><time>2026-04-18T11:52:52.708Z</time></trkpt><trkpt lat="41.7700892" lon="1.9018625"><ele>267.75</ele><time>2026-04-18T11:52:53.708Z</time></trkpt><trkpt lat="41.7700547" lon="1.9020418"><ele>268.0</ele><time>2026-04-18T11:52:54.708Z</time></trkpt><trkpt lat="41.7700215" lon="1.9022288"><ele>265.75</ele><time>2026-04-18T11:52:55.708Z</time></trkpt><trkpt lat="41.7699848" lon="1.9024177"><ele>263.5</ele><time>2026-04-18T11:52:56.707Z</time></trkpt><trkpt lat="41.7699485" lon="1.902604"><ele>261.25</ele><time>2026-04-18T11:52:57.708Z</time></trkpt><trkpt lat="41.7699161" lon="1.9027791"><ele>259.0</ele><time>2026-04-18T11:52:58.707Z</time></trkpt><trkpt lat="41.7698888" lon="1.9029195"><ele>258.8333333333333</ele><time>2026-04-18T11:52:59.707Z</time></trkpt><trkpt lat="41.7698663" lon="1.9030293"><ele>258.66666666666663</ele><time>2026-04-18T11:53:00.707Z</time></trkpt><trkpt lat="41.7698445" lon="1.9031588"><ele>258.5</ele><time>2026-04-18T11:53:02.708Z</time></trkpt><trkpt lat="41.7698705" lon="1.9032667"><ele>258.3333333333333</ele><time>2026-04-18T11:53:05.708Z</time></trkpt><trkpt lat="41.7699267" lon="1.9033064"><ele>258.1666666666667</ele><time>2026-04-18T11:53:06.708Z</time></trkpt><trkpt lat="41.7700151" lon="1.9033164"><ele>258.0</ele><time>2026-04-18T11:53:07.707Z</time></trkpt><trkpt lat="41.770138" lon="1.9033052"><ele>257.3333333333333</ele><time>2026-04-18T11:53:08.708Z</time></trkpt><trkpt lat="41.7702832" lon="1.9032783"><ele>256.66666666666663</ele><time>2026-04-18T11:53:09.708Z</time></trkpt><trkpt lat="41.7704512" lon="1.9032386"><ele>256.0</ele><time>2026-04-18T11:53:10.708Z</time></trkpt><trkpt lat="41.7706388" lon="1.9032029"><ele>256.0</ele><time>2026-04-18T11:53:11.708Z</time></trkpt><trkpt lat="41.7708487" lon="1.9032036"><ele>256.0</ele><time>2026-04-18T11:53:12.708Z</time></trkpt><trkpt lat="41.7710681" lon="1.9032512"><ele>256.0</ele><time>2026-04-18T11:53:13.707Z</time></trkpt><trkpt lat="41.7712788" lon="1.903308"><ele>256.3333333333333</ele><time>2026-04-18T11:53:14.708Z</time></trkpt><trkpt lat="41.7714722" lon="1.9033644"><ele>256.6666666666667</ele><time>2026-04-18T11:53:15.707Z</time></trkpt><trkpt lat="41.7716467" lon="1.9034313"><ele>257.0</ele><time>2026-04-18T11:53:16.708Z</time></trkpt><trkpt lat="41.771794" lon="1.9035349"><ele>254.0</ele><time>2026-04-18T11:53:17.708Z</time></trkpt><trkpt lat="41.7719024" lon="1.9036687"><ele>251.0</ele><time>2026-04-18T11:53:18.708Z</time></trkpt><trkpt lat="41.7719929" lon="1.9037966"><ele>248.0</ele><time>2026-04-18T11:53:19.707Z</time></trkpt><trkpt lat="41.7720685" lon="1.9039168"><ele>245.0</ele><time>2026-04-18T11:53:20.708Z</time></trkpt><trkpt lat="41.7721165" lon="1.9040476"><ele>245.0</ele><time>2026-04-18T11:53:21.708Z</time></trkpt><trkpt lat="41.7721271" lon="1.9041951"><ele>245.0</ele><time>2026-04-18T11:53:22.708Z</time></trkpt><trkpt lat="41.7721286" lon="1.9043696"><ele>245.0</ele><time>2026-04-18T11:53:23.708Z</time></trkpt><trkpt lat="41.7721295" lon="1.9045675"><ele>245.0</ele><time>2026-04-18T11:53:24.708Z</time></trkpt><trkpt lat="41.7721294" lon="1.9047859"><ele>244.75</ele><time>2026-04-18T11:53:25.708Z</time></trkpt><trkpt lat="41.7721287" lon="1.9049852"><ele>244.5</ele><time>2026-04-18T11:53:26.708Z</time></trkpt><trkpt lat="41.7721356" lon="1.905156"><ele>244.25</ele><time>2026-04-18T11:53:27.708Z</time></trkpt><trkpt lat="41.7721804" lon="1.905294"><ele>244.0</ele><time>2026-04-18T11:53:28.708Z</time></trkpt><trkpt lat="41.7722613" lon="1.9054013"><ele>249.66666666666666</ele><time>2026-04-18T11:53:29.708Z</time></trkpt><trkpt lat="41.7723774" lon="1.9054753"><ele>255.33333333333331</ele><time>2026-04-18T11:53:30.708Z</time></trkpt><trkpt lat="41.772527" lon="1.9054974"><ele>261.0</ele><time>2026-04-18T11:53:31.708Z</time></trkpt><trkpt lat="41.77271" lon="1.9054795"><ele>261.0</ele><time>2026-04-18T11:53:32.707Z</time></trkpt><trkpt lat="41.7729294" lon="1.9054359"><ele>261.0</ele><time>2026-04-18T11:53:33.708Z</time></trkpt><trkpt lat="41.7731807" lon="1.9053804"><ele>261.0</ele><time>2026-04-18T11:53:34.708Z</time></trkpt><trkpt lat="41.7734628" lon="1.9053258"><ele>261.0</ele><time>2026-04-18T11:53:35.708Z</time></trkpt><trkpt lat="41.7737577" lon="1.9052681"><ele>261.5</ele><time>2026-04-18T11:53:36.707Z</time></trkpt><trkpt lat="41.7740264" lon="1.9052128"><ele>262.0</ele><time>2026-04-18T11:53:37.708Z</time></trkpt><trkpt lat="41.7742722" lon="1.9051686"><ele>263.66666666666663</ele><time>2026-04-18T11:53:38.707Z</time></trkpt><trkpt lat="41.7744956" lon="1.905135"><ele>265.3333333333333</ele><time>2026-04-18T11:53:39.707Z</time></trkpt><trkpt lat="41.7746869" lon="1.9051608"><ele>267.0</ele><time>2026-04-18T11:53:40.708Z</time></trkpt><trkpt lat="41.7748538" lon="1.9052552"><ele>267.0</ele><time>2026-04-18T11:53:41.708Z</time></trkpt><trkpt lat="41.7750101" lon="1.9054132"><ele>267.0</ele><time>2026-04-18T11:53:42.708Z</time></trkpt><trkpt lat="41.7751143" lon="1.9056062"><ele>267.0</ele><time>2026-04-18T11:53:43.707Z</time></trkpt><trkpt lat="41.7751652" lon="1.905832"><ele>263.3333333333333</ele><time>2026-04-18T11:53:44.708Z</time></trkpt><trkpt lat="41.7751947" lon="1.9061046"><ele>259.66666666666663</ele><time>2026-04-18T11:53:45.708Z</time></trkpt><trkpt lat="41.7752314" lon="1.906408"><ele>256.0</ele><time>2026-04-18T11:53:46.708Z</time></trkpt><trkpt lat="41.7752794" lon="1.9067289"><ele>262.0</ele><time>2026-04-18T11:53:47.707Z</time></trkpt><trkpt lat="41.775346" lon="1.9070645"><ele>268.0</ele><time>2026-04-18T11:53:48.708Z</time></trkpt><trkpt lat="41.7754442" lon="1.9073993"><ele>272.0</ele><time>2026-04-18T11:53:49.708Z</time></trkpt><trkpt lat="41.7755809" lon="1.9077421"><ele>276.0</ele><time>2026-04-18T11:53:50.707Z</time></trkpt><trkpt lat="41.7757554" lon="1.9080841"><ele>279.0</ele><time>2026-04-18T11:53:51.708Z</time></trkpt><trkpt lat="41.7759641" lon="1.9084155"><ele>282.0</ele><time>2026-04-18T11:53:52.708Z</time></trkpt><trkpt lat="41.7761912" lon="1.9087308"><ele>273.5</ele><time>2026-04-18T11:53:53.708Z</time></trkpt><trkpt lat="41.7764083" lon="1.909025"><ele>265.0</ele><time>2026-04-18T11:53:54.708Z</time></trkpt><trkpt lat="41.7766167" lon="1.9093221"><ele>265.0</ele><time>2026-04-18T11:53:55.708Z</time></trkpt><trkpt lat="41.7768252" lon="1.9096164"><ele>265.0</ele><time>2026-04-18T11:53:56.708Z</time></trkpt><trkpt lat="41.7770324" lon="1.909903"><ele>265.0</ele><time>2026-04-18T11:53:57.708Z</time></trkpt><trkpt lat="41.7772318" lon="1.9101793"><ele>265.0</ele><time>2026-04-18T11:53:58.708Z</time></trkpt><trkpt lat="41.7774239" lon="1.9104527"><ele>265.0</ele><time>2026-04-18T11:53:59.708Z</time></trkpt><trkpt lat="41.7776075" lon="1.9107187"><ele>265.0</ele><time>2026-04-18T11:54:00.708Z</time></trkpt><trkpt lat="41.7777893" lon="1.9109748"><ele>264.5</ele><time>2026-04-18T11:54:01.708Z</time></trkpt><trkpt lat="41.7779694" lon="1.9112246"><ele>264.0</ele><time>2026-04-18T11:54:02.708Z</time></trkpt><trkpt lat="41.7781438" lon="1.9114699"><ele>264.0</ele><time>2026-04-18T11:54:03.708Z</time></trkpt><trkpt lat="41.7783111" lon="1.9117115"><ele>264.0</ele><time>2026-04-18T11:54:04.708Z</time></trkpt><trkpt lat="41.7784782" lon="1.9119509"><ele>264.5</ele><time>2026-04-18T11:54:05.708Z</time></trkpt><trkpt lat="41.7786461" lon="1.9121897"><ele>265.0</ele><time>2026-04-18T11:54:06.708Z</time></trkpt><trkpt lat="41.7788148" lon="1.91243"><ele>266.0</ele><time>2026-04-18T11:54:07.708Z</time></trkpt><trkpt lat="41.7789859" lon="1.9126725"><ele>267.0</ele><time>2026-04-18T11:54:08.708Z</time></trkpt><trkpt lat="41.779157" lon="1.9129177"><ele>267.0</ele><time>2026-04-18T11:54:09.708Z</time></trkpt><trkpt lat="41.7793313" lon="1.9131635"><ele>267.0</ele><time>2026-04-18T11:54:10.708Z</time></trkpt><trkpt lat="41.7795035" lon="1.9134074"><ele>267.5</ele><time>2026-04-18T11:54:11.708Z</time></trkpt><trkpt lat="41.7796782" lon="1.9136533"><ele>268.0</ele><time>2026-04-18T11:54:12.708Z</time></trkpt><trkpt lat="41.7798524" lon="1.9138977"><ele>268.0</ele><time>2026-04-18T11:54:13.708Z</time></trkpt><trkpt lat="41.7800253" lon="1.9141443"><ele>268.0</ele><time>2026-04-18T11:54:14.708Z</time></trkpt><trkpt lat="41.7801984" lon="1.914391"><ele>269.0</ele><time>2026-04-18T11:54:15.708Z</time></trkpt><trkpt lat="41.7803747" lon="1.9146325"><ele>270.0</ele><time>2026-04-18T11:54:16.708Z</time></trkpt><trkpt lat="41.7805519" lon="1.914877"><ele>271.0</ele><time>2026-04-18T11:54:17.707Z</time></trkpt><trkpt lat="41.7807248" lon="1.9151149"><ele>272.0</ele><time>2026-04-18T11:54:18.708Z</time></trkpt><trkpt lat="41.7808906" lon="1.9153452"><ele>270.5</ele><time>2026-04-18T11:54:19.707Z</time></trkpt><trkpt lat="41.7810558" lon="1.9155768"><ele>269.0</ele><time>2026-04-18T11:54:20.707Z</time></trkpt><trkpt lat="41.7812206" lon="1.915808"><ele>270.0</ele><time>2026-04-18T11:54:21.708Z</time></trkpt><trkpt lat="41.7813813" lon="1.9160362"><ele>271.0</ele><time>2026-04-18T11:54:22.708Z</time></trkpt><trkpt lat="41.7815368" lon="1.916265"><ele>271.0</ele><time>2026-04-18T11:54:23.708Z</time></trkpt><trkpt lat="41.7816826" lon="1.9165115"><ele>271.0</ele><time>2026-04-18T11:54:24.707Z</time></trkpt><trkpt lat="41.781808" lon="1.9167833"><ele>272.5</ele><time>2026-04-18T11:54:25.707Z</time></trkpt><trkpt lat="41.781908" lon="1.9170831"><ele>274.0</ele><time>2026-04-18T11:54:26.708Z</time></trkpt><trkpt lat="41.7819938" lon="1.9173986"><ele>274.5</ele><time>2026-04-18T11:54:27.708Z</time></trkpt><trkpt lat="41.7820798" lon="1.91772"><ele>275.0</ele><time>2026-04-18T11:54:28.707Z</time></trkpt><trkpt lat="41.7821663" lon="1.9180435"><ele>275.0</ele><time>2026-04-18T11:54:29.708Z</time></trkpt><trkpt lat="41.7822514" lon="1.9183677"><ele>275.0</ele><time>2026-04-18T11:54:30.707Z</time></trkpt><trkpt lat="41.7823295" lon="1.9186736"><ele>274.5</ele><time>2026-04-18T11:54:31.708Z</time></trkpt><trkpt lat="41.7824073" lon="1.9189751"><ele>274.0</ele><time>2026-04-18T11:54:32.708Z</time></trkpt><trkpt lat="41.7824921" lon="1.9192775"><ele>275.0</ele><time>2026-04-18T11:54:33.707Z</time></trkpt><trkpt lat="41.7825992" lon="1.9195713"><ele>276.0</ele><time>2026-04-18T11:54:34.707Z</time></trkpt><trkpt lat="41.78274" lon="1.919848"><ele>277.0</ele><time>2026-04-18T11:54:35.707Z</time></trkpt><trkpt lat="41.7829117" lon="1.9201192"><ele>278.0</ele><time>2026-04-18T11:54:36.708Z</time></trkpt><trkpt lat="41.7830965" lon="1.9203902"><ele>278.0</ele><time>2026-04-18T11:54:37.708Z</time></trkpt><trkpt lat="41.78328" lon="1.9206698"><ele>278.0</ele><time>2026-04-18T11:54:38.708Z</time></trkpt><trkpt lat="41.7834642" lon="1.9209517"><ele>278.0</ele><time>2026-04-18T11:54:39.708Z</time></trkpt><trkpt lat="41.7836528" lon="1.9212395"><ele>278.0</ele><time>2026-04-18T11:54:40.707Z</time></trkpt><trkpt lat="41.7838392" lon="1.9215252"><ele>278.5</ele><time>2026-04-18T11:54:41.708Z</time></trkpt><trkpt lat="41.7840193" lon="1.9218064"><ele>279.0</ele><time>2026-04-18T11:54:42.707Z</time></trkpt><trkpt lat="41.784194" lon="1.9220788"><ele>279.5</ele><time>2026-04-18T11:54:43.708Z</time></trkpt><trkpt lat="41.7843666" lon="1.9223465"><ele>280.0</ele><time>2026-04-18T11:54:44.707Z</time></trkpt><trkpt lat="41.7845395" lon="1.9226123"><ele>280.0</ele><time>2026-04-18T11:54:45.708Z</time></trkpt><trkpt lat="41.7847119" lon="1.92288"><ele>280.0</ele><time>2026-04-18T11:54:46.708Z</time></trkpt><trkpt lat="41.7848867" lon="1.9231501"><ele>280.5</ele><time>2026-04-18T11:54:47.708Z</time></trkpt><trkpt lat="41.785065" lon="1.9234222"><ele>281.0</ele><time>2026-04-18T11:54:48.708Z</time></trkpt><trkpt lat="41.785245" lon="1.9236965"><ele>280.0</ele><time>2026-04-18T11:54:49.707Z</time></trkpt><trkpt lat="41.7854254" lon="1.9239713"><ele>279.0</ele><time>2026-04-18T11:54:50.707Z</time></trkpt><trkpt lat="41.7856" lon="1.9242352"><ele>279.0</ele><time>2026-04-18T11:54:51.708Z</time></trkpt><trkpt lat="41.7857693" lon="1.92449"><ele>279.0</ele><time>2026-04-18T11:54:52.708Z</time></trkpt><trkpt lat="41.7859285" lon="1.9247467"><ele>278.0</ele><time>2026-04-18T11:54:53.708Z</time></trkpt><trkpt lat="41.7860712" lon="1.9250315"><ele>277.0</ele><time>2026-04-18T11:54:54.707Z</time></trkpt><trkpt lat="41.7861949" lon="1.9253405"><ele>277.0</ele><time>2026-04-18T11:54:55.708Z</time></trkpt><trkpt lat="41.78631" lon="1.92566"><ele>277.0</ele><time>2026-04-18T11:54:56.707Z</time></trkpt><trkpt lat="41.7864233" lon="1.9259733"><ele>276.5</ele><time>2026-04-18T11:54:57.707Z</time></trkpt><trkpt lat="41.7865329" lon="1.9262795"><ele>276.0</ele><time>2026-04-18T11:54:58.708Z</time></trkpt><trkpt lat="41.7866418" lon="1.926583"><ele>276.0</ele><time>2026-04-18T11:54:59.708Z</time></trkpt><trkpt lat="41.7867561" lon="1.9268802"><ele>276.0</ele><time>2026-04-18T11:55:00.707Z</time></trkpt><trkpt lat="41.7870414" lon="1.9274419"><ele>274.0</ele><time>2026-04-18T11:55:02.708Z</time></trkpt><trkpt lat="41.7872165" lon="1.9277044"><ele>272.0</ele><time>2026-04-18T11:55:03.708Z</time></trkpt><trkpt lat="41.7874002" lon="1.9279639"><ele>272.0</ele><time>2026-04-18T11:55:04.708Z</time></trkpt><trkpt lat="41.787574" lon="1.9282198"><ele>272.0</ele><time>2026-04-18T11:55:05.708Z</time></trkpt><trkpt lat="41.7877414" lon="1.9284721"><ele>273.0</ele><time>2026-04-18T11:55:06.708Z</time></trkpt><trkpt lat="41.7879135" lon="1.92872"><ele>274.0</ele><time>2026-04-18T11:55:07.708Z</time></trkpt><trkpt lat="41.788082" lon="1.9289661"><ele>274.0</ele><time>2026-04-18T11:55:08.708Z</time></trkpt><trkpt lat="41.7882541" lon="1.9292162"><ele>274.0</ele><time>2026-04-18T11:55:09.707Z</time></trkpt><trkpt lat="41.7884248" lon="1.9294677"><ele>273.5</ele><time>2026-04-18T11:55:10.708Z</time></trkpt><trkpt lat="41.7885992" lon="1.9297196"><ele>273.0</ele><time>2026-04-18T11:55:11.708Z</time></trkpt><trkpt lat="41.7887662" lon="1.9299681"><ele>274.5</ele><time>2026-04-18T11:55:12.707Z</time></trkpt><trkpt lat="41.7889303" lon="1.9302204"><ele>276.0</ele><time>2026-04-18T11:55:13.708Z</time></trkpt><trkpt lat="41.7890872" lon="1.9304887"><ele>276.0</ele><time>2026-04-18T11:55:14.708Z</time></trkpt><trkpt lat="41.7892265" lon="1.9307791"><ele>276.0</ele><time>2026-04-18T11:55:15.708Z</time></trkpt><trkpt lat="41.7893463" lon="1.9310808"><ele>276.5</ele><time>2026-04-18T11:55:16.708Z</time></trkpt><trkpt lat="41.7894573" lon="1.931386"><ele>277.0</ele><time>2026-04-18T11:55:17.708Z</time></trkpt><trkpt lat="41.7895678" lon="1.9316928"><ele>279.0</ele><time>2026-04-18T11:55:18.707Z</time></trkpt><trkpt lat="41.789676" lon="1.9320011"><ele>281.0</ele><time>2026-04-18T11:55:19.708Z</time></trkpt><trkpt lat="41.7897809" lon="1.9323039"><ele>282.0</ele><time>2026-04-18T11:55:20.708Z</time></trkpt><trkpt lat="41.7898854" lon="1.9326005"><ele>283.0</ele><time>2026-04-18T11:55:21.708Z</time></trkpt><trkpt lat="41.7899845" lon="1.9328862"><ele>283.0</ele><time>2026-04-18T11:55:22.707Z</time></trkpt><trkpt lat="41.7900765" lon="1.9331567"><ele>283.0</ele><time>2026-04-18T11:55:23.708Z</time></trkpt><trkpt lat="41.7901615" lon="1.93342"><ele>283.0</ele><time>2026-04-18T11:55:24.708Z</time></trkpt><trkpt lat="41.790242" lon="1.933689"><ele>282.66666666666663</ele><time>2026-04-18T11:55:25.707Z</time></trkpt><trkpt lat="41.7903293" lon="1.9339598"><ele>282.3333333333333</ele><time>2026-04-18T11:55:26.708Z</time></trkpt><trkpt lat="41.7904239" lon="1.9342333"><ele>282.0</ele><time>2026-04-18T11:55:27.708Z</time></trkpt><trkpt lat="41.7905205" lon="1.9345088"><ele>284.0</ele><time>2026-04-18T11:55:28.708Z</time></trkpt><trkpt lat="41.7906187" lon="1.9347851"><ele>286.0</ele><time>2026-04-18T11:55:29.708Z</time></trkpt><trkpt lat="41.7907261" lon="1.9350574"><ele>287.5</ele><time>2026-04-18T11:55:30.708Z</time></trkpt><trkpt lat="41.7908285" lon="1.9353287"><ele>289.0</ele><time>2026-04-18T11:55:31.707Z</time></trkpt><trkpt lat="41.7909251" lon="1.9356036"><ele>288.5</ele><time>2026-04-18T11:55:32.708Z</time></trkpt><trkpt lat="41.7910243" lon="1.9358842"><ele>288.0</ele><time>2026-04-18T11:55:33.708Z</time></trkpt><trkpt lat="41.7911256" lon="1.9361692"><ele>288.0</ele><time>2026-04-18T11:55:34.707Z</time></trkpt><trkpt lat="41.7912275" lon="1.9364574"><ele>288.0</ele><time>2026-04-18T11:55:35.708Z</time></trkpt><trkpt lat="41.7913329" lon="1.936755"><ele>289.5</ele><time>2026-04-18T11:55:36.707Z</time></trkpt><trkpt lat="41.7914362" lon="1.9370557"><ele>291.0</ele><time>2026-04-18T11:55:37.708Z</time></trkpt><trkpt lat="41.7915382" lon="1.937364"><ele>293.0</ele><time>2026-04-18T11:55:38.708Z</time></trkpt><trkpt lat="41.7916407" lon="1.9376666"><ele>295.0</ele><time>2026-04-18T11:55:39.708Z</time></trkpt><trkpt lat="41.7917412" lon="1.9379662"><ele>295.0</ele><time>2026-04-18T11:55:40.708Z</time></trkpt><trkpt lat="41.7918404" lon="1.9382629"><ele>295.0</ele><time>2026-04-18T11:55:41.708Z</time></trkpt><trkpt lat="41.7919385" lon="1.9385547"><ele>295.0</ele><time>2026-04-18T11:55:42.708Z</time></trkpt><trkpt lat="41.7920359" lon="1.9388416"><ele>295.0</ele><time>2026-04-18T11:55:43.708Z</time></trkpt><trkpt lat="41.7921304" lon="1.9391274"><ele>296.0</ele><time>2026-04-18T11:55:44.708Z</time></trkpt><trkpt lat="41.7922213" lon="1.9394136"><ele>297.0</ele><time>2026-04-18T11:55:45.708Z</time></trkpt><trkpt lat="41.7923113" lon="1.9397004"><ele>297.0</ele><time>2026-04-18T11:55:46.708Z</time></trkpt><trkpt lat="41.7924079" lon="1.9399861"><ele>297.0</ele><time>2026-04-18T11:55:47.708Z</time></trkpt><trkpt lat="41.7925097" lon="1.9402692"><ele>297.0</ele><time>2026-04-18T11:55:48.707Z</time></trkpt><trkpt lat="41.7926151" lon="1.9405454"><ele>297.0</ele><time>2026-04-18T11:55:49.708Z</time></trkpt><trkpt lat="41.7927235" lon="1.940821"><ele>297.5</ele><time>2026-04-18T11:55:50.708Z</time></trkpt><trkpt lat="41.7928267" lon="1.9411007"><ele>298.0</ele><time>2026-04-18T11:55:51.708Z</time></trkpt><trkpt lat="41.7929251" lon="1.9413837"><ele>298.0</ele><time>2026-04-18T11:55:52.708Z</time></trkpt><trkpt lat="41.793024" lon="1.9416633"><ele>298.0</ele><time>2026-04-18T11:55:53.708Z</time></trkpt><trkpt lat="41.7931173" lon="1.9419263"><ele>298.0</ele><time>2026-04-18T11:55:54.707Z</time></trkpt><trkpt lat="41.7932008" lon="1.9421723"><ele>299.3333333333333</ele><time>2026-04-18T11:55:55.708Z</time></trkpt><trkpt lat="41.79328" lon="1.9424004"><ele>300.6666666666667</ele><time>2026-04-18T11:55:56.708Z</time></trkpt><trkpt lat="41.7933595" lon="1.9426133"><ele>302.0</ele><time>2026-04-18T11:55:57.708Z</time></trkpt><trkpt lat="41.7934449" lon="1.9428034"><ele>301.75</ele><time>2026-04-18T11:55:58.708Z</time></trkpt><trkpt lat="41.7935393" lon="1.9429738"><ele>301.5</ele><time>2026-04-18T11:55:59.708Z</time></trkpt><trkpt lat="41.7936328" lon="1.9431259"><ele>301.25</ele><time>2026-04-18T11:56:00.708Z</time></trkpt><trkpt lat="41.7937077" lon="1.9432569"><ele>301.0</ele><time>2026-04-18T11:56:01.708Z</time></trkpt><trkpt lat="41.7937623" lon="1.9433771"><ele>301.8</ele><time>2026-04-18T11:56:02.708Z</time></trkpt><trkpt lat="41.7937978" lon="1.9434774"><ele>302.6</ele><time>2026-04-18T11:56:03.707Z</time></trkpt><trkpt lat="41.7938187" lon="1.943622"><ele>303.4</ele><time>2026-04-18T11:56:05.708Z</time></trkpt><trkpt lat="41.7938124" lon="1.9437638"><ele>304.2</ele><time>2026-04-18T11:56:07.707Z</time></trkpt><trkpt lat="41.7938501" lon="1.9439407"><ele>305.0</ele><time>2026-04-18T11:56:09.707Z</time></trkpt><trkpt lat="41.7938887" lon="1.9440345"><ele>305.0</ele><time>2026-04-18T11:56:10.708Z</time></trkpt><trkpt lat="41.7939331" lon="1.9441454"><ele>305.0</ele><time>2026-04-18T11:56:11.707Z</time></trkpt><trkpt lat="41.7939766" lon="1.9442595"><ele>305.0</ele><time>2026-04-18T11:56:12.708Z</time></trkpt><trkpt lat="41.7940218" lon="1.9443783"><ele>305.0</ele><time>2026-04-18T11:56:13.707Z</time></trkpt><trkpt lat="41.7940805" lon="1.9445097"><ele>305.0</ele><time>2026-04-18T11:56:14.707Z</time></trkpt><trkpt lat="41.7941412" lon="1.9446508"><ele>305.25</ele><time>2026-04-18T11:56:15.708Z</time></trkpt><trkpt lat="41.7942017" lon="1.9447991"><ele>305.5</ele><time>2026-04-18T11:56:16.708Z</time></trkpt><trkpt lat="41.7942606" lon="1.9449473"><ele>305.75</ele><time>2026-04-18T11:56:17.708Z</time></trkpt><trkpt lat="41.794317" lon="1.945088"><ele>306.0</ele><time>2026-04-18T11:56:18.707Z</time></trkpt><trkpt lat="41.7943776" lon="1.9452266"><ele>306.0</ele><time>2026-04-18T11:56:19.707Z</time></trkpt><trkpt lat="41.7944375" lon="1.9453652"><ele>306.0</ele><time>2026-04-18T11:56:20.708Z</time></trkpt><trkpt lat="41.7944952" lon="1.9455028"><ele>306.0</ele><time>2026-04-18T11:56:21.708Z</time></trkpt><trkpt lat="41.7945514" lon="1.9456401"><ele>306.0</ele><time>2026-04-18T11:56:22.708Z</time></trkpt><trkpt lat="41.7946088" lon="1.9457736"><ele>305.8333333333333</ele><time>2026-04-18T11:56:23.707Z</time></trkpt><trkpt lat="41.7946645" lon="1.9458982"><ele>305.6666666666667</ele><time>2026-04-18T11:56:24.708Z</time></trkpt><trkpt lat="41.7947125" lon="1.9460159"><ele>305.5</ele><time>2026-04-18T11:56:25.708Z</time></trkpt><trkpt lat="41.7947545" lon="1.9461167"><ele>305.33333333333337</ele><time>2026-04-18T11:56:26.708Z</time></trkpt><trkpt lat="41.7947899" lon="1.9462016"><ele>305.1666666666667</ele><time>2026-04-18T11:56:27.708Z</time></trkpt><trkpt lat="41.7948192" lon="1.9462764"><ele>305.0</ele><time>2026-04-18T11:56:28.708Z</time></trkpt><trkpt lat="41.7948752" lon="1.946416"><ele>305.0</ele><time>2026-04-18T11:56:30.708Z</time></trkpt><trkpt lat="41.7949095" lon="1.9464964"><ele>305.0</ele><time>2026-04-18T11:56:31.708Z</time></trkpt><trkpt lat="41.7949472" lon="1.9465836"><ele>305.0</ele><time>2026-04-18T11:56:32.707Z</time></trkpt><trkpt lat="41.7949877" lon="1.9466805"><ele>305.0</ele><time>2026-04-18T11:56:33.707Z</time></trkpt><trkpt lat="41.7950318" lon="1.9467888"><ele>305.0</ele><time>2026-04-18T11:56:34.708Z</time></trkpt><trkpt lat="41.7950776" lon="1.9469028"><ele>305.0</ele><time>2026-04-18T11:56:35.708Z</time></trkpt><trkpt lat="41.7951274" lon="1.9470252"><ele>304.8</ele><time>2026-04-18T11:56:36.707Z</time></trkpt><trkpt lat="41.7951827" lon="1.9471506"><ele>304.6</ele><time>2026-04-18T11:56:37.708Z</time></trkpt><trkpt lat="41.7952405" lon="1.9472815"><ele>304.4</ele><time>2026-04-18T11:56:38.708Z</time></trkpt><trkpt lat="41.7952955" lon="1.947414"><ele>304.2</ele><time>2026-04-18T11:56:39.708Z</time></trkpt><trkpt lat="41.7953486" lon="1.9475444"><ele>304.0</ele><time>2026-04-18T11:56:40.707Z</time></trkpt><trkpt lat="41.7954031" lon="1.9476727"><ele>304.8</ele><time>2026-04-18T11:56:41.708Z</time></trkpt><trkpt lat="41.7954533" lon="1.9477963"><ele>305.59999999999997</ele><time>2026-04-18T11:56:42.708Z</time></trkpt><trkpt lat="41.795504" lon="1.9479103"><ele>306.4</ele><time>2026-04-18T11:56:43.707Z</time></trkpt><trkpt lat="41.7955443" lon="1.9480143"><ele>307.2</ele><time>2026-04-18T11:56:44.708Z</time></trkpt><trkpt lat="41.7955782" lon="1.9480927"><ele>308.0</ele><time>2026-04-18T11:56:45.708Z</time></trkpt><trkpt lat="41.7956396" lon="1.9482317"><ele>308.0</ele><time>2026-04-18T11:56:47.708Z</time></trkpt><trkpt lat="41.7956735" lon="1.9483066"><ele>308.0</ele><time>2026-04-18T11:56:48.708Z</time></trkpt><trkpt lat="41.7957111" lon="1.9483927"><ele>308.0</ele><time>2026-04-18T11:56:49.708Z</time></trkpt><trkpt lat="41.795753" lon="1.9484966"><ele>308.0</ele><time>2026-04-18T11:56:50.708Z</time></trkpt><trkpt lat="41.7958018" lon="1.9486166"><ele>308.0</ele><time>2026-04-18T11:56:51.707Z</time></trkpt><trkpt lat="41.795858" lon="1.9487543"><ele>308.0</ele><time>2026-04-18T11:56:52.707Z</time></trkpt><trkpt lat="41.7959226" lon="1.9489113"><ele>308.5</ele><time>2026-04-18T11:56:53.708Z</time></trkpt><trkpt lat="41.7959919" lon="1.9490781"><ele>309.0</ele><time>2026-04-18T11:56:54.708Z</time></trkpt><trkpt lat="41.796064" lon="1.9492449"><ele>309.5</ele><time>2026-04-18T11:56:55.708Z</time></trkpt><trkpt lat="41.7961369" lon="1.9494137"><ele>310.0</ele><time>2026-04-18T11:56:56.708Z</time></trkpt><trkpt lat="41.7961989" lon="1.9495688"><ele>310.0</ele><time>2026-04-18T11:56:57.708Z</time></trkpt><trkpt lat="41.7962578" lon="1.9497172"><ele>310.0</ele><time>2026-04-18T11:56:58.707Z</time></trkpt><trkpt lat="41.7963121" lon="1.9498388"><ele>310.0</ele><time>2026-04-18T11:56:59.708Z</time></trkpt><trkpt lat="41.7963567" lon="1.9499516"><ele>310.0</ele><time>2026-04-18T11:57:00.707Z</time></trkpt><trkpt lat="41.7964012" lon="1.9500587"><ele>310.0</ele><time>2026-04-18T11:57:01.707Z</time></trkpt><trkpt lat="41.7964507" lon="1.9501753"><ele>310.25</ele><time>2026-04-18T11:57:02.708Z</time></trkpt><trkpt lat="41.7965038" lon="1.9503001"><ele>310.5</ele><time>2026-04-18T11:57:03.707Z</time></trkpt><trkpt lat="41.7965635" lon="1.9504428"><ele>310.75</ele><time>2026-04-18T11:57:04.708Z</time></trkpt><trkpt lat="41.7966256" lon="1.9505974"><ele>311.0</ele><time>2026-04-18T11:57:05.708Z</time></trkpt><trkpt lat="41.7966903" lon="1.9507541"><ele>311.0</ele><time>2026-04-18T11:57:06.707Z</time></trkpt><trkpt lat="41.7967595" lon="1.9509233"><ele>311.0</ele><time>2026-04-18T11:57:07.708Z</time></trkpt><trkpt lat="41.7968287" lon="1.9510946"><ele>311.0</ele><time>2026-04-18T11:57:08.707Z</time></trkpt><trkpt lat="41.7968992" lon="1.9512611"><ele>311.0</ele><time>2026-04-18T11:57:09.707Z</time></trkpt><trkpt lat="41.7969677" lon="1.9514317"><ele>311.0</ele><time>2026-04-18T11:57:10.708Z</time></trkpt><trkpt lat="41.7970382" lon="1.9515991"><ele>311.0</ele><time>2026-04-18T11:57:11.708Z</time></trkpt><trkpt lat="41.7971065" lon="1.9517644"><ele>311.0</ele><time>2026-04-18T11:57:12.708Z</time></trkpt><trkpt lat="41.797172" lon="1.9519226"><ele>311.0</ele><time>2026-04-18T11:57:13.707Z</time></trkpt><trkpt lat="41.797235" lon="1.9520749"><ele>311.25</ele><time>2026-04-18T11:57:14.708Z</time></trkpt><trkpt lat="41.7972971" lon="1.9522225"><ele>311.5</ele><time>2026-04-18T11:57:15.708Z</time></trkpt><trkpt lat="41.7973557" lon="1.9523619"><ele>311.75</ele><time>2026-04-18T11:57:16.708Z</time></trkpt><trkpt lat="41.7974092" lon="1.9524935"><ele>312.0</ele><time>2026-04-18T11:57:17.708Z</time></trkpt><trkpt lat="41.7974599" lon="1.9526186"><ele>312.6</ele><time>2026-04-18T11:57:18.708Z</time></trkpt><trkpt lat="41.7975096" lon="1.9527452"><ele>313.2</ele><time>2026-04-18T11:57:19.707Z</time></trkpt><trkpt lat="41.7975603" lon="1.952866"><ele>313.8</ele><time>2026-04-18T11:57:20.708Z</time></trkpt><trkpt lat="41.7976137" lon="1.9529893"><ele>314.4</ele><time>2026-04-18T11:57:21.708Z</time></trkpt><trkpt lat="41.7976673" lon="1.9531209"><ele>315.0</ele><time>2026-04-18T11:57:22.707Z</time></trkpt><trkpt lat="41.7977238" lon="1.9532556"><ele>315.5</ele><time>2026-04-18T11:57:23.708Z</time></trkpt><trkpt lat="41.7977788" lon="1.9533952"><ele>316.0</ele><time>2026-04-18T11:57:24.707Z</time></trkpt><trkpt lat="41.7978369" lon="1.9535405"><ele>316.5</ele><time>2026-04-18T11:57:25.707Z</time></trkpt><trkpt lat="41.7978955" lon="1.9536822"><ele>317.0</ele><time>2026-04-18T11:57:26.707Z</time></trkpt><trkpt lat="41.797954" lon="1.9538273"><ele>317.0</ele><time>2026-04-18T11:57:27.708Z</time></trkpt><trkpt lat="41.7980107" lon="1.9539675"><ele>317.0</ele><time>2026-04-18T11:57:28.707Z</time></trkpt><trkpt lat="41.7980638" lon="1.9540994"><ele>317.0</ele><time>2026-04-18T11:57:29.708Z</time></trkpt><trkpt lat="41.7981175" lon="1.9542307"><ele>317.0</ele><time>2026-04-18T11:57:30.708Z</time></trkpt><trkpt lat="41.7981724" lon="1.954356"><ele>316.8</ele><time>2026-04-18T11:57:31.708Z</time></trkpt><trkpt lat="41.7982347" lon="1.9544713"><ele>316.6</ele><time>2026-04-18T11:57:32.708Z</time></trkpt><trkpt lat="41.7983061" lon="1.9545781"><ele>316.40000000000003</ele><time>2026-04-18T11:57:33.707Z</time></trkpt><trkpt lat="41.7983875" lon="1.95468"><ele>316.2</ele><time>2026-04-18T11:57:34.708Z</time></trkpt><trkpt lat="41.7984744" lon="1.954779"><ele>316.0</ele><time>2026-04-18T11:57:35.707Z</time></trkpt><trkpt lat="41.798567" lon="1.9548772"><ele>316.0</ele><time>2026-04-18T11:57:36.707Z</time></trkpt><trkpt lat="41.7986611" lon="1.9549833"><ele>316.0</ele><time>2026-04-18T11:57:37.707Z</time></trkpt><trkpt lat="41.7987656" lon="1.9550921"><ele>316.0</ele><time>2026-04-18T11:57:38.707Z</time></trkpt><trkpt lat="41.7988715" lon="1.9552029"><ele>316.0</ele><time>2026-04-18T11:57:39.707Z</time></trkpt><trkpt lat="41.7989845" lon="1.955313"><ele>316.5</ele><time>2026-04-18T11:57:40.708Z</time></trkpt><trkpt lat="41.7990966" lon="1.9554292"><ele>317.0</ele><time>2026-04-18T11:57:41.708Z</time></trkpt><trkpt lat="41.7992005" lon="1.9555456"><ele>317.5</ele><time>2026-04-18T11:57:42.707Z</time></trkpt><trkpt lat="41.7992918" lon="1.9556743"><ele>318.0</ele><time>2026-04-18T11:57:43.708Z</time></trkpt><trkpt lat="41.7993691" lon="1.9558122"><ele>315.6</ele><time>2026-04-18T11:57:44.708Z</time></trkpt><trkpt lat="41.7994301" lon="1.9559568"><ele>313.20000000000005</ele><time>2026-04-18T11:57:45.708Z</time></trkpt><trkpt lat="41.7994965" lon="1.9560787"><ele>310.8</ele><time>2026-04-18T11:57:46.707Z</time></trkpt><trkpt lat="41.7995737" lon="1.9561706"><ele>308.40000000000003</ele><time>2026-04-18T11:57:47.708Z</time></trkpt><trkpt lat="41.7996614" lon="1.9562201"><ele>306.0</ele><time>2026-04-18T11:57:48.708Z</time></trkpt><trkpt lat="41.7997562" lon="1.9562188"><ele>306.0</ele><time>2026-04-18T11:57:49.707Z</time></trkpt><trkpt lat="41.7998452" lon="1.9561635"><ele>306.0</ele><time>2026-04-18T11:57:50.708Z</time></trkpt><trkpt lat="41.799918" lon="1.9560668"><ele>306.0</ele><time>2026-04-18T11:57:51.707Z</time></trkpt><trkpt lat="41.7999624" lon="1.9559355"><ele>306.0</ele><time>2026-04-18T11:57:52.708Z</time></trkpt><trkpt lat="41.7999795" lon="1.9557833"><ele>306.0</ele><time>2026-04-18T11:57:53.707Z</time></trkpt><trkpt lat="41.7999894" lon="1.9556358"><ele>306.0</ele><time>2026-04-18T11:57:54.708Z</time></trkpt><trkpt lat="41.7999965" lon="1.9555394"><ele>306.0</ele><time>2026-04-18T11:57:55.708Z</time></trkpt><trkpt lat="41.8000067" lon="1.955438"><ele>306.0</ele><time>2026-04-18T11:57:57.708Z</time></trkpt><trkpt lat="41.8000134" lon="1.9553487"><ele>306.0</ele><time>2026-04-18T11:58:00.708Z</time></trkpt><trkpt lat="41.8000258" lon="1.9552446"><ele>306.0</ele><time>2026-04-18T11:58:02.707Z</time></trkpt><trkpt lat="41.8000462" lon="1.9550631"><ele>306.0</ele><time>2026-04-18T11:58:04.708Z</time></trkpt><trkpt lat="41.8000627" lon="1.9549401"><ele>306.0</ele><time>2026-04-18T11:58:05.708Z</time></trkpt><trkpt lat="41.8000789" lon="1.9547987"><ele>306.0</ele><time>2026-04-18T11:58:06.708Z</time></trkpt><trkpt lat="41.8000938" lon="1.9546527"><ele>306.0</ele><time>2026-04-18T11:58:07.707Z</time></trkpt><trkpt lat="41.8001087" lon="1.9545067"><ele>306.0</ele><time>2026-04-18T11:58:08.708Z</time></trkpt><trkpt lat="41.8001281" lon="1.9543627"><ele>306.0</ele><time>2026-04-18T11:58:09.707Z</time></trkpt><trkpt lat="41.8001582" lon="1.9542123"><ele>302.5</ele><time>2026-04-18T11:58:10.708Z</time></trkpt><trkpt lat="41.8002093" lon="1.9540645"><ele>299.0</ele><time>2026-04-18T11:58:11.707Z</time></trkpt><trkpt lat="41.8002909" lon="1.9539145"><ele>295.5</ele><time>2026-04-18T11:58:12.708Z</time></trkpt><trkpt lat="41.800399" lon="1.953765"><ele>292.0</ele><time>2026-04-18T11:58:13.708Z</time></trkpt><trkpt lat="41.8005226" lon="1.9536076"><ele>292.0</ele><time>2026-04-18T11:58:14.707Z</time></trkpt><trkpt lat="41.8006542" lon="1.9534379"><ele>292.0</ele><time>2026-04-18T11:58:15.708Z</time></trkpt><trkpt lat="41.8007927" lon="1.9532612"><ele>292.0</ele><time>2026-04-18T11:58:16.707Z</time></trkpt><trkpt lat="41.8009321" lon="1.9530819"><ele>293.66666666666663</ele><time>2026-04-18T11:58:17.708Z</time></trkpt><trkpt lat="41.8010662" lon="1.9529143"><ele>295.3333333333333</ele><time>2026-04-18T11:58:18.708Z</time></trkpt><trkpt lat="41.8011967" lon="1.9527519"><ele>297.0</ele><time>2026-04-18T11:58:19.707Z</time></trkpt><trkpt lat="41.8013267" lon="1.9525836"><ele>297.0</ele><time>2026-04-18T11:58:20.708Z</time></trkpt><trkpt lat="41.8014585" lon="1.9524094"><ele>297.0</ele><time>2026-04-18T11:58:21.708Z</time></trkpt><trkpt lat="41.801586" lon="1.9522315"><ele>297.0</ele><time>2026-04-18T11:58:22.708Z</time></trkpt><trkpt lat="41.8017117" lon="1.9520505"><ele>299.3333333333333</ele><time>2026-04-18T11:58:23.708Z</time></trkpt><trkpt lat="41.8018325" lon="1.9518681"><ele>301.66666666666663</ele><time>2026-04-18T11:58:24.708Z</time></trkpt><trkpt lat="41.8019516" lon="1.9516773"><ele>304.0</ele><time>2026-04-18T11:58:25.707Z</time></trkpt><trkpt lat="41.8020675" lon="1.9514789"><ele>304.0</ele><time>2026-04-18T11:58:26.708Z</time></trkpt><trkpt lat="41.8021806" lon="1.9512801"><ele>304.0</ele><time>2026-04-18T11:58:27.707Z</time></trkpt><trkpt lat="41.8022849" lon="1.951095"><ele>304.0</ele><time>2026-04-18T11:58:28.708Z</time></trkpt><trkpt lat="41.8023896" lon="1.9509334"><ele>304.3333333333333</ele><time>2026-04-18T11:58:29.708Z</time></trkpt><trkpt lat="41.8025067" lon="1.9508182"><ele>304.6666666666667</ele><time>2026-04-18T11:58:30.708Z</time></trkpt><trkpt lat="41.8026512" lon="1.9507423"><ele>305.0</ele><time>2026-04-18T11:58:31.708Z</time></trkpt><trkpt lat="41.8028255" lon="1.9506919"><ele>305.0</ele><time>2026-04-18T11:58:32.708Z</time></trkpt><trkpt lat="41.8030238" lon="1.9506443"><ele>305.0</ele><time>2026-04-18T11:58:33.708Z</time></trkpt><trkpt lat="41.8032349" lon="1.9505878"><ele>305.0</ele><time>2026-04-18T11:58:34.708Z</time></trkpt><trkpt lat="41.8034528" lon="1.9505331"><ele>305.0</ele><time>2026-04-18T11:58:35.707Z</time></trkpt><trkpt lat="41.803682" lon="1.9504725"><ele>305.0</ele><time>2026-04-18T11:58:36.707Z</time></trkpt><trkpt lat="41.8038985" lon="1.9504156"><ele>305.0</ele><time>2026-04-18T11:58:37.708Z</time></trkpt><trkpt lat="41.8040976" lon="1.9503635"><ele>305.0</ele><time>2026-04-18T11:58:38.708Z</time></trkpt><trkpt lat="41.8042703" lon="1.9503275"><ele>305.0</ele><time>2026-04-18T11:58:39.707Z</time></trkpt><trkpt lat="41.8044209" lon="1.9503472"><ele>303.0</ele><time>2026-04-18T11:58:40.708Z</time></trkpt><trkpt lat="41.8045586" lon="1.9504217"><ele>301.0</ele><time>2026-04-18T11:58:41.708Z</time></trkpt><trkpt lat="41.8047003" lon="1.9505526"><ele>299.0</ele><time>2026-04-18T11:58:42.708Z</time></trkpt><trkpt lat="41.8048623" lon="1.9507138"><ele>300.33333333333337</ele><time>2026-04-18T11:58:43.708Z</time></trkpt><trkpt lat="41.8050276" lon="1.9508785"><ele>301.6666666666667</ele><time>2026-04-18T11:58:44.708Z</time></trkpt><trkpt lat="41.8052074" lon="1.9510485"><ele>303.0</ele><time>2026-04-18T11:58:45.708Z</time></trkpt><trkpt lat="41.8053998" lon="1.9512271"><ele>299.0</ele><time>2026-04-18T11:58:46.708Z</time></trkpt><trkpt lat="41.8055986" lon="1.9514235"><ele>295.0</ele><time>2026-04-18T11:58:47.708Z</time></trkpt><trkpt lat="41.8058007" lon="1.9516393"><ele>295.5</ele><time>2026-04-18T11:58:48.708Z</time></trkpt><trkpt lat="41.8060113" lon="1.9518656"><ele>296.0</ele><time>2026-04-18T11:58:49.708Z</time></trkpt><trkpt lat="41.8062294" lon="1.9520909"><ele>296.0</ele><time>2026-04-18T11:58:50.708Z</time></trkpt><trkpt lat="41.8064376" lon="1.9522999"><ele>296.0</ele><time>2026-04-18T11:58:51.708Z</time></trkpt><trkpt lat="41.8066316" lon="1.9525011"><ele>297.5</ele><time>2026-04-18T11:58:52.707Z</time></trkpt><trkpt lat="41.806802" lon="1.9527064"><ele>299.0</ele><time>2026-04-18T11:58:53.708Z</time></trkpt><trkpt lat="41.806932" lon="1.9529615"><ele>293.0</ele><time>2026-04-18T11:58:54.707Z</time></trkpt><trkpt lat="41.8070552" lon="1.9532603"><ele>287.0</ele><time>2026-04-18T11:58:55.707Z</time></trkpt><trkpt lat="41.8071731" lon="1.9535788"><ele>287.0</ele><time>2026-04-18T11:58:56.708Z</time></trkpt><trkpt lat="41.8073021" lon="1.953912"><ele>287.0</ele><time>2026-04-18T11:58:57.708Z</time></trkpt><trkpt lat="41.8074378" lon="1.9542632"><ele>283.5</ele><time>2026-04-18T11:58:58.708Z</time></trkpt><trkpt lat="41.8075768" lon="1.9546283"><ele>280.0</ele><time>2026-04-18T11:58:59.708Z</time></trkpt><trkpt lat="41.8077146" lon="1.9549954"><ele>281.0</ele><time>2026-04-18T11:59:00.708Z</time></trkpt><trkpt lat="41.8078514" lon="1.9553649"><ele>282.0</ele><time>2026-04-18T11:59:01.708Z</time></trkpt><trkpt lat="41.8079915" lon="1.9557349"><ele>285.5</ele><time>2026-04-18T11:59:02.708Z</time></trkpt><trkpt lat="41.8081278" lon="1.9560892"><ele>289.0</ele><time>2026-04-18T11:59:03.708Z</time></trkpt><trkpt lat="41.8082524" lon="1.9564186"><ele>288.0</ele><time>2026-04-18T11:59:04.707Z</time></trkpt><trkpt lat="41.8083752" lon="1.9567279"><ele>287.0</ele><time>2026-04-18T11:59:05.707Z</time></trkpt><trkpt lat="41.8085131" lon="1.9570255"><ele>286.0</ele><time>2026-04-18T11:59:06.708Z</time></trkpt><trkpt lat="41.8086722" lon="1.9573085"><ele>285.0</ele><time>2026-04-18T11:59:07.707Z</time></trkpt><trkpt lat="41.8088342" lon="1.9575804"><ele>285.0</ele><time>2026-04-18T11:59:08.708Z</time></trkpt><trkpt lat="41.8090034" lon="1.9578525"><ele>285.0</ele><time>2026-04-18T11:59:09.708Z</time></trkpt><trkpt lat="41.8091881" lon="1.9581145"><ele>284.5</ele><time>2026-04-18T11:59:10.707Z</time></trkpt><trkpt lat="41.8093913" lon="1.9583583"><ele>284.0</ele><time>2026-04-18T11:59:11.708Z</time></trkpt><trkpt lat="41.809607" lon="1.9585974"><ele>284.0</ele><time>2026-04-18T11:59:12.707Z</time></trkpt><trkpt lat="41.8098273" lon="1.9588399"><ele>284.0</ele><time>2026-04-18T11:59:13.707Z</time></trkpt><trkpt lat="41.8100513" lon="1.9590867"><ele>284.5</ele><time>2026-04-18T11:59:14.708Z</time></trkpt><trkpt lat="41.8102744" lon="1.9593332"><ele>285.0</ele><time>2026-04-18T11:59:15.707Z</time></trkpt><trkpt lat="41.8104938" lon="1.9595715"><ele>285.0</ele><time>2026-04-18T11:59:16.708Z</time></trkpt><trkpt lat="41.8106997" lon="1.9598011"><ele>285.0</ele><time>2026-04-18T11:59:17.708Z</time></trkpt><trkpt lat="41.8108902" lon="1.960014"><ele>286.0</ele><time>2026-04-18T11:59:18.708Z</time></trkpt><trkpt lat="41.8110746" lon="1.9602038"><ele>287.0</ele><time>2026-04-18T11:59:19.708Z</time></trkpt><trkpt lat="41.8112565" lon="1.9603641"><ele>287.0</ele><time>2026-04-18T11:59:20.707Z</time></trkpt><trkpt lat="41.8114517" lon="1.960501"><ele>287.0</ele><time>2026-04-18T11:59:21.708Z</time></trkpt><trkpt lat="41.811659" lon="1.9606148"><ele>287.0</ele><time>2026-04-18T11:59:22.708Z</time></trkpt><trkpt lat="41.8118723" lon="1.9607068"><ele>286.5</ele><time>2026-04-18T11:59:23.708Z</time></trkpt><trkpt lat="41.8120928" lon="1.9607892"><ele>286.0</ele><time>2026-04-18T11:59:24.708Z</time></trkpt><trkpt lat="41.8123181" lon="1.9608685"><ele>286.0</ele><time>2026-04-18T11:59:25.708Z</time></trkpt><trkpt lat="41.812536" lon="1.9609525"><ele>286.0</ele><time>2026-04-18T11:59:26.708Z</time></trkpt><trkpt lat="41.8127282" lon="1.9610628"><ele>286.0</ele><time>2026-04-18T11:59:27.707Z</time></trkpt><trkpt lat="41.8128821" lon="1.9612075"><ele>286.0</ele><time>2026-04-18T11:59:28.708Z</time></trkpt><trkpt lat="41.8129941" lon="1.9613971"><ele>286.0</ele><time>2026-04-18T11:59:29.708Z</time></trkpt><trkpt lat="41.8130653" lon="1.9616348"><ele>286.0</ele><time>2026-04-18T11:59:30.708Z</time></trkpt><trkpt lat="41.8130983" lon="1.9619042"><ele>286.0</ele><time>2026-04-18T11:59:31.707Z</time></trkpt><trkpt lat="41.8131292" lon="1.9621771"><ele>286.0</ele><time>2026-04-18T11:59:32.708Z</time></trkpt><trkpt lat="41.8132023" lon="1.9624184"><ele>286.0</ele><time>2026-04-18T11:59:33.708Z</time></trkpt><trkpt lat="41.8133131" lon="1.9626365"><ele>286.0</ele><time>2026-04-18T11:59:34.708Z</time></trkpt><trkpt lat="41.8134679" lon="1.9628399"><ele>286.0</ele><time>2026-04-18T11:59:35.708Z</time></trkpt><trkpt lat="41.8136438" lon="1.9630453"><ele>286.0</ele><time>2026-04-18T11:59:36.708Z</time></trkpt><trkpt lat="41.813825" lon="1.9632567"><ele>286.0</ele><time>2026-04-18T11:59:37.707Z</time></trkpt><trkpt lat="41.8140106" lon="1.9634413"><ele>286.5</ele><time>2026-04-18T11:59:38.707Z</time></trkpt><trkpt lat="41.8142093" lon="1.9635714"><ele>287.0</ele><time>2026-04-18T11:59:39.708Z</time></trkpt><trkpt lat="41.8144318" lon="1.9636553"><ele>287.0</ele><time>2026-04-18T11:59:40.707Z</time></trkpt><trkpt lat="41.8146799" lon="1.9637295"><ele>287.0</ele><time>2026-04-18T11:59:41.708Z</time></trkpt><trkpt lat="41.8149375" lon="1.9638142"><ele>286.5</ele><time>2026-04-18T11:59:42.707Z</time></trkpt><trkpt lat="41.8152107" lon="1.9639028"><ele>286.0</ele><time>2026-04-18T11:59:43.708Z</time></trkpt><trkpt lat="41.815495" lon="1.9639963"><ele>286.0</ele><time>2026-04-18T11:59:44.707Z</time></trkpt><trkpt lat="41.8157908" lon="1.9640915"><ele>286.0</ele><time>2026-04-18T11:59:45.708Z</time></trkpt><trkpt lat="41.8160928" lon="1.9641841"><ele>286.5</ele><time>2026-04-18T11:59:46.707Z</time></trkpt><trkpt lat="41.8163981" lon="1.9642803"><ele>287.0</ele><time>2026-04-18T11:59:47.708Z</time></trkpt><trkpt lat="41.8167054" lon="1.9643772"><ele>287.5</ele><time>2026-04-18T11:59:48.708Z</time></trkpt><trkpt lat="41.8170086" lon="1.9644709"><ele>288.0</ele><time>2026-04-18T11:59:49.707Z</time></trkpt><trkpt lat="41.817311" lon="1.9645658"><ele>288.0</ele><time>2026-04-18T11:59:50.708Z</time></trkpt><trkpt lat="41.8176144" lon="1.964661"><ele>288.0</ele><time>2026-04-18T11:59:51.708Z</time></trkpt><trkpt lat="41.8179186" lon="1.9647581"><ele>287.0</ele><time>2026-04-18T11:59:52.708Z</time></trkpt><trkpt lat="41.8182276" lon="1.9648525"><ele>286.0</ele><time>2026-04-18T11:59:53.708Z</time></trkpt><trkpt lat="41.8185383" lon="1.9649521"><ele>287.5</ele><time>2026-04-18T11:59:54.708Z</time></trkpt><trkpt lat="41.8188534" lon="1.9650536"><ele>289.0</ele><time>2026-04-18T11:59:55.708Z</time></trkpt><trkpt lat="41.819166" lon="1.9651559"><ele>289.5</ele><time>2026-04-18T11:59:56.707Z</time></trkpt><trkpt lat="41.819464" lon="1.9652526"><ele>290.0</ele><time>2026-04-18T11:59:57.708Z</time></trkpt><trkpt lat="41.8197417" lon="1.9653368"><ele>290.0</ele><time>2026-04-18T11:59:58.708Z</time></trkpt><trkpt lat="41.8199996" lon="1.9654143"><ele>290.0</ele><time>2026-04-18T11:59:59.708Z</time></trkpt><trkpt lat="41.8202311" lon="1.9654806"><ele>291.6666666666667</ele><time>2026-04-18T12:00:00.708Z</time></trkpt><trkpt lat="41.8204389" lon="1.965543"><ele>293.3333333333333</ele><time>2026-04-18T12:00:01.708Z</time></trkpt><trkpt lat="41.8206222" lon="1.9655989"><ele>295.0</ele><time>2026-04-18T12:00:02.708Z</time></trkpt><trkpt lat="41.8207879" lon="1.9656495"><ele>295.0</ele><time>2026-04-18T12:00:03.708Z</time></trkpt><trkpt lat="41.8209407" lon="1.9656961"><ele>295.0</ele><time>2026-04-18T12:00:04.708Z</time></trkpt><trkpt lat="41.8210783" lon="1.9657368"><ele>295.0</ele><time>2026-04-18T12:00:05.708Z</time></trkpt><trkpt lat="41.8212002" lon="1.9657728"><ele>295.0</ele><time>2026-04-18T12:00:06.708Z</time></trkpt><trkpt lat="41.8213151" lon="1.9658035"><ele>295.5</ele><time>2026-04-18T12:00:07.707Z</time></trkpt><trkpt lat="41.8214365" lon="1.9658307"><ele>296.0</ele><time>2026-04-18T12:00:08.708Z</time></trkpt><trkpt lat="41.8215706" lon="1.9658472"><ele>296.5</ele><time>2026-04-18T12:00:09.707Z</time></trkpt><trkpt lat="41.8217152" lon="1.965859"><ele>297.0</ele><time>2026-04-18T12:00:10.707Z</time></trkpt><trkpt lat="41.8218719" lon="1.9658711"><ele>300.6666666666667</ele><time>2026-04-18T12:00:11.708Z</time></trkpt><trkpt lat="41.8220383" lon="1.9658893"><ele>304.33333333333337</ele><time>2026-04-18T12:00:12.708Z</time></trkpt><trkpt lat="41.8222181" lon="1.965908"><ele>308.0</ele><time>2026-04-18T12:00:13.708Z</time></trkpt><trkpt lat="41.8224072" lon="1.9659305"><ele>308.0</ele><time>2026-04-18T12:00:14.708Z</time></trkpt><trkpt lat="41.8226039" lon="1.9659565"><ele>308.0</ele><time>2026-04-18T12:00:15.708Z</time></trkpt><trkpt lat="41.8227927" lon="1.9659777"><ele>308.0</ele><time>2026-04-18T12:00:16.708Z</time></trkpt><trkpt lat="41.8229605" lon="1.9659919"><ele>307.75</ele><time>2026-04-18T12:00:17.708Z</time></trkpt><trkpt lat="41.8231076" lon="1.965978"><ele>307.5</ele><time>2026-04-18T12:00:18.708Z</time></trkpt><trkpt lat="41.8232219" lon="1.965901"><ele>307.25</ele><time>2026-04-18T12:00:19.708Z</time></trkpt><trkpt lat="41.8233156" lon="1.9657798"><ele>307.0</ele><time>2026-04-18T12:00:20.708Z</time></trkpt><trkpt lat="41.8233981" lon="1.9656201"><ele>306.5</ele><time>2026-04-18T12:00:21.708Z</time></trkpt><trkpt lat="41.8234989" lon="1.9654854"><ele>306.0</ele><time>2026-04-18T12:00:22.707Z</time></trkpt><trkpt lat="41.8236241" lon="1.9653892"><ele>305.5</ele><time>2026-04-18T12:00:23.707Z</time></trkpt><trkpt lat="41.8237749" lon="1.9653377"><ele>305.0</ele><time>2026-04-18T12:00:24.708Z</time></trkpt><trkpt lat="41.823949" lon="1.9653243"><ele>305.0</ele><time>2026-04-18T12:00:25.708Z</time></trkpt><trkpt lat="41.8241421" lon="1.9653271"><ele>305.0</ele><time>2026-04-18T12:00:26.708Z</time></trkpt><trkpt lat="41.8243516" lon="1.9653508"><ele>305.0</ele><time>2026-04-18T12:00:27.708Z</time></trkpt><trkpt lat="41.8245692" lon="1.9654083"><ele>306.0</ele><time>2026-04-18T12:00:28.708Z</time></trkpt><trkpt lat="41.8247943" lon="1.9654901"><ele>307.0</ele><time>2026-04-18T12:00:29.708Z</time></trkpt><trkpt lat="41.825029" lon="1.9655789"><ele>308.5</ele><time>2026-04-18T12:00:30.708Z</time></trkpt><trkpt lat="41.8252705" lon="1.9656475"><ele>310.0</ele><time>2026-04-18T12:00:31.708Z</time></trkpt><trkpt lat="41.8254975" lon="1.9656847"><ele>310.0</ele><time>2026-04-18T12:00:32.708Z</time></trkpt><trkpt lat="41.8257104" lon="1.9657186"><ele>310.0</ele><time>2026-04-18T12:00:33.708Z</time></trkpt><trkpt lat="41.8259075" lon="1.9657817"><ele>310.0</ele><time>2026-04-18T12:00:34.708Z</time></trkpt><trkpt lat="41.8260852" lon="1.9658894"><ele>311.3333333333333</ele><time>2026-04-18T12:00:35.708Z</time></trkpt><trkpt lat="41.8262375" lon="1.9660528"><ele>312.6666666666667</ele><time>2026-04-18T12:00:36.707Z</time></trkpt><trkpt lat="41.8263794" lon="1.9662473"><ele>314.0</ele><time>2026-04-18T12:00:37.707Z</time></trkpt><trkpt lat="41.8265275" lon="1.9664538"><ele>314.0</ele><time>2026-04-18T12:00:38.708Z</time></trkpt><trkpt lat="41.8266845" lon="1.9666255"><ele>314.0</ele><time>2026-04-18T12:00:39.708Z</time></trkpt><trkpt lat="41.82686" lon="1.9667636"><ele>314.0</ele><time>2026-04-18T12:00:40.707Z</time></trkpt><trkpt lat="41.8270518" lon="1.9668762"><ele>317.33333333333337</ele><time>2026-04-18T12:00:41.708Z</time></trkpt><trkpt lat="41.8272588" lon="1.9669509"><ele>320.6666666666667</ele><time>2026-04-18T12:00:42.708Z</time></trkpt><trkpt lat="41.8274865" lon="1.9669988"><ele>324.0</ele><time>2026-04-18T12:00:43.707Z</time></trkpt><trkpt lat="41.8277307" lon="1.9670416"><ele>326.0</ele><time>2026-04-18T12:00:44.707Z</time></trkpt><trkpt lat="41.8279871" lon="1.9670927"><ele>328.0</ele><time>2026-04-18T12:00:45.708Z</time></trkpt><trkpt lat="41.8282535" lon="1.9671417"><ele>329.0</ele><time>2026-04-18T12:00:46.708Z</time></trkpt><trkpt lat="41.8285208" lon="1.9671899"><ele>330.0</ele><time>2026-04-18T12:00:47.707Z</time></trkpt><trkpt lat="41.8287766" lon="1.9672349"><ele>330.0</ele><time>2026-04-18T12:00:48.708Z</time></trkpt><trkpt lat="41.8290159" lon="1.9672796"><ele>330.0</ele><time>2026-04-18T12:00:49.708Z</time></trkpt><trkpt lat="41.8292534" lon="1.9673298"><ele>328.0</ele><time>2026-04-18T12:00:50.707Z</time></trkpt><trkpt lat="41.8294912" lon="1.967384"><ele>326.0</ele><time>2026-04-18T12:00:51.708Z</time></trkpt><trkpt lat="41.8297305" lon="1.9674456"><ele>326.0</ele><time>2026-04-18T12:00:52.708Z</time></trkpt><trkpt lat="41.8299744" lon="1.9675145"><ele>326.0</ele><time>2026-04-18T12:00:53.707Z</time></trkpt><trkpt lat="41.8302235" lon="1.9675899"><ele>326.5</ele><time>2026-04-18T12:00:54.708Z</time></trkpt><trkpt lat="41.8304718" lon="1.9676686"><ele>327.0</ele><time>2026-04-18T12:00:55.708Z</time></trkpt><trkpt lat="41.8307135" lon="1.9677493"><ele>327.0</ele><time>2026-04-18T12:00:56.708Z</time></trkpt><trkpt lat="41.8309509" lon="1.9678337"><ele>327.0</ele><time>2026-04-18T12:00:57.708Z</time></trkpt><trkpt lat="41.8311896" lon="1.9679213"><ele>325.5</ele><time>2026-04-18T12:00:58.708Z</time></trkpt><trkpt lat="41.8314317" lon="1.9680101"><ele>324.0</ele><time>2026-04-18T12:00:59.707Z</time></trkpt><trkpt lat="41.8316816" lon="1.9680946"><ele>322.0</ele><time>2026-04-18T12:01:00.708Z</time></trkpt><trkpt lat="41.8319323" lon="1.9681706"><ele>320.0</ele><time>2026-04-18T12:01:01.708Z</time></trkpt><trkpt lat="41.8321646" lon="1.9682305"><ele>320.0</ele><time>2026-04-18T12:01:02.708Z</time></trkpt><trkpt lat="41.8323766" lon="1.9682794"><ele>320.0</ele><time>2026-04-18T12:01:03.708Z</time></trkpt><trkpt lat="41.832568" lon="1.9683243"><ele>320.0</ele><time>2026-04-18T12:01:04.708Z</time></trkpt><trkpt lat="41.8327508" lon="1.9683637"><ele>316.6666666666667</ele><time>2026-04-18T12:01:05.707Z</time></trkpt><trkpt lat="41.8329236" lon="1.9683986"><ele>313.3333333333333</ele><time>2026-04-18T12:01:06.708Z</time></trkpt><trkpt lat="41.8331021" lon="1.968432"><ele>310.0</ele><time>2026-04-18T12:01:07.708Z</time></trkpt><trkpt lat="41.8332896" lon="1.9684642"><ele>310.0</ele><time>2026-04-18T12:01:08.708Z</time></trkpt><trkpt lat="41.8334712" lon="1.9684995"><ele>310.0</ele><time>2026-04-18T12:01:09.708Z</time></trkpt><trkpt lat="41.8336453" lon="1.9685375"><ele>310.0</ele><time>2026-04-18T12:01:10.708Z</time></trkpt><trkpt lat="41.8338183" lon="1.9685771"><ele>310.0</ele><time>2026-04-18T12:01:11.707Z</time></trkpt><trkpt lat="41.8339906" lon="1.9686158"><ele>310.0</ele><time>2026-04-18T12:01:12.708Z</time></trkpt><trkpt lat="41.8341669" lon="1.9686533"><ele>310.0</ele><time>2026-04-18T12:01:13.708Z</time></trkpt><trkpt lat="41.8343508" lon="1.9686915"><ele>310.3333333333333</ele><time>2026-04-18T12:01:14.707Z</time></trkpt><trkpt lat="41.8345457" lon="1.9687329"><ele>310.6666666666667</ele><time>2026-04-18T12:01:15.707Z</time></trkpt><trkpt lat="41.8347468" lon="1.9687802"><ele>311.0</ele><time>2026-04-18T12:01:16.708Z</time></trkpt><trkpt lat="41.8349571" lon="1.9688285"><ele>309.6666666666667</ele><time>2026-04-18T12:01:17.707Z</time></trkpt><trkpt lat="41.8351743" lon="1.9688781"><ele>308.3333333333333</ele><time>2026-04-18T12:01:18.708Z</time></trkpt><trkpt lat="41.8353998" lon="1.9689252"><ele>307.0</ele><time>2026-04-18T12:01:19.708Z</time></trkpt><trkpt lat="41.8356302" lon="1.968976"><ele>307.0</ele><time>2026-04-18T12:01:20.708Z</time></trkpt><trkpt lat="41.8358627" lon="1.9690249"><ele>307.0</ele><time>2026-04-18T12:01:21.708Z</time></trkpt><trkpt lat="41.8360976" lon="1.9690752"><ele>306.0</ele><time>2026-04-18T12:01:22.708Z</time></trkpt><trkpt lat="41.8363361" lon="1.9691246"><ele>305.0</ele><time>2026-04-18T12:01:23.708Z</time></trkpt><trkpt lat="41.8365777" lon="1.9691751"><ele>307.5</ele><time>2026-04-18T12:01:24.707Z</time></trkpt><trkpt lat="41.8368173" lon="1.9692264"><ele>310.0</ele><time>2026-04-18T12:01:25.707Z</time></trkpt><trkpt lat="41.837057" lon="1.9692755"><ele>310.0</ele><time>2026-04-18T12:01:26.708Z</time></trkpt><trkpt lat="41.8372894" lon="1.9693247"><ele>310.0</ele><time>2026-04-18T12:01:27.708Z</time></trkpt><trkpt lat="41.8375196" lon="1.9693746"><ele>309.3333333333333</ele><time>2026-04-18T12:01:28.707Z</time></trkpt><trkpt lat="41.8377472" lon="1.9694253"><ele>308.6666666666667</ele><time>2026-04-18T12:01:29.707Z</time></trkpt><trkpt lat="41.8379618" lon="1.9694707"><ele>308.0</ele><time>2026-04-18T12:01:30.708Z</time></trkpt><trkpt lat="41.8381695" lon="1.9695054"><ele>308.0</ele><time>2026-04-18T12:01:31.708Z</time></trkpt><trkpt lat="41.8383777" lon="1.9695187"><ele>308.0</ele><time>2026-04-18T12:01:32.708Z</time></trkpt><trkpt lat="41.8385818" lon="1.9695095"><ele>308.0</ele><time>2026-04-18T12:01:33.708Z</time></trkpt><trkpt lat="41.8387873" lon="1.9694769"><ele>308.33333333333337</ele><time>2026-04-18T12:01:34.707Z</time></trkpt><trkpt lat="41.8389887" lon="1.9694281"><ele>308.6666666666667</ele><time>2026-04-18T12:01:35.708Z</time></trkpt><trkpt lat="41.8391792" lon="1.9693742"><ele>309.0</ele><time>2026-04-18T12:01:36.707Z</time></trkpt><trkpt lat="41.8393704" lon="1.9693267"><ele>307.6666666666667</ele><time>2026-04-18T12:01:37.708Z</time></trkpt><trkpt lat="41.8395632" lon="1.9692783"><ele>306.33333333333337</ele><time>2026-04-18T12:01:38.708Z</time></trkpt><trkpt lat="41.8397612" lon="1.9692339"><ele>305.0</ele><time>2026-04-18T12:01:39.708Z</time></trkpt><trkpt lat="41.8399665" lon="1.9692085"><ele>306.0</ele><time>2026-04-18T12:01:40.708Z</time></trkpt><trkpt lat="41.840174" lon="1.9692177"><ele>307.0</ele><time>2026-04-18T12:01:41.708Z</time></trkpt><trkpt lat="41.8403755" lon="1.9692507"><ele>308.0</ele><time>2026-04-18T12:01:42.708Z</time></trkpt><trkpt lat="41.8405653" lon="1.9692986"><ele>308.0</ele><time>2026-04-18T12:01:43.708Z</time></trkpt><trkpt lat="41.8407464" lon="1.969364"><ele>308.0</ele><time>2026-04-18T12:01:44.707Z</time></trkpt><trkpt lat="41.8409258" lon="1.969441"><ele>308.0</ele><time>2026-04-18T12:01:45.708Z</time></trkpt><trkpt lat="41.8411045" lon="1.9695219"><ele>308.6666666666667</ele><time>2026-04-18T12:01:46.708Z</time></trkpt><trkpt lat="41.8412862" lon="1.9696034"><ele>309.3333333333333</ele><time>2026-04-18T12:01:47.708Z</time></trkpt><trkpt lat="41.8414746" lon="1.9696827"><ele>310.0</ele><time>2026-04-18T12:01:48.707Z</time></trkpt><trkpt lat="41.8416698" lon="1.9697564"><ele>310.66666666666663</ele><time>2026-04-18T12:01:49.708Z</time></trkpt><trkpt lat="41.8418679" lon="1.9698079"><ele>311.3333333333333</ele><time>2026-04-18T12:01:50.708Z</time></trkpt><trkpt lat="41.8420715" lon="1.9698421"><ele>312.0</ele><time>2026-04-18T12:01:51.708Z</time></trkpt><trkpt lat="41.8422707" lon="1.9698578"><ele>312.0</ele><time>2026-04-18T12:01:52.707Z</time></trkpt><trkpt lat="41.842471" lon="1.9698579"><ele>312.0</ele><time>2026-04-18T12:01:53.708Z</time></trkpt><trkpt lat="41.8426736" lon="1.9698361"><ele>312.0</ele><time>2026-04-18T12:01:54.707Z</time></trkpt><trkpt lat="41.8428747" lon="1.9697921"><ele>313.0</ele><time>2026-04-18T12:01:55.708Z</time></trkpt><trkpt lat="41.8430768" lon="1.9697304"><ele>314.0</ele><time>2026-04-18T12:01:56.708Z</time></trkpt><trkpt lat="41.8432765" lon="1.9696483"><ele>315.0</ele><time>2026-04-18T12:01:57.708Z</time></trkpt><trkpt lat="41.843478" lon="1.9695625"><ele>315.0</ele><time>2026-04-18T12:01:58.708Z</time></trkpt><trkpt lat="41.8436782" lon="1.9694798"><ele>315.0</ele><time>2026-04-18T12:01:59.708Z</time></trkpt><trkpt lat="41.8438812" lon="1.9694004"><ele>315.0</ele><time>2026-04-18T12:02:00.707Z</time></trkpt><trkpt lat="41.8440836" lon="1.9693156"><ele>315.0</ele><time>2026-04-18T12:02:01.708Z</time></trkpt><trkpt lat="41.844283" lon="1.9692304"><ele>315.0</ele><time>2026-04-18T12:02:02.708Z</time></trkpt><trkpt lat="41.8444747" lon="1.9691423"><ele>315.0</ele><time>2026-04-18T12:02:03.708Z</time></trkpt><trkpt lat="41.8446657" lon="1.9690602"><ele>314.6666666666667</ele><time>2026-04-18T12:02:04.708Z</time></trkpt><trkpt lat="41.8448584" lon="1.9689793"><ele>314.33333333333337</ele><time>2026-04-18T12:02:05.708Z</time></trkpt><trkpt lat="41.845051" lon="1.9688991"><ele>314.0</ele><time>2026-04-18T12:02:06.708Z</time></trkpt><trkpt lat="41.8452447" lon="1.968817"><ele>313.33333333333337</ele><time>2026-04-18T12:02:07.708Z</time></trkpt><trkpt lat="41.8454435" lon="1.9687344"><ele>312.6666666666667</ele><time>2026-04-18T12:02:08.708Z</time></trkpt><trkpt lat="41.8456444" lon="1.9686508"><ele>312.0</ele><time>2026-04-18T12:02:09.708Z</time></trkpt><trkpt lat="41.8458461" lon="1.9685672"><ele>311.6666666666667</ele><time>2026-04-18T12:02:10.708Z</time></trkpt><trkpt lat="41.8460448" lon="1.968484"><ele>311.33333333333337</ele><time>2026-04-18T12:02:11.708Z</time></trkpt><trkpt lat="41.8462406" lon="1.9684053"><ele>311.0</ele><time>2026-04-18T12:02:12.708Z</time></trkpt><trkpt lat="41.8464324" lon="1.9683279"><ele>311.0</ele><time>2026-04-18T12:02:13.708Z</time></trkpt><trkpt lat="41.8466155" lon="1.9682558"><ele>311.0</ele><time>2026-04-18T12:02:14.708Z</time></trkpt><trkpt lat="41.8467821" lon="1.9681885"><ele>311.0</ele><time>2026-04-18T12:02:15.707Z</time></trkpt><trkpt lat="41.8469304" lon="1.9681125"><ele>311.0</ele><time>2026-04-18T12:02:16.708Z</time></trkpt><trkpt lat="41.8470499" lon="1.967998"><ele>311.0</ele><time>2026-04-18T12:02:17.707Z</time></trkpt><trkpt lat="41.8471424" lon="1.9678605"><ele>311.0</ele><time>2026-04-18T12:02:18.708Z</time></trkpt><trkpt lat="41.8472139" lon="1.9677074"><ele>311.0</ele><time>2026-04-18T12:02:19.707Z</time></trkpt><trkpt lat="41.8472822" lon="1.9675572"><ele>312.25</ele><time>2026-04-18T12:02:20.708Z</time></trkpt><trkpt lat="41.8473599" lon="1.9674263"><ele>313.5</ele><time>2026-04-18T12:02:21.708Z</time></trkpt><trkpt lat="41.8474531" lon="1.9673079"><ele>314.75</ele><time>2026-04-18T12:02:22.708Z</time></trkpt><trkpt lat="41.8475546" lon="1.9671947"><ele>316.0</ele><time>2026-04-18T12:02:23.708Z</time></trkpt><trkpt lat="41.8476596" lon="1.9670807"><ele>316.0</ele><time>2026-04-18T12:02:24.708Z</time></trkpt><trkpt lat="41.8477676" lon="1.966964"><ele>316.0</ele><time>2026-04-18T12:02:25.708Z</time></trkpt><trkpt lat="41.8478751" lon="1.9668491"><ele>316.0</ele><time>2026-04-18T12:02:26.708Z</time></trkpt><trkpt lat="41.847984" lon="1.9667345"><ele>316.0</ele><time>2026-04-18T12:02:27.708Z</time></trkpt><trkpt lat="41.8480965" lon="1.9666216"><ele>320.0</ele><time>2026-04-18T12:02:28.708Z</time></trkpt><trkpt lat="41.8482125" lon="1.9665115"><ele>324.0</ele><time>2026-04-18T12:02:29.708Z</time></trkpt><trkpt lat="41.8483333" lon="1.9664067"><ele>328.0</ele><time>2026-04-18T12:02:30.708Z</time></trkpt><trkpt lat="41.8484629" lon="1.9663117"><ele>332.0</ele><time>2026-04-18T12:02:31.708Z</time></trkpt><trkpt lat="41.8486014" lon="1.9662313"><ele>332.0</ele><time>2026-04-18T12:02:32.707Z</time></trkpt><trkpt lat="41.8487506" lon="1.9661718"><ele>332.0</ele><time>2026-04-18T12:02:33.708Z</time></trkpt><trkpt lat="41.8489094" lon="1.9661394"><ele>332.0</ele><time>2026-04-18T12:02:34.708Z</time></trkpt><trkpt lat="41.8490738" lon="1.9661345"><ele>332.0</ele><time>2026-04-18T12:02:35.708Z</time></trkpt><trkpt lat="41.8492413" lon="1.966148"><ele>332.0</ele><time>2026-04-18T12:02:36.708Z</time></trkpt><trkpt lat="41.8494118" lon="1.9661719"><ele>332.0</ele><time>2026-04-18T12:02:37.708Z</time></trkpt><trkpt lat="41.8495841" lon="1.9661996"><ele>333.6666666666667</ele><time>2026-04-18T12:02:38.708Z</time></trkpt><trkpt lat="41.8497551" lon="1.966228"><ele>335.3333333333333</ele><time>2026-04-18T12:02:39.708Z</time></trkpt><trkpt lat="41.8499195" lon="1.9662561"><ele>337.0</ele><time>2026-04-18T12:02:40.708Z</time></trkpt><trkpt lat="41.8500762" lon="1.9662847"><ele>338.66666666666663</ele><time>2026-04-18T12:02:41.708Z</time></trkpt><trkpt lat="41.8502333" lon="1.9663144"><ele>340.3333333333333</ele><time>2026-04-18T12:02:42.708Z</time></trkpt><trkpt lat="41.8503851" lon="1.9663421"><ele>342.0</ele><time>2026-04-18T12:02:43.708Z</time></trkpt><trkpt lat="41.8505387" lon="1.9663674"><ele>342.0</ele><time>2026-04-18T12:02:44.707Z</time></trkpt><trkpt lat="41.850694" lon="1.9663922"><ele>342.0</ele><time>2026-04-18T12:02:45.708Z</time></trkpt><trkpt lat="41.8508494" lon="1.9664154"><ele>342.0</ele><time>2026-04-18T12:02:46.708Z</time></trkpt><trkpt lat="41.851001" lon="1.9664389"><ele>342.0</ele><time>2026-04-18T12:02:47.708Z</time></trkpt><trkpt lat="41.8511469" lon="1.9664649"><ele>342.0</ele><time>2026-04-18T12:02:48.708Z</time></trkpt><trkpt lat="41.8512931" lon="1.9664944"><ele>342.0</ele><time>2026-04-18T12:02:49.708Z</time></trkpt><trkpt lat="41.8514428" lon="1.9665239"><ele>342.0</ele><time>2026-04-18T12:02:50.708Z</time></trkpt><trkpt lat="41.8515927" lon="1.9665554"><ele>342.0</ele><time>2026-04-18T12:02:51.708Z</time></trkpt><trkpt lat="41.8517431" lon="1.9665899"><ele>342.0</ele><time>2026-04-18T12:02:52.707Z</time></trkpt><trkpt lat="41.8518975" lon="1.9666269"><ele>342.0</ele><time>2026-04-18T12:02:53.708Z</time></trkpt><trkpt lat="41.8520545" lon="1.9666642"><ele>339.6666666666667</ele><time>2026-04-18T12:02:54.708Z</time></trkpt><trkpt lat="41.852218" lon="1.9667067"><ele>337.33333333333337</ele><time>2026-04-18T12:02:55.707Z</time></trkpt><trkpt lat="41.8523769" lon="1.9667556"><ele>335.0</ele><time>2026-04-18T12:02:56.708Z</time></trkpt><trkpt lat="41.8525356" lon="1.9668127"><ele>333.6666666666667</ele><time>2026-04-18T12:02:57.708Z</time></trkpt><trkpt lat="41.8526986" lon="1.9668785"><ele>332.3333333333333</ele><time>2026-04-18T12:02:58.707Z</time></trkpt><trkpt lat="41.8528565" lon="1.9669497"><ele>331.0</ele><time>2026-04-18T12:02:59.708Z</time></trkpt><trkpt lat="41.8530067" lon="1.9670243"><ele>331.0</ele><time>2026-04-18T12:03:00.707Z</time></trkpt><trkpt lat="41.8531528" lon="1.9671051"><ele>331.0</ele><time>2026-04-18T12:03:01.707Z</time></trkpt><trkpt lat="41.8533038" lon="1.9671924"><ele>331.0</ele><time>2026-04-18T12:03:02.708Z</time></trkpt><trkpt lat="41.8534539" lon="1.9672824"><ele>331.3333333333333</ele><time>2026-04-18T12:03:03.708Z</time></trkpt><trkpt lat="41.8536021" lon="1.9673778"><ele>331.6666666666667</ele><time>2026-04-18T12:03:04.708Z</time></trkpt><trkpt lat="41.8537518" lon="1.9674763"><ele>332.0</ele><time>2026-04-18T12:03:05.708Z</time></trkpt><trkpt lat="41.8538995" lon="1.9675778"><ele>332.0</ele><time>2026-04-18T12:03:06.708Z</time></trkpt><trkpt lat="41.8540449" lon="1.9676817"><ele>332.0</ele><time>2026-04-18T12:03:07.708Z</time></trkpt><trkpt lat="41.8541896" lon="1.9677894"><ele>332.0</ele><time>2026-04-18T12:03:08.708Z</time></trkpt><trkpt lat="41.8543317" lon="1.9678976"><ele>332.0</ele><time>2026-04-18T12:03:09.708Z</time></trkpt><trkpt lat="41.8544716" lon="1.968006"><ele>332.0</ele><time>2026-04-18T12:03:10.708Z</time></trkpt><trkpt lat="41.8546058" lon="1.9681085"><ele>332.0</ele><time>2026-04-18T12:03:11.708Z</time></trkpt><trkpt lat="41.8547318" lon="1.9682038"><ele>332.0</ele><time>2026-04-18T12:03:12.708Z</time></trkpt><trkpt lat="41.8548507" lon="1.9682962"><ele>332.0</ele><time>2026-04-18T12:03:13.708Z</time></trkpt><trkpt lat="41.8549702" lon="1.9683932"><ele>332.0</ele><time>2026-04-18T12:03:14.708Z</time></trkpt><trkpt lat="41.8550897" lon="1.9684967"><ele>332.0</ele><time>2026-04-18T12:03:15.708Z</time></trkpt><trkpt lat="41.855209" lon="1.9686171"><ele>332.6666666666667</ele><time>2026-04-18T12:03:16.707Z</time></trkpt><trkpt lat="41.8553263" lon="1.9687586"><ele>333.3333333333333</ele><time>2026-04-18T12:03:17.708Z</time></trkpt><trkpt lat="41.8554377" lon="1.9689105"><ele>334.0</ele><time>2026-04-18T12:03:18.708Z</time></trkpt><trkpt lat="41.8555373" lon="1.9690523"><ele>334.0</ele><time>2026-04-18T12:03:19.708Z</time></trkpt><trkpt lat="41.8556356" lon="1.9691856"><ele>334.0</ele><time>2026-04-18T12:03:20.708Z</time></trkpt><trkpt lat="41.8557396" lon="1.9693041"><ele>334.0</ele><time>2026-04-18T12:03:21.708Z</time></trkpt><trkpt lat="41.8558514" lon="1.9694014"><ele>334.0</ele><time>2026-04-18T12:03:22.708Z</time></trkpt><trkpt lat="41.8559707" lon="1.969475"><ele>334.0</ele><time>2026-04-18T12:03:23.708Z</time></trkpt><trkpt lat="41.8560948" lon="1.9695311"><ele>334.0</ele><time>2026-04-18T12:03:24.708Z</time></trkpt><trkpt lat="41.8562212" lon="1.9695778"><ele>334.0</ele><time>2026-04-18T12:03:25.708Z</time></trkpt><trkpt lat="41.8563482" lon="1.9696228"><ele>334.0</ele><time>2026-04-18T12:03:26.707Z</time></trkpt><trkpt lat="41.8564754" lon="1.9696684"><ele>334.0</ele><time>2026-04-18T12:03:27.708Z</time></trkpt><trkpt lat="41.856603" lon="1.9697175"><ele>334.0</ele><time>2026-04-18T12:03:28.708Z</time></trkpt><trkpt lat="41.8567316" lon="1.9697748"><ele>334.0</ele><time>2026-04-18T12:03:29.707Z</time></trkpt><trkpt lat="41.8568609" lon="1.9698439"><ele>334.0</ele><time>2026-04-18T12:03:30.707Z</time></trkpt><trkpt lat="41.8569898" lon="1.9699296"><ele>337.0</ele><time>2026-04-18T12:03:31.708Z</time></trkpt><trkpt lat="41.8571093" lon="1.970032"><ele>340.0</ele><time>2026-04-18T12:03:32.708Z</time></trkpt><trkpt lat="41.8572106" lon="1.9701336"><ele>343.0</ele><time>2026-04-18T12:03:33.708Z</time></trkpt><trkpt lat="41.8573" lon="1.970239"><ele>346.0</ele><time>2026-04-18T12:03:34.708Z</time></trkpt><trkpt lat="41.8573797" lon="1.9703407"><ele>346.0</ele><time>2026-04-18T12:03:35.708Z</time></trkpt><trkpt lat="41.8574479" lon="1.9704324"><ele>346.0</ele><time>2026-04-18T12:03:36.707Z</time></trkpt><trkpt lat="41.8575098" lon="1.9705149"><ele>346.0</ele><time>2026-04-18T12:03:37.707Z</time></trkpt><trkpt lat="41.8575587" lon="1.9705876"><ele>346.0</ele><time>2026-04-18T12:03:38.708Z</time></trkpt><trkpt lat="41.8576024" lon="1.9706612"><ele>346.0</ele><time>2026-04-18T12:03:39.708Z</time></trkpt><trkpt lat="41.85764" lon="1.9707432"><ele>346.0</ele><time>2026-04-18T12:03:40.707Z</time></trkpt><trkpt lat="41.8576646" lon="1.9708359"><ele>346.5</ele><time>2026-04-18T12:03:41.707Z</time></trkpt><trkpt lat="41.8576834" lon="1.9709235"><ele>347.0</ele><time>2026-04-18T12:03:42.707Z</time></trkpt><trkpt lat="41.8577552" lon="1.9710479"><ele>347.5</ele><time>2026-04-18T12:03:44.708Z</time></trkpt><trkpt lat="41.8578135" lon="1.9710838"><ele>348.0</ele><time>2026-04-18T12:03:45.707Z</time></trkpt><trkpt lat="41.8578776" lon="1.9711153"><ele>348.5</ele><time>2026-04-18T12:03:46.708Z</time></trkpt><trkpt lat="41.8579405" lon="1.9711559"><ele>349.0</ele><time>2026-04-18T12:03:47.707Z</time></trkpt><trkpt lat="41.8579922" lon="1.9712051"><ele>349.0</ele><time>2026-04-18T12:03:48.708Z</time></trkpt><trkpt lat="41.8580406" lon="1.9712685"><ele>349.0</ele><time>2026-04-18T12:03:49.708Z</time></trkpt><trkpt lat="41.8580883" lon="1.9713444"><ele>349.0</ele><time>2026-04-18T12:03:50.708Z</time></trkpt><trkpt lat="41.8581431" lon="1.9714334"><ele>349.0</ele><time>2026-04-18T12:03:51.708Z</time></trkpt><trkpt lat="41.858203" lon="1.9715293"><ele>349.0</ele><time>2026-04-18T12:03:52.707Z</time></trkpt><trkpt lat="41.8582633" lon="1.9716326"><ele>349.0</ele><time>2026-04-18T12:03:53.707Z</time></trkpt><trkpt lat="41.8583179" lon="1.9717446"><ele>348.0</ele><time>2026-04-18T12:03:54.708Z</time></trkpt><trkpt lat="41.8583635" lon="1.9718618"><ele>347.0</ele><time>2026-04-18T12:03:55.708Z</time></trkpt><trkpt lat="41.8583959" lon="1.9719737"><ele>346.0</ele><time>2026-04-18T12:03:56.708Z</time></trkpt><trkpt lat="41.8584228" lon="1.972077"><ele>345.0</ele><time>2026-04-18T12:03:57.708Z</time></trkpt><trkpt lat="41.8584516" lon="1.97218"><ele>344.0</ele><time>2026-04-18T12:03:58.708Z</time></trkpt><trkpt lat="41.8584868" lon="1.9722782"><ele>343.0</ele><time>2026-04-18T12:03:59.708Z</time></trkpt><trkpt lat="41.8585366" lon="1.9723695"><ele>345.0</ele><time>2026-04-18T12:04:00.708Z</time></trkpt><trkpt lat="41.858599" lon="1.9724478"><ele>347.0</ele><time>2026-04-18T12:04:01.707Z</time></trkpt><trkpt lat="41.8586701" lon="1.9725164"><ele>349.0</ele><time>2026-04-18T12:04:02.707Z</time></trkpt><trkpt lat="41.8587504" lon="1.9725736"><ele>351.0</ele><time>2026-04-18T12:04:03.707Z</time></trkpt><trkpt lat="41.8588367" lon="1.972627"><ele>353.0</ele><time>2026-04-18T12:04:04.707Z</time></trkpt><trkpt lat="41.8589256" lon="1.9726772"><ele>353.0</ele><time>2026-04-18T12:04:05.708Z</time></trkpt><trkpt lat="41.8590207" lon="1.9727172"><ele>353.0</ele><time>2026-04-18T12:04:06.708Z</time></trkpt><trkpt lat="41.859119" lon="1.9727406"><ele>353.0</ele><time>2026-04-18T12:04:07.708Z</time></trkpt><trkpt lat="41.8592204" lon="1.9727448"><ele>353.0</ele><time>2026-04-18T12:04:08.707Z</time></trkpt><trkpt lat="41.8593163" lon="1.9727327"><ele>353.0</ele><time>2026-04-18T12:04:09.707Z</time></trkpt><trkpt lat="41.8594075" lon="1.9727111"><ele>353.0</ele><time>2026-04-18T12:04:10.707Z</time></trkpt><trkpt lat="41.8594944" lon="1.9726862"><ele>353.0</ele><time>2026-04-18T12:04:11.708Z</time></trkpt><trkpt lat="41.8595778" lon="1.9726608"><ele>353.0</ele><time>2026-04-18T12:04:12.708Z</time></trkpt><trkpt lat="41.8596578" lon="1.9726381"><ele>353.0</ele><time>2026-04-18T12:04:13.707Z</time></trkpt><trkpt lat="41.8597376" lon="1.9726152"><ele>353.0</ele><time>2026-04-18T12:04:14.708Z</time></trkpt><trkpt lat="41.8598219" lon="1.9725927"><ele>353.0</ele><time>2026-04-18T12:04:15.708Z</time></trkpt><trkpt lat="41.8599092" lon="1.9725675"><ele>353.0</ele><time>2026-04-18T12:04:16.708Z</time></trkpt><trkpt lat="41.8599987" lon="1.9725421"><ele>353.0</ele><time>2026-04-18T12:04:17.707Z</time></trkpt><trkpt lat="41.8600883" lon="1.9725169"><ele>353.0</ele><time>2026-04-18T12:04:18.708Z</time></trkpt><trkpt lat="41.8601808" lon="1.9724917"><ele>353.0</ele><time>2026-04-18T12:04:19.708Z</time></trkpt><trkpt lat="41.8602711" lon="1.972467"><ele>353.0</ele><time>2026-04-18T12:04:20.708Z</time></trkpt><trkpt lat="41.8603536" lon="1.9724456"><ele>353.33333333333337</ele><time>2026-04-18T12:04:21.708Z</time></trkpt><trkpt lat="41.8604289" lon="1.9724258"><ele>353.6666666666667</ele><time>2026-04-18T12:04:22.708Z</time></trkpt><trkpt lat="41.8604969" lon="1.9724077"><ele>354.0</ele><time>2026-04-18T12:04:23.708Z</time></trkpt><trkpt lat="41.8605636" lon="1.9723877"><ele>354.3333333333333</ele><time>2026-04-18T12:04:24.708Z</time></trkpt><trkpt lat="41.8606401" lon="1.9723666"><ele>354.66666666666663</ele><time>2026-04-18T12:04:25.707Z</time></trkpt><trkpt lat="41.860722" lon="1.9723395"><ele>355.0</ele><time>2026-04-18T12:04:26.707Z</time></trkpt><trkpt lat="41.8608085" lon="1.9723097"><ele>355.0</ele><time>2026-04-18T12:04:27.708Z</time></trkpt><trkpt lat="41.8609023" lon="1.9722839"><ele>355.0</ele><time>2026-04-18T12:04:28.708Z</time></trkpt><trkpt lat="41.8609977" lon="1.9722579"><ele>355.0</ele><time>2026-04-18T12:04:29.708Z</time></trkpt><trkpt lat="41.8610994" lon="1.9722293"><ele>355.0</ele><time>2026-04-18T12:04:30.708Z</time></trkpt><trkpt lat="41.8612022" lon="1.9721982"><ele>355.0</ele><time>2026-04-18T12:04:31.708Z</time></trkpt><trkpt lat="41.8613061" lon="1.9721681"><ele>354.4</ele><time>2026-04-18T12:04:32.708Z</time></trkpt><trkpt lat="41.8614053" lon="1.9721354"><ele>353.8</ele><time>2026-04-18T12:04:33.708Z</time></trkpt><trkpt lat="41.8615012" lon="1.9721063"><ele>353.20000000000005</ele><time>2026-04-18T12:04:34.707Z</time></trkpt><trkpt lat="41.8615962" lon="1.9720789"><ele>352.6</ele><time>2026-04-18T12:04:35.708Z</time></trkpt><trkpt lat="41.8616926" lon="1.9720537"><ele>352.0</ele><time>2026-04-18T12:04:36.708Z</time></trkpt><trkpt lat="41.8617817" lon="1.9720284"><ele>351.8571428571429</ele><time>2026-04-18T12:04:37.708Z</time></trkpt><trkpt lat="41.8618612" lon="1.9720099"><ele>351.7142857142857</ele><time>2026-04-18T12:04:38.708Z</time></trkpt><trkpt lat="41.8619311" lon="1.9720247"><ele>351.57142857142856</ele><time>2026-04-18T12:04:39.708Z</time></trkpt><trkpt lat="41.8619838" lon="1.9720729"><ele>351.42857142857144</ele><time>2026-04-18T12:04:40.708Z</time></trkpt><trkpt lat="41.862002" lon="1.9721597"><ele>351.2857142857143</ele><time>2026-04-18T12:04:41.707Z</time></trkpt><trkpt lat="41.8619813" lon="1.972254"><ele>351.14285714285717</ele><time>2026-04-18T12:04:42.707Z</time></trkpt><trkpt lat="41.8619269" lon="1.9723552"><ele>351.0</ele><time>2026-04-18T12:04:43.708Z</time></trkpt><trkpt lat="41.8618414" lon="1.9724639"><ele>346.6666666666667</ele><time>2026-04-18T12:04:44.708Z</time></trkpt><trkpt lat="41.8617234" lon="1.9725723"><ele>342.33333333333337</ele><time>2026-04-18T12:04:45.708Z</time></trkpt><trkpt lat="41.8615795" lon="1.9726829"><ele>338.0</ele><time>2026-04-18T12:04:46.708Z</time></trkpt><trkpt lat="41.8614234" lon="1.9727973"><ele>338.0</ele><time>2026-04-18T12:04:47.707Z</time></trkpt><trkpt lat="41.8612673" lon="1.9729097"><ele>338.0</ele><time>2026-04-18T12:04:48.708Z</time></trkpt><trkpt lat="41.8611147" lon="1.9730251"><ele>338.0</ele><time>2026-04-18T12:04:49.708Z</time></trkpt><trkpt lat="41.8609681" lon="1.9731538"><ele>337.0</ele><time>2026-04-18T12:04:50.708Z</time></trkpt><trkpt lat="41.8608408" lon="1.9733319"><ele>336.0</ele><time>2026-04-18T12:04:51.708Z</time></trkpt><trkpt lat="41.8607274" lon="1.9735482"><ele>335.0</ele><time>2026-04-18T12:04:52.708Z</time></trkpt><trkpt lat="41.8606347" lon="1.9738013"><ele>335.0</ele><time>2026-04-18T12:04:53.708Z</time></trkpt><trkpt lat="41.8605448" lon="1.9740733"><ele>335.0</ele><time>2026-04-18T12:04:54.707Z</time></trkpt><trkpt lat="41.8604502" lon="1.9743547"><ele>331.5</ele><time>2026-04-18T12:04:55.708Z</time></trkpt><trkpt lat="41.8603487" lon="1.9746453"><ele>328.0</ele><time>2026-04-18T12:04:56.708Z</time></trkpt><trkpt lat="41.8602451" lon="1.9749496"><ele>328.0</ele><time>2026-04-18T12:04:57.707Z</time></trkpt><trkpt lat="41.8601381" lon="1.975256"><ele>328.0</ele><time>2026-04-18T12:04:58.708Z</time></trkpt><trkpt lat="41.860028" lon="1.975572"><ele>324.5</ele><time>2026-04-18T12:04:59.708Z</time></trkpt><trkpt lat="41.8599179" lon="1.9758941"><ele>321.0</ele><time>2026-04-18T12:05:00.708Z</time></trkpt><trkpt lat="41.85981" lon="1.9761988"><ele>321.0</ele><time>2026-04-18T12:05:01.708Z</time></trkpt><trkpt lat="41.859712" lon="1.9764947"><ele>321.0</ele><time>2026-04-18T12:05:02.708Z</time></trkpt><trkpt lat="41.8596361" lon="1.9767999"><ele>321.5</ele><time>2026-04-18T12:05:03.707Z</time></trkpt><trkpt lat="41.8595863" lon="1.9771242"><ele>322.0</ele><time>2026-04-18T12:05:04.707Z</time></trkpt><trkpt lat="41.8595469" lon="1.9774604"><ele>325.0</ele><time>2026-04-18T12:05:05.708Z</time></trkpt><trkpt lat="41.8595013" lon="1.9777985"><ele>328.0</ele><time>2026-04-18T12:05:06.708Z</time></trkpt><trkpt lat="41.8594512" lon="1.9781356"><ele>328.5</ele><time>2026-04-18T12:05:07.707Z</time></trkpt><trkpt lat="41.8594006" lon="1.9784696"><ele>329.0</ele><time>2026-04-18T12:05:08.707Z</time></trkpt><trkpt lat="41.8593446" lon="1.9787972"><ele>329.0</ele><time>2026-04-18T12:05:09.708Z</time></trkpt><trkpt lat="41.8592924" lon="1.9790961"><ele>329.0</ele><time>2026-04-18T12:05:10.708Z</time></trkpt><trkpt lat="41.8592227" lon="1.9793568"><ele>329.0</ele><time>2026-04-18T12:05:11.708Z</time></trkpt><trkpt lat="41.8591225" lon="1.9795606"><ele>330.6666666666667</ele><time>2026-04-18T12:05:12.707Z</time></trkpt><trkpt lat="41.8589962" lon="1.9796915"><ele>332.3333333333333</ele><time>2026-04-18T12:05:13.708Z</time></trkpt><trkpt lat="41.8588444" lon="1.9797582"><ele>334.0</ele><time>2026-04-18T12:05:14.708Z</time></trkpt><trkpt lat="41.8586832" lon="1.9797431"><ele>334.0</ele><time>2026-04-18T12:05:15.707Z</time></trkpt><trkpt lat="41.8585205" lon="1.9796563"><ele>334.0</ele><time>2026-04-18T12:05:16.708Z</time></trkpt><trkpt lat="41.8583515" lon="1.9795737"><ele>334.0</ele><time>2026-04-18T12:05:17.708Z</time></trkpt><trkpt lat="41.8581781" lon="1.979569"><ele>336.3333333333333</ele><time>2026-04-18T12:05:18.707Z</time></trkpt><trkpt lat="41.8579934" lon="1.9796116"><ele>338.6666666666667</ele><time>2026-04-18T12:05:19.708Z</time></trkpt><trkpt lat="41.8578336" lon="1.979655"><ele>341.0</ele><time>2026-04-18T12:05:20.708Z</time></trkpt><trkpt lat="41.8576898" lon="1.9796977"><ele>343.33333333333337</ele><time>2026-04-18T12:05:21.707Z</time></trkpt><trkpt lat="41.8575544" lon="1.9797313"><ele>345.6666666666667</ele><time>2026-04-18T12:05:22.707Z</time></trkpt><trkpt lat="41.8573989" lon="1.9797568"><ele>348.0</ele><time>2026-04-18T12:05:23.707Z</time></trkpt><trkpt lat="41.8572151" lon="1.9797461"><ele>348.0</ele><time>2026-04-18T12:05:24.707Z</time></trkpt><trkpt lat="41.8569995" lon="1.9796986"><ele>348.0</ele><time>2026-04-18T12:05:25.708Z</time></trkpt><trkpt lat="41.8567568" lon="1.979627"><ele>353.0</ele><time>2026-04-18T12:05:26.708Z</time></trkpt><trkpt lat="41.8565093" lon="1.9795406"><ele>358.0</ele><time>2026-04-18T12:05:27.707Z</time></trkpt><trkpt lat="41.856294" lon="1.9794298"><ele>358.0</ele><time>2026-04-18T12:05:28.708Z</time></trkpt><trkpt lat="41.8561123" lon="1.9793071"><ele>358.0</ele><time>2026-04-18T12:05:29.708Z</time></trkpt><trkpt lat="41.8559557" lon="1.9792241"><ele>358.0</ele><time>2026-04-18T12:05:30.707Z</time></trkpt><trkpt lat="41.8558131" lon="1.9791881"><ele>356.79999999999995</ele><time>2026-04-18T12:05:31.708Z</time></trkpt><trkpt lat="41.855691" lon="1.9791805"><ele>355.6</ele><time>2026-04-18T12:05:32.708Z</time></trkpt><trkpt lat="41.8555838" lon="1.9791748"><ele>354.4</ele><time>2026-04-18T12:05:33.708Z</time></trkpt><trkpt lat="41.8554779" lon="1.9791417"><ele>353.20000000000005</ele><time>2026-04-18T12:05:34.707Z</time></trkpt><trkpt lat="41.8553844" lon="1.9790624"><ele>352.0</ele><time>2026-04-18T12:05:35.707Z</time></trkpt><trkpt lat="41.8553143" lon="1.9789471"><ele>352.0</ele><time>2026-04-18T12:05:36.708Z</time></trkpt><trkpt lat="41.8552532" lon="1.9788271"><ele>352.0</ele><time>2026-04-18T12:05:37.708Z</time></trkpt><trkpt lat="41.8551801" lon="1.9787312"><ele>352.0</ele><time>2026-04-18T12:05:38.708Z</time></trkpt><trkpt lat="41.8550922" lon="1.9786531"><ele>352.0</ele><time>2026-04-18T12:05:39.707Z</time></trkpt><trkpt lat="41.8549543" lon="1.9785985"><ele>357.66666666666663</ele><time>2026-04-18T12:05:40.707Z</time></trkpt><trkpt lat="41.8547697" lon="1.978532"><ele>363.3333333333333</ele><time>2026-04-18T12:05:41.708Z</time></trkpt><trkpt lat="41.8545567" lon="1.9784596"><ele>369.0</ele><time>2026-04-18T12:05:42.707Z</time></trkpt><trkpt lat="41.8544005" lon="1.9784155"><ele>373.0</ele><time>2026-04-18T12:05:43.707Z</time></trkpt><trkpt lat="41.8542715" lon="1.9784064"><ele>377.0</ele><time>2026-04-18T12:05:44.708Z</time></trkpt><trkpt lat="41.8541815" lon="1.9784599"><ele>381.0</ele><time>2026-04-18T12:05:45.708Z</time></trkpt><trkpt lat="41.8541371" lon="1.9785626"><ele>385.0</ele><time>2026-04-18T12:05:46.707Z</time></trkpt><trkpt lat="41.8541533" lon="1.9786807"><ele>389.0</ele><time>2026-04-18T12:05:47.708Z</time></trkpt><trkpt lat="41.8542222" lon="1.9787768"><ele>390.3333333333333</ele><time>2026-04-18T12:05:48.708Z</time></trkpt><trkpt lat="41.8543435" lon="1.9788676"><ele>391.66666666666663</ele><time>2026-04-18T12:05:49.708Z</time></trkpt><trkpt lat="41.8544896" lon="1.9790156"><ele>393.0</ele><time>2026-04-18T12:05:50.708Z</time></trkpt><trkpt lat="41.8546509" lon="1.9792366"><ele>393.0</ele><time>2026-04-18T12:05:51.707Z</time></trkpt><trkpt lat="41.8548154" lon="1.9794851"><ele>393.0</ele><time>2026-04-18T12:05:52.708Z</time></trkpt><trkpt lat="41.8549814" lon="1.9796761"><ele>382.5</ele><time>2026-04-18T12:05:53.708Z</time></trkpt><trkpt lat="41.8551896" lon="1.9797955"><ele>372.0</ele><time>2026-04-18T12:05:54.707Z</time></trkpt><trkpt lat="41.8554185" lon="1.9799134"><ele>379.0</ele><time>2026-04-18T12:05:55.707Z</time></trkpt><trkpt lat="41.855603" lon="1.9800388"><ele>386.0</ele><time>2026-04-18T12:05:56.708Z</time></trkpt><trkpt lat="41.8557413" lon="1.9801617"><ele>393.0</ele><time>2026-04-18T12:05:57.708Z</time></trkpt><trkpt lat="41.8558174" lon="1.9802839"><ele>393.0</ele><time>2026-04-18T12:05:58.708Z</time></trkpt><trkpt lat="41.8558319" lon="1.980401"><ele>393.0</ele><time>2026-04-18T12:05:59.707Z</time></trkpt><trkpt lat="41.855843" lon="1.9805022"><ele>393.0</ele><time>2026-04-18T12:06:00.708Z</time></trkpt><trkpt lat="41.8557594" lon="1.9805092"><ele>393.0</ele><time>2026-04-18T12:06:01.707Z</time></trkpt><trkpt lat="41.8556946" lon="1.9805165"><ele>393.0</ele><time>2026-04-18T12:06:02.708Z</time></trkpt><trkpt lat="41.8556008" lon="1.9804498"><ele>393.0</ele><time>2026-04-18T12:06:03.708Z</time></trkpt><trkpt lat="41.8554546" lon="1.9801614"><ele>393.0</ele><time>2026-04-18T12:06:04.708Z</time></trkpt><trkpt lat="41.8553025" lon="1.9800735"><ele>393.0</ele><time>2026-04-18T12:06:05.708Z</time></trkpt><trkpt lat="41.8551212" lon="1.980061"><ele>393.0</ele><time>2026-04-18T12:06:06.707Z</time></trkpt><trkpt lat="41.8549456" lon="1.9800415"><ele>393.0</ele><time>2026-04-18T12:06:07.708Z</time></trkpt><trkpt lat="41.854823" lon="1.9799494"><ele>393.0</ele><time>2026-04-18T12:06:08.708Z</time></trkpt><trkpt lat="41.8547263" lon="1.9797963"><ele>393.0</ele><time>2026-04-18T12:06:09.708Z</time></trkpt><trkpt lat="41.8546231" lon="1.9796242"><ele>393.0</ele><time>2026-04-18T12:06:10.708Z</time></trkpt><trkpt lat="41.8544728" lon="1.9795194"><ele>393.0</ele><time>2026-04-18T12:06:11.708Z</time></trkpt><trkpt lat="41.8542735" lon="1.9793969"><ele>393.0</ele><time>2026-04-18T12:06:12.708Z</time></trkpt><trkpt lat="41.8540561" lon="1.9792391"><ele>391.66666666666663</ele><time>2026-04-18T12:06:13.708Z</time></trkpt><trkpt lat="41.8538693" lon="1.9790796"><ele>390.3333333333333</ele><time>2026-04-18T12:06:14.708Z</time></trkpt><trkpt lat="41.8537359" lon="1.9789443"><ele>389.0</ele><time>2026-04-18T12:06:15.708Z</time></trkpt><trkpt lat="41.853644" lon="1.9788433"><ele>389.0</ele><time>2026-04-18T12:06:16.707Z</time></trkpt><trkpt lat="41.8535552" lon="1.9788116"><ele>389.0</ele><time>2026-04-18T12:06:17.708Z</time></trkpt><trkpt lat="41.8534823" lon="1.9788496"><ele>389.0</ele><time>2026-04-18T12:06:18.707Z</time></trkpt><trkpt lat="41.8534157" lon="1.9788994"><ele>389.0</ele><time>2026-04-18T12:06:19.708Z</time></trkpt><trkpt lat="41.8535006" lon="1.9790381"><ele>389.0</ele><time>2026-04-18T12:06:20.708Z</time></trkpt><trkpt lat="41.8535836" lon="1.9791436"><ele>398.0</ele><time>2026-04-18T12:06:21.708Z</time></trkpt><trkpt lat="41.8537302" lon="1.9792641"><ele>407.0</ele><time>2026-04-18T12:06:22.708Z</time></trkpt><trkpt lat="41.8539132" lon="1.9794101"><ele>416.0</ele><time>2026-04-18T12:06:23.707Z</time></trkpt><trkpt lat="41.8541196" lon="1.9796008"><ele>417.0</ele><time>2026-04-18T12:06:24.707Z</time></trkpt><trkpt lat="41.854313" lon="1.9798087"><ele>418.0</ele><time>2026-04-18T12:06:25.708Z</time></trkpt><trkpt lat="41.8544667" lon="1.98003"><ele>418.0</ele><time>2026-04-18T12:06:26.708Z</time></trkpt><trkpt lat="41.8545938" lon="1.9802398"><ele>418.0</ele><time>2026-04-18T12:06:27.707Z</time></trkpt><trkpt lat="41.8547642" lon="1.9804021"><ele>418.0</ele><time>2026-04-18T12:06:28.708Z</time></trkpt><trkpt lat="41.8549486" lon="1.9805108"><ele>418.0</ele><time>2026-04-18T12:06:29.708Z</time></trkpt><trkpt lat="41.8550802" lon="1.9806215"><ele>418.0</ele><time>2026-04-18T12:06:30.707Z</time></trkpt><trkpt lat="41.8551971" lon="1.9808073"><ele>418.0</ele><time>2026-04-18T12:06:31.707Z</time></trkpt><trkpt lat="41.8553242" lon="1.981052"><ele>416.6666666666667</ele><time>2026-04-18T12:06:32.707Z</time></trkpt><trkpt lat="41.8554488" lon="1.9812941"><ele>415.33333333333337</ele><time>2026-04-18T12:06:33.707Z</time></trkpt><trkpt lat="41.8555175" lon="1.9815018"><ele>414.0</ele><time>2026-04-18T12:06:34.708Z</time></trkpt><trkpt lat="41.8555272" lon="1.9817104"><ele>414.0</ele><time>2026-04-18T12:06:35.708Z</time></trkpt><trkpt lat="41.8554774" lon="1.9819138"><ele>414.0</ele><time>2026-04-18T12:06:36.708Z</time></trkpt><trkpt lat="41.8554011" lon="1.9821387"><ele>414.0</ele><time>2026-04-18T12:06:37.707Z</time></trkpt><trkpt lat="41.8553524" lon="1.9824207"><ele>418.0</ele><time>2026-04-18T12:06:38.708Z</time></trkpt><trkpt lat="41.8553255" lon="1.9827534"><ele>422.0</ele><time>2026-04-18T12:06:39.708Z</time></trkpt><trkpt lat="41.8552923" lon="1.9830723"><ele>422.0</ele><time>2026-04-18T12:06:40.708Z</time></trkpt><trkpt lat="41.8552643" lon="1.9833375"><ele>422.0</ele><time>2026-04-18T12:06:41.708Z</time></trkpt><trkpt lat="41.8552448" lon="1.9835423"><ele>422.0</ele><time>2026-04-18T12:06:42.707Z</time></trkpt><trkpt lat="41.8552163" lon="1.9836904"><ele>423.0</ele><time>2026-04-18T12:06:43.708Z</time></trkpt><trkpt lat="41.8551643" lon="1.9838076"><ele>424.0</ele><time>2026-04-18T12:06:44.708Z</time></trkpt><trkpt lat="41.8550952" lon="1.983904"><ele>425.00000000000006</ele><time>2026-04-18T12:06:45.708Z</time></trkpt><trkpt lat="41.8550293" lon="1.9839994"><ele>426.0</ele><time>2026-04-18T12:06:46.708Z</time></trkpt><trkpt lat="41.8549873" lon="1.9841106"><ele>427.0</ele><time>2026-04-18T12:06:47.708Z</time></trkpt><trkpt lat="41.8549928" lon="1.9842298"><ele>427.8</ele><time>2026-04-18T12:06:48.708Z</time></trkpt><trkpt lat="41.8550327" lon="1.9843374"><ele>428.6</ele><time>2026-04-18T12:06:49.708Z</time></trkpt><trkpt lat="41.8550991" lon="1.9844177"><ele>429.40000000000003</ele><time>2026-04-18T12:06:50.708Z</time></trkpt><trkpt lat="41.8551861" lon="1.9844605"><ele>430.20000000000005</ele><time>2026-04-18T12:06:51.708Z</time></trkpt><trkpt lat="41.8552757" lon="1.9844535"><ele>431.0</ele><time>2026-04-18T12:06:52.708Z</time></trkpt><trkpt lat="41.8553588" lon="1.9844076"><ele>431.8</ele><time>2026-04-18T12:06:53.708Z</time></trkpt><trkpt lat="41.8554252" lon="1.9843191"><ele>432.6</ele><time>2026-04-18T12:06:54.708Z</time></trkpt><trkpt lat="41.8554834" lon="1.9842151"><ele>433.4</ele><time>2026-04-18T12:06:55.708Z</time></trkpt><trkpt lat="41.8555589" lon="1.984139"><ele>434.2</ele><time>2026-04-18T12:06:56.708Z</time></trkpt><trkpt lat="41.8556526" lon="1.9841125"><ele>435.0</ele><time>2026-04-18T12:06:57.708Z</time></trkpt><trkpt lat="41.8557481" lon="1.9841449"><ele>435.0</ele><time>2026-04-18T12:06:58.708Z</time></trkpt><trkpt lat="41.8558248" lon="1.9842374"><ele>435.0</ele><time>2026-04-18T12:06:59.708Z</time></trkpt><trkpt lat="41.8558717" lon="1.984378"><ele>435.0</ele><time>2026-04-18T12:07:00.708Z</time></trkpt><trkpt lat="41.8558742" lon="1.9845484"><ele>435.0</ele><time>2026-04-18T12:07:01.708Z</time></trkpt><trkpt lat="41.8558479" lon="1.9847413"><ele>435.0</ele><time>2026-04-18T12:07:02.708Z</time></trkpt><trkpt lat="41.8558256" lon="1.9849548"><ele>435.0</ele><time>2026-04-18T12:07:03.708Z</time></trkpt><trkpt lat="41.8558291" lon="1.985196"><ele>435.0</ele><time>2026-04-18T12:07:04.708Z</time></trkpt><trkpt lat="41.8558765" lon="1.9854585"><ele>438.0</ele><time>2026-04-18T12:07:05.708Z</time></trkpt><trkpt lat="41.8559599" lon="1.9857406"><ele>441.0</ele><time>2026-04-18T12:07:06.707Z</time></trkpt><trkpt lat="41.8560668" lon="1.9860487"><ele>441.0</ele><time>2026-04-18T12:07:07.707Z</time></trkpt><trkpt lat="41.856181" lon="1.986398"><ele>441.0</ele><time>2026-04-18T12:07:08.708Z</time></trkpt><trkpt lat="41.8562892" lon="1.9867766"><ele>439.0</ele><time>2026-04-18T12:07:09.708Z</time></trkpt><trkpt lat="41.8563924" lon="1.9872029"><ele>437.0</ele><time>2026-04-18T12:07:10.708Z</time></trkpt><trkpt lat="41.8564869" lon="1.9876591"><ele>437.0</ele><time>2026-04-18T12:07:11.707Z</time></trkpt><trkpt lat="41.8565825" lon="1.9881436"><ele>437.0</ele><time>2026-04-18T12:07:12.708Z</time></trkpt><trkpt lat="41.856677" lon="1.9885894"><ele>435.0</ele><time>2026-04-18T12:07:13.708Z</time></trkpt><trkpt lat="41.8567809" lon="1.9890023"><ele>433.0</ele><time>2026-04-18T12:07:14.707Z</time></trkpt><trkpt lat="41.8569102" lon="1.9894096"><ele>433.0</ele><time>2026-04-18T12:07:15.708Z</time></trkpt><trkpt lat="41.8570437" lon="1.9897879"><ele>433.0</ele><time>2026-04-18T12:07:16.708Z</time></trkpt><trkpt lat="41.8571635" lon="1.9901229"><ele>435.5</ele><time>2026-04-18T12:07:17.708Z</time></trkpt><trkpt lat="41.8572531" lon="1.9904282"><ele>438.0</ele><time>2026-04-18T12:07:18.708Z</time></trkpt><trkpt lat="41.8572948" lon="1.9907019"><ele>438.66666666666663</ele><time>2026-04-18T12:07:19.708Z</time></trkpt><trkpt lat="41.857302" lon="1.9909788"><ele>439.3333333333333</ele><time>2026-04-18T12:07:20.708Z</time></trkpt><trkpt lat="41.8572845" lon="1.9912822"><ele>440.0</ele><time>2026-04-18T12:07:21.708Z</time></trkpt><trkpt lat="41.8572542" lon="1.9916265"><ele>443.5</ele><time>2026-04-18T12:07:22.707Z</time></trkpt><trkpt lat="41.857234" lon="1.9919695"><ele>447.0</ele><time>2026-04-18T12:07:23.708Z</time></trkpt><trkpt lat="41.8572565" lon="1.9922764"><ele>449.66666666666663</ele><time>2026-04-18T12:07:24.708Z</time></trkpt><trkpt lat="41.8573226" lon="1.9925624"><ele>452.3333333333333</ele><time>2026-04-18T12:07:25.708Z</time></trkpt><trkpt lat="41.8574298" lon="1.9928015"><ele>455.0</ele><time>2026-04-18T12:07:26.707Z</time></trkpt><trkpt lat="41.8575966" lon="1.9930204"><ele>455.5</ele><time>2026-04-18T12:07:27.708Z</time></trkpt><trkpt lat="41.857798" lon="1.993229"><ele>456.0</ele><time>2026-04-18T12:07:28.708Z</time></trkpt><trkpt lat="41.8579803" lon="1.9934437"><ele>456.0</ele><time>2026-04-18T12:07:29.708Z</time></trkpt><trkpt lat="41.8581505" lon="1.9937007"><ele>456.0</ele><time>2026-04-18T12:07:30.708Z</time></trkpt><trkpt lat="41.8582888" lon="1.9940107"><ele>457.0</ele><time>2026-04-18T12:07:31.707Z</time></trkpt><trkpt lat="41.8584097" lon="1.9943671"><ele>458.0</ele><time>2026-04-18T12:07:32.707Z</time></trkpt><trkpt lat="41.8585267" lon="1.9946938"><ele>458.0</ele><time>2026-04-18T12:07:33.708Z</time></trkpt><trkpt lat="41.85868" lon="1.994996"><ele>458.0</ele><time>2026-04-18T12:07:34.708Z</time></trkpt><trkpt lat="41.8588696" lon="1.9952719"><ele>458.0</ele><time>2026-04-18T12:07:35.707Z</time></trkpt><trkpt lat="41.8590649" lon="1.9955594"><ele>458.0</ele><time>2026-04-18T12:07:36.708Z</time></trkpt><trkpt lat="41.8593006" lon="1.9958519"><ele>459.0</ele><time>2026-04-18T12:07:37.708Z</time></trkpt><trkpt lat="41.8597364" lon="1.9960479"><ele>459.0</ele><time>2026-04-18T12:07:38.708Z</time></trkpt><trkpt lat="41.8600824" lon="1.9963362"><ele>459.0</ele><time>2026-04-18T12:07:39.708Z</time></trkpt><trkpt lat="41.8604584" lon="1.9966395"><ele>459.5</ele><time>2026-04-18T12:07:40.708Z</time></trkpt><trkpt lat="41.8608386" lon="1.9969512"><ele>460.0</ele><time>2026-04-18T12:07:41.707Z</time></trkpt><trkpt lat="41.8612081" lon="1.9972471"><ele>458.0</ele><time>2026-04-18T12:07:42.707Z</time></trkpt><trkpt lat="41.8615541" lon="1.9975166"><ele>456.0</ele><time>2026-04-18T12:07:43.708Z</time></trkpt><trkpt lat="41.8618716" lon="1.9977749"><ele>455.0</ele><time>2026-04-18T12:07:44.708Z</time></trkpt><trkpt lat="41.8621599" lon="1.9980109"><ele>454.0</ele><time>2026-04-18T12:07:45.708Z</time></trkpt><trkpt lat="41.8624204" lon="1.9982175"><ele>454.5</ele><time>2026-04-18T12:07:46.708Z</time></trkpt><trkpt lat="41.8626608" lon="1.9984112"><ele>455.0</ele><time>2026-04-18T12:07:47.708Z</time></trkpt><trkpt lat="41.8628891" lon="1.9986182"><ele>455.0</ele><time>2026-04-18T12:07:48.708Z</time></trkpt><trkpt lat="41.8631083" lon="1.9988697"><ele>455.0</ele><time>2026-04-18T12:07:49.707Z</time></trkpt><trkpt lat="41.8633218" lon="1.9991662"><ele>454.0</ele><time>2026-04-18T12:07:50.708Z</time></trkpt><trkpt lat="41.8635588" lon="1.9995058"><ele>453.0</ele><time>2026-04-18T12:07:51.708Z</time></trkpt><trkpt lat="41.863832" lon="1.9998515"><ele>453.0</ele><time>2026-04-18T12:07:52.707Z</time></trkpt><trkpt lat="41.8641399" lon="2.000203"><ele>453.0</ele><time>2026-04-18T12:07:53.708Z</time></trkpt><trkpt lat="41.864455" lon="2.0005407"><ele>456.5</ele><time>2026-04-18T12:07:54.708Z</time></trkpt><trkpt lat="41.8647199" lon="2.0008291"><ele>460.0</ele><time>2026-04-18T12:07:55.708Z</time></trkpt><trkpt lat="41.8649422" lon="2.0010804"><ele>450.5</ele><time>2026-04-18T12:07:56.708Z</time></trkpt><trkpt lat="41.8651248" lon="2.0012689"><ele>441.0</ele><time>2026-04-18T12:07:57.708Z</time></trkpt><trkpt lat="41.8653155" lon="2.0014513"><ele>441.0</ele><time>2026-04-18T12:07:58.708Z</time></trkpt><trkpt lat="41.8655171" lon="2.0015138"><ele>441.0</ele><time>2026-04-18T12:07:59.708Z</time></trkpt><trkpt lat="41.865706" lon="2.0015698"><ele>441.0</ele><time>2026-04-18T12:08:00.708Z</time></trkpt><trkpt lat="41.8658661" lon="2.0015585"><ele>444.0</ele><time>2026-04-18T12:08:01.708Z</time></trkpt><trkpt lat="41.8660313" lon="2.0016771"><ele>447.0</ele><time>2026-04-18T12:08:02.708Z</time></trkpt><trkpt lat="41.8661508" lon="2.0017909"><ele>450.0</ele><time>2026-04-18T12:08:03.708Z</time></trkpt><trkpt lat="41.8662573" lon="2.0020016"><ele>450.0</ele><time>2026-04-18T12:08:04.708Z</time></trkpt><trkpt lat="41.866361" lon="2.0022927"><ele>450.0</ele><time>2026-04-18T12:08:05.708Z</time></trkpt><trkpt lat="41.8664876" lon="2.0026057"><ele>459.5</ele><time>2026-04-18T12:08:06.707Z</time></trkpt><trkpt lat="41.8666521" lon="2.0029643"><ele>469.0</ele><time>2026-04-18T12:08:07.708Z</time></trkpt><trkpt lat="41.8668377" lon="2.0033492"><ele>473.0</ele><time>2026-04-18T12:08:08.708Z</time></trkpt><trkpt lat="41.8670169" lon="2.0037435"><ele>477.0</ele><time>2026-04-18T12:08:09.707Z</time></trkpt><trkpt lat="41.8671813" lon="2.0040875"><ele>480.0</ele><time>2026-04-18T12:08:10.708Z</time></trkpt><trkpt lat="41.8673395" lon="2.0043902"><ele>483.0</ele><time>2026-04-18T12:08:11.708Z</time></trkpt><trkpt lat="41.8675239" lon="2.0046555"><ele>483.0</ele><time>2026-04-18T12:08:12.708Z</time></trkpt><trkpt lat="41.8677563" lon="2.0049122"><ele>483.0</ele><time>2026-04-18T12:08:13.708Z</time></trkpt><trkpt lat="41.8680242" lon="2.0051646"><ele>483.0</ele><time>2026-04-18T12:08:14.708Z</time></trkpt><trkpt lat="41.8683209" lon="2.0054358"><ele>483.0</ele><time>2026-04-18T12:08:15.708Z</time></trkpt><trkpt lat="41.8685807" lon="2.0056746"><ele>484.0</ele><time>2026-04-18T12:08:16.707Z</time></trkpt><trkpt lat="41.8688134" lon="2.0058845"><ele>485.0</ele><time>2026-04-18T12:08:17.708Z</time></trkpt><trkpt lat="41.8690169" lon="2.0060677"><ele>485.0</ele><time>2026-04-18T12:08:18.708Z</time></trkpt><trkpt lat="41.8691662" lon="2.0062648"><ele>485.0</ele><time>2026-04-18T12:08:19.707Z</time></trkpt><trkpt lat="41.869274" lon="2.0065173"><ele>485.0</ele><time>2026-04-18T12:08:20.708Z</time></trkpt><trkpt lat="41.8693449" lon="2.0068188"><ele>476.0</ele><time>2026-04-18T12:08:21.708Z</time></trkpt><trkpt lat="41.869383" lon="2.0071935"><ele>467.0</ele><time>2026-04-18T12:08:22.708Z</time></trkpt><trkpt lat="41.869417" lon="2.0075944"><ele>467.0</ele><time>2026-04-18T12:08:23.708Z</time></trkpt><trkpt lat="41.8694471" lon="2.0079225"><ele>467.0</ele><time>2026-04-18T12:08:24.708Z</time></trkpt><trkpt lat="41.8694952" lon="2.008203"><ele>472.0</ele><time>2026-04-18T12:08:25.708Z</time></trkpt><trkpt lat="41.8695858" lon="2.0084398"><ele>477.0</ele><time>2026-04-18T12:08:26.708Z</time></trkpt><trkpt lat="41.8697412" lon="2.0086782"><ele>482.0</ele><time>2026-04-18T12:08:27.708Z</time></trkpt><trkpt lat="41.8699475" lon="2.008921"><ele>472.0</ele><time>2026-04-18T12:08:28.708Z</time></trkpt><trkpt lat="41.8701252" lon="2.0091791"><ele>462.0</ele><time>2026-04-18T12:08:29.708Z</time></trkpt><trkpt lat="41.8702767" lon="2.009481"><ele>462.0</ele><time>2026-04-18T12:08:30.707Z</time></trkpt><trkpt lat="41.8704405" lon="2.009838"><ele>462.0</ele><time>2026-04-18T12:08:31.708Z</time></trkpt><trkpt lat="41.8706422" lon="2.0102052"><ele>467.0</ele><time>2026-04-18T12:08:32.708Z</time></trkpt><trkpt lat="41.8708594" lon="2.0105905"><ele>472.0</ele><time>2026-04-18T12:08:33.708Z</time></trkpt><trkpt lat="41.8710424" lon="2.0109352"><ele>472.0</ele><time>2026-04-18T12:08:34.708Z</time></trkpt><trkpt lat="41.8712166" lon="2.0112526"><ele>472.0</ele><time>2026-04-18T12:08:35.708Z</time></trkpt><trkpt lat="41.871404" lon="2.0115389"><ele>469.0</ele><time>2026-04-18T12:08:36.707Z</time></trkpt><trkpt lat="41.8716473" lon="2.0118222"><ele>466.0</ele><time>2026-04-18T12:08:37.707Z</time></trkpt><trkpt lat="41.8719196" lon="2.0121117"><ele>466.0</ele><time>2026-04-18T12:08:38.708Z</time></trkpt><trkpt lat="41.8721633" lon="2.0123707"><ele>466.0</ele><time>2026-04-18T12:08:39.708Z</time></trkpt><trkpt lat="41.8723813" lon="2.0126328"><ele>468.0</ele><time>2026-04-18T12:08:40.708Z</time></trkpt><trkpt lat="41.8725854" lon="2.0129359"><ele>470.0</ele><time>2026-04-18T12:08:41.708Z</time></trkpt><trkpt lat="41.8727926" lon="2.0132913"><ele>480.5</ele><time>2026-04-18T12:08:42.708Z</time></trkpt><trkpt lat="41.8730082" lon="2.0136411"><ele>491.0</ele><time>2026-04-18T12:08:43.707Z</time></trkpt><trkpt lat="41.8731897" lon="2.0139186"><ele>491.0</ele><time>2026-04-18T12:08:44.708Z</time></trkpt><trkpt lat="41.873359" lon="2.0141469"><ele>491.0</ele><time>2026-04-18T12:08:45.708Z</time></trkpt><trkpt lat="41.8735232" lon="2.0142921"><ele>491.0</ele><time>2026-04-18T12:08:46.708Z</time></trkpt><trkpt lat="41.8737312" lon="2.0143839"><ele>491.3333333333333</ele><time>2026-04-18T12:08:47.708Z</time></trkpt><trkpt lat="41.8739702" lon="2.0144495"><ele>491.66666666666663</ele><time>2026-04-18T12:08:48.708Z</time></trkpt><trkpt lat="41.8741729" lon="2.0144884"><ele>492.0</ele><time>2026-04-18T12:08:49.708Z</time></trkpt><trkpt lat="41.8743439" lon="2.0145459"><ele>492.0</ele><time>2026-04-18T12:08:50.708Z</time></trkpt><trkpt lat="41.8744845" lon="2.0146235"><ele>492.0</ele><time>2026-04-18T12:08:51.708Z</time></trkpt><trkpt lat="41.8745832" lon="2.0147233"><ele>492.0</ele><time>2026-04-18T12:08:52.708Z</time></trkpt><trkpt lat="41.8746423" lon="2.0148533"><ele>492.0</ele><time>2026-04-18T12:08:53.707Z</time></trkpt><trkpt lat="41.874669" lon="2.0150017"><ele>495.5</ele><time>2026-04-18T12:08:54.708Z</time></trkpt><trkpt lat="41.874649" lon="2.0151585"><ele>499.0</ele><time>2026-04-18T12:08:55.708Z</time></trkpt><trkpt lat="41.8745996" lon="2.0153064"><ele>502.5</ele><time>2026-04-18T12:08:56.708Z</time></trkpt><trkpt lat="41.874533" lon="2.0154504"><ele>506.0</ele><time>2026-04-18T12:08:57.707Z</time></trkpt><trkpt lat="41.8744515" lon="2.0155885"><ele>506.0</ele><time>2026-04-18T12:08:58.708Z</time></trkpt><trkpt lat="41.874367" lon="2.0157287"><ele>506.0</ele><time>2026-04-18T12:08:59.708Z</time></trkpt><trkpt lat="41.8742834" lon="2.015873"><ele>506.0</ele><time>2026-04-18T12:09:00.707Z</time></trkpt><trkpt lat="41.8741993" lon="2.0160283"><ele>506.0</ele><time>2026-04-18T12:09:01.708Z</time></trkpt><trkpt lat="41.8741132" lon="2.0161672"><ele>507.75</ele><time>2026-04-18T12:09:02.707Z</time></trkpt><trkpt lat="41.8740323" lon="2.0163155"><ele>509.5</ele><time>2026-04-18T12:09:03.708Z</time></trkpt><trkpt lat="41.8739472" lon="2.016462"><ele>511.25</ele><time>2026-04-18T12:09:04.708Z</time></trkpt><trkpt lat="41.8738576" lon="2.0166077"><ele>513.0</ele><time>2026-04-18T12:09:05.708Z</time></trkpt><trkpt lat="41.8737728" lon="2.0167578"><ele>514.75</ele><time>2026-04-18T12:09:06.707Z</time></trkpt><trkpt lat="41.8736965" lon="2.0169032"><ele>516.5</ele><time>2026-04-18T12:09:07.708Z</time></trkpt><trkpt lat="41.8736438" lon="2.017051"><ele>518.25</ele><time>2026-04-18T12:09:08.707Z</time></trkpt><trkpt lat="41.8736117" lon="2.017215"><ele>520.0</ele><time>2026-04-18T12:09:09.708Z</time></trkpt><trkpt lat="41.8736043" lon="2.0173866"><ele>522.0</ele><time>2026-04-18T12:09:10.707Z</time></trkpt><trkpt lat="41.8736243" lon="2.0175626"><ele>524.0</ele><time>2026-04-18T12:09:11.708Z</time></trkpt><trkpt lat="41.8736709" lon="2.0177345"><ele>526.0</ele><time>2026-04-18T12:09:12.708Z</time></trkpt><trkpt lat="41.8737478" lon="2.017888"><ele>528.0</ele><time>2026-04-18T12:09:13.707Z</time></trkpt><trkpt lat="41.8738545" lon="2.0180153"><ele>528.0</ele><time>2026-04-18T12:09:14.708Z</time></trkpt><trkpt lat="41.8739829" lon="2.0181131"><ele>528.0</ele><time>2026-04-18T12:09:15.707Z</time></trkpt><trkpt lat="41.8741285" lon="2.0181739"><ele>528.0</ele><time>2026-04-18T12:09:16.708Z</time></trkpt><trkpt lat="41.8742868" lon="2.0181902"><ele>528.0</ele><time>2026-04-18T12:09:17.708Z</time></trkpt><trkpt lat="41.8744542" lon="2.0181828"><ele>528.0</ele><time>2026-04-18T12:09:18.708Z</time></trkpt><trkpt lat="41.8746307" lon="2.0181696"><ele>528.0</ele><time>2026-04-18T12:09:19.708Z</time></trkpt><trkpt lat="41.8748103" lon="2.0181561"><ele>528.0</ele><time>2026-04-18T12:09:20.707Z</time></trkpt><trkpt lat="41.8749881" lon="2.0181432"><ele>528.0</ele><time>2026-04-18T12:09:21.708Z</time></trkpt><trkpt lat="41.8751662" lon="2.0181323"><ele>528.0</ele><time>2026-04-18T12:09:22.708Z</time></trkpt><trkpt lat="41.875337" lon="2.0181289"><ele>527.6666666666666</ele><time>2026-04-18T12:09:23.708Z</time></trkpt><trkpt lat="41.8754952" lon="2.018154"><ele>527.3333333333333</ele><time>2026-04-18T12:09:24.708Z</time></trkpt><trkpt lat="41.8756434" lon="2.0182242"><ele>527.0</ele><time>2026-04-18T12:09:25.708Z</time></trkpt><trkpt lat="41.8757807" lon="2.0183442"><ele>527.0</ele><time>2026-04-18T12:09:26.708Z</time></trkpt><trkpt lat="41.8759028" lon="2.0185015"><ele>527.0</ele><time>2026-04-18T12:09:27.708Z</time></trkpt><trkpt lat="41.8760201" lon="2.0186811"><ele>527.0</ele><time>2026-04-18T12:09:28.708Z</time></trkpt><trkpt lat="41.8761476" lon="2.0188695"><ele>530.0</ele><time>2026-04-18T12:09:29.708Z</time></trkpt><trkpt lat="41.8762808" lon="2.0190633"><ele>533.0</ele><time>2026-04-18T12:09:30.708Z</time></trkpt><trkpt lat="41.8764179" lon="2.0192591"><ele>536.0</ele><time>2026-04-18T12:09:31.708Z</time></trkpt><trkpt lat="41.8765603" lon="2.0194589"><ele>536.0</ele><time>2026-04-18T12:09:32.707Z</time></trkpt><trkpt lat="41.8767035" lon="2.0196673"><ele>536.0</ele><time>2026-04-18T12:09:33.708Z</time></trkpt><trkpt lat="41.8768467" lon="2.0198827"><ele>536.0</ele><time>2026-04-18T12:09:34.707Z</time></trkpt><trkpt lat="41.8769878" lon="2.0201023"><ele>535.3333333333333</ele><time>2026-04-18T12:09:35.707Z</time></trkpt><trkpt lat="41.8771228" lon="2.0203196"><ele>534.6666666666666</ele><time>2026-04-18T12:09:36.708Z</time></trkpt><trkpt lat="41.8772473" lon="2.0205338"><ele>534.0</ele><time>2026-04-18T12:09:37.707Z</time></trkpt><trkpt lat="41.8773662" lon="2.0207449"><ele>532.0</ele><time>2026-04-18T12:09:38.708Z</time></trkpt><trkpt lat="41.8774776" lon="2.0209503"><ele>530.0</ele><time>2026-04-18T12:09:39.708Z</time></trkpt><trkpt lat="41.8775853" lon="2.0211492"><ele>528.0</ele><time>2026-04-18T12:09:40.708Z</time></trkpt><trkpt lat="41.8776851" lon="2.0213379"><ele>527.0</ele><time>2026-04-18T12:09:41.707Z</time></trkpt><trkpt lat="41.8777771" lon="2.021518"><ele>526.0</ele><time>2026-04-18T12:09:42.707Z</time></trkpt><trkpt lat="41.877853" lon="2.0216954"><ele>525.0</ele><time>2026-04-18T12:09:43.708Z</time></trkpt><trkpt lat="41.8778961" lon="2.0218809"><ele>525.0</ele><time>2026-04-18T12:09:44.708Z</time></trkpt><trkpt lat="41.8779066" lon="2.0220823"><ele>525.0</ele><time>2026-04-18T12:09:45.708Z</time></trkpt><trkpt lat="41.8778853" lon="2.0222961"><ele>525.0</ele><time>2026-04-18T12:09:46.708Z</time></trkpt><trkpt lat="41.8778475" lon="2.0225203"><ele>527.0</ele><time>2026-04-18T12:09:47.708Z</time></trkpt><trkpt lat="41.8778052" lon="2.022755"><ele>529.0</ele><time>2026-04-18T12:09:48.708Z</time></trkpt><trkpt lat="41.877769" lon="2.0229976"><ele>531.0</ele><time>2026-04-18T12:09:49.707Z</time></trkpt><trkpt lat="41.8777306" lon="2.0232378"><ele>532.3333333333334</ele><time>2026-04-18T12:09:50.708Z</time></trkpt><trkpt lat="41.8776935" lon="2.0234589"><ele>533.6666666666667</ele><time>2026-04-18T12:09:51.708Z</time></trkpt><trkpt lat="41.8776559" lon="2.0236632"><ele>535.0</ele><time>2026-04-18T12:09:52.708Z</time></trkpt><trkpt lat="41.8776206" lon="2.0238511"><ele>535.5</ele><time>2026-04-18T12:09:53.708Z</time></trkpt><trkpt lat="41.8775901" lon="2.0240206"><ele>536.0</ele><time>2026-04-18T12:09:54.708Z</time></trkpt><trkpt lat="41.8775625" lon="2.0241778"><ele>536.5</ele><time>2026-04-18T12:09:55.707Z</time></trkpt><trkpt lat="41.8775404" lon="2.0243366"><ele>537.0</ele><time>2026-04-18T12:09:56.708Z</time></trkpt><trkpt lat="41.8775189" lon="2.0245137"><ele>538.0</ele><time>2026-04-18T12:09:57.707Z</time></trkpt><trkpt lat="41.8774975" lon="2.0246925"><ele>539.0</ele><time>2026-04-18T12:09:58.708Z</time></trkpt><trkpt lat="41.8774809" lon="2.0248788"><ele>540.0</ele><time>2026-04-18T12:09:59.708Z</time></trkpt><trkpt lat="41.8774738" lon="2.0250766"><ele>541.0</ele><time>2026-04-18T12:10:00.708Z</time></trkpt><trkpt lat="41.8774752" lon="2.0252881"><ele>542.6666666666667</ele><time>2026-04-18T12:10:01.708Z</time></trkpt><trkpt lat="41.8774843" lon="2.0255064"><ele>544.3333333333334</ele><time>2026-04-18T12:10:02.708Z</time></trkpt><trkpt lat="41.8774965" lon="2.0257231"><ele>546.0</ele><time>2026-04-18T12:10:03.708Z</time></trkpt><trkpt lat="41.8775181" lon="2.0259172"><ele>546.6</ele><time>2026-04-18T12:10:04.707Z</time></trkpt><trkpt lat="41.8775566" lon="2.0260848"><ele>547.2</ele><time>2026-04-18T12:10:05.707Z</time></trkpt><trkpt lat="41.8776173" lon="2.0262199"><ele>547.8</ele><time>2026-04-18T12:10:06.707Z</time></trkpt><trkpt lat="41.8776892" lon="2.026321"><ele>548.4</ele><time>2026-04-18T12:10:07.708Z</time></trkpt><trkpt lat="41.8777526" lon="2.0263903"><ele>549.0</ele><time>2026-04-18T12:10:08.707Z</time></trkpt><trkpt lat="41.8778092" lon="2.0264473"><ele>549.6</ele><time>2026-04-18T12:10:09.707Z</time></trkpt><trkpt lat="41.877875" lon="2.0265085"><ele>550.2</ele><time>2026-04-18T12:10:10.707Z</time></trkpt><trkpt lat="41.877945" lon="2.0265757"><ele>550.8000000000001</ele><time>2026-04-18T12:10:11.707Z</time></trkpt><trkpt lat="41.8780245" lon="2.0266427"><ele>551.4</ele><time>2026-04-18T12:10:12.708Z</time></trkpt><trkpt lat="41.8781112" lon="2.0267116"><ele>552.0</ele><time>2026-04-18T12:10:13.708Z</time></trkpt><trkpt lat="41.8782109" lon="2.0267849"><ele>552.0</ele><time>2026-04-18T12:10:14.708Z</time></trkpt><trkpt lat="41.8783191" lon="2.0268585"><ele>552.0</ele><time>2026-04-18T12:10:15.708Z</time></trkpt><trkpt lat="41.8784359" lon="2.0269335"><ele>552.0</ele><time>2026-04-18T12:10:16.708Z</time></trkpt><trkpt lat="41.8785575" lon="2.0270083"><ele>552.0</ele><time>2026-04-18T12:10:17.707Z</time></trkpt><trkpt lat="41.8786862" lon="2.0270795"><ele>554.3333333333334</ele><time>2026-04-18T12:10:18.708Z</time></trkpt><trkpt lat="41.8788215" lon="2.0271449"><ele>556.6666666666667</ele><time>2026-04-18T12:10:19.708Z</time></trkpt><trkpt lat="41.878968" lon="2.0271984"><ele>559.0</ele><time>2026-04-18T12:10:20.707Z</time></trkpt><trkpt lat="41.8791299" lon="2.0272416"><ele>558.3333333333334</ele><time>2026-04-18T12:10:21.707Z</time></trkpt><trkpt lat="41.8792981" lon="2.0272843"><ele>557.6666666666666</ele><time>2026-04-18T12:10:22.708Z</time></trkpt><trkpt lat="41.879467" lon="2.0273275"><ele>557.0</ele><time>2026-04-18T12:10:23.708Z</time></trkpt><trkpt lat="41.8796341" lon="2.0273842"><ele>557.0</ele><time>2026-04-18T12:10:24.708Z</time></trkpt><trkpt lat="41.8797953" lon="2.0274647"><ele>557.0</ele><time>2026-04-18T12:10:25.708Z</time></trkpt><trkpt lat="41.8799522" lon="2.0275653"><ele>557.0</ele><time>2026-04-18T12:10:26.708Z</time></trkpt><trkpt lat="41.8801058" lon="2.0276693"><ele>555.0</ele><time>2026-04-18T12:10:27.707Z</time></trkpt><trkpt lat="41.8802575" lon="2.0277759"><ele>553.0</ele><time>2026-04-18T12:10:28.708Z</time></trkpt><trkpt lat="41.8803978" lon="2.0279062"><ele>551.0</ele><time>2026-04-18T12:10:29.708Z</time></trkpt><trkpt lat="41.8805275" lon="2.028061"><ele>551.0</ele><time>2026-04-18T12:10:30.708Z</time></trkpt><trkpt lat="41.8806419" lon="2.0282383"><ele>551.0</ele><time>2026-04-18T12:10:31.707Z</time></trkpt><trkpt lat="41.880738" lon="2.0284344"><ele>551.0</ele><time>2026-04-18T12:10:32.708Z</time></trkpt><trkpt lat="41.8808174" lon="2.028637"><ele>551.3333333333333</ele><time>2026-04-18T12:10:33.708Z</time></trkpt><trkpt lat="41.8808862" lon="2.0288439"><ele>551.6666666666666</ele><time>2026-04-18T12:10:34.708Z</time></trkpt><trkpt lat="41.8809491" lon="2.0290598"><ele>552.0</ele><time>2026-04-18T12:10:35.708Z</time></trkpt><trkpt lat="41.8810142" lon="2.0292811"><ele>551.3333333333334</ele><time>2026-04-18T12:10:36.708Z</time></trkpt><trkpt lat="41.8810772" lon="2.0295021"><ele>550.6666666666667</ele><time>2026-04-18T12:10:37.707Z</time></trkpt><trkpt lat="41.8811372" lon="2.0297215"><ele>550.0</ele><time>2026-04-18T12:10:38.707Z</time></trkpt><trkpt lat="41.8812007" lon="2.0299387"><ele>551.0</ele><time>2026-04-18T12:10:39.707Z</time></trkpt><trkpt lat="41.881267" lon="2.0301559"><ele>552.0</ele><time>2026-04-18T12:10:40.707Z</time></trkpt><trkpt lat="41.8813339" lon="2.0303768"><ele>553.0</ele><time>2026-04-18T12:10:41.707Z</time></trkpt><trkpt lat="41.8814045" lon="2.0305943"><ele>554.3333333333334</ele><time>2026-04-18T12:10:42.708Z</time></trkpt><trkpt lat="41.8814786" lon="2.0308134"><ele>555.6666666666666</ele><time>2026-04-18T12:10:43.708Z</time></trkpt><trkpt lat="41.8815564" lon="2.0310275"><ele>557.0</ele><time>2026-04-18T12:10:44.708Z</time></trkpt><trkpt lat="41.8816409" lon="2.0312385"><ele>557.0</ele><time>2026-04-18T12:10:45.708Z</time></trkpt><trkpt lat="41.88173" lon="2.0314388"><ele>557.0</ele><time>2026-04-18T12:10:46.708Z</time></trkpt><trkpt lat="41.8818207" lon="2.0316397"><ele>557.0</ele><time>2026-04-18T12:10:47.707Z</time></trkpt><trkpt lat="41.8819149" lon="2.0318376"><ele>556.0</ele><time>2026-04-18T12:10:48.708Z</time></trkpt><trkpt lat="41.882015" lon="2.0320349"><ele>555.0</ele><time>2026-04-18T12:10:49.707Z</time></trkpt><trkpt lat="41.8821179" lon="2.0322263"><ele>554.0</ele><time>2026-04-18T12:10:50.708Z</time></trkpt><trkpt lat="41.8822271" lon="2.0324122"><ele>556.6666666666666</ele><time>2026-04-18T12:10:51.708Z</time></trkpt><trkpt lat="41.8823321" lon="2.0325862"><ele>559.3333333333334</ele><time>2026-04-18T12:10:52.707Z</time></trkpt><trkpt lat="41.8824343" lon="2.032755"><ele>562.0</ele><time>2026-04-18T12:10:53.708Z</time></trkpt><trkpt lat="41.8825265" lon="2.0329297"><ele>563.5</ele><time>2026-04-18T12:10:54.707Z</time></trkpt><trkpt lat="41.8826051" lon="2.0331022"><ele>565.0</ele><time>2026-04-18T12:10:55.708Z</time></trkpt><trkpt lat="41.8826711" lon="2.0332721"><ele>566.5</ele><time>2026-04-18T12:10:56.708Z</time></trkpt><trkpt lat="41.8827226" lon="2.0334373"><ele>568.0</ele><time>2026-04-18T12:10:57.708Z</time></trkpt><trkpt lat="41.882759" lon="2.0335939"><ele>568.0</ele><time>2026-04-18T12:10:58.708Z</time></trkpt><trkpt lat="41.8827738" lon="2.0337474"><ele>568.0</ele><time>2026-04-18T12:10:59.708Z</time></trkpt><trkpt lat="41.882765" lon="2.0338912"><ele>568.0</ele><time>2026-04-18T12:11:00.708Z</time></trkpt><trkpt lat="41.882733" lon="2.034026"><ele>568.0</ele><time>2026-04-18T12:11:01.708Z</time></trkpt><trkpt lat="41.8826802" lon="2.0341444"><ele>568.0</ele><time>2026-04-18T12:11:02.708Z</time></trkpt><trkpt lat="41.8826096" lon="2.0342514"><ele>566.4</ele><time>2026-04-18T12:11:03.708Z</time></trkpt><trkpt lat="41.8825451" lon="2.0343714"><ele>564.8</ele><time>2026-04-18T12:11:04.707Z</time></trkpt><trkpt lat="41.8825084" lon="2.0345173"><ele>563.2</ele><time>2026-04-18T12:11:05.708Z</time></trkpt><trkpt lat="41.8824974" lon="2.0346662"><ele>561.6</ele><time>2026-04-18T12:11:06.707Z</time></trkpt><trkpt lat="41.8824878" lon="2.0348123"><ele>560.0</ele><time>2026-04-18T12:11:07.708Z</time></trkpt><trkpt lat="41.8824504" lon="2.0349433"><ele>560.0</ele><time>2026-04-18T12:11:08.707Z</time></trkpt><trkpt lat="41.8823893" lon="2.0350491"><ele>560.0</ele><time>2026-04-18T12:11:09.707Z</time></trkpt><trkpt lat="41.8823088" lon="2.0351219"><ele>560.0</ele><time>2026-04-18T12:11:10.708Z</time></trkpt><trkpt lat="41.8822162" lon="2.0351495"><ele>560.0</ele><time>2026-04-18T12:11:11.708Z</time></trkpt><trkpt lat="41.88212" lon="2.0351349"><ele>560.0</ele><time>2026-04-18T12:11:12.707Z</time></trkpt><trkpt lat="41.8820234" lon="2.0350774"><ele>560.0</ele><time>2026-04-18T12:11:13.708Z</time></trkpt><trkpt lat="41.8819402" lon="2.0349788"><ele>560.0</ele><time>2026-04-18T12:11:14.708Z</time></trkpt><trkpt lat="41.8818766" lon="2.0348551"><ele>560.0</ele><time>2026-04-18T12:11:15.708Z</time></trkpt><trkpt lat="41.8818289" lon="2.0347054"><ele>560.0</ele><time>2026-04-18T12:11:16.708Z</time></trkpt><trkpt lat="41.8817805" lon="2.0345556"><ele>557.5</ele><time>2026-04-18T12:11:17.707Z</time></trkpt><trkpt lat="41.8817053" lon="2.0344162"><ele>555.0</ele><time>2026-04-18T12:11:18.707Z</time></trkpt><trkpt lat="41.8816135" lon="2.0342944"><ele>552.5</ele><time>2026-04-18T12:11:19.708Z</time></trkpt><trkpt lat="41.8815057" lon="2.0342033"><ele>550.0</ele><time>2026-04-18T12:11:20.708Z</time></trkpt><trkpt lat="41.8813826" lon="2.0341435"><ele>549.5</ele><time>2026-04-18T12:11:21.708Z</time></trkpt><trkpt lat="41.8812519" lon="2.0341185"><ele>549.0</ele><time>2026-04-18T12:11:22.708Z</time></trkpt><trkpt lat="41.8811113" lon="2.0341007"><ele>548.5</ele><time>2026-04-18T12:11:23.708Z</time></trkpt><trkpt lat="41.8809623" lon="2.0340747"><ele>548.0</ele><time>2026-04-18T12:11:24.708Z</time></trkpt><trkpt lat="41.880813" lon="2.0340523"><ele>546.5</ele><time>2026-04-18T12:11:25.708Z</time></trkpt><trkpt lat="41.8806674" lon="2.0340269"><ele>545.0</ele><time>2026-04-18T12:11:26.707Z</time></trkpt><trkpt lat="41.8805336" lon="2.0340048"><ele>543.5</ele><time>2026-04-18T12:11:27.707Z</time></trkpt><trkpt lat="41.8804099" lon="2.0339917"><ele>542.0</ele><time>2026-04-18T12:11:28.708Z</time></trkpt><trkpt lat="41.880296" lon="2.0340071"><ele>542.0</ele><time>2026-04-18T12:11:29.708Z</time></trkpt><trkpt lat="41.8801874" lon="2.0340627"><ele>542.0</ele><time>2026-04-18T12:11:30.707Z</time></trkpt><trkpt lat="41.8800879" lon="2.0341473"><ele>542.0</ele><time>2026-04-18T12:11:31.707Z</time></trkpt><trkpt lat="41.8799906" lon="2.0342462"><ele>542.0</ele><time>2026-04-18T12:11:32.708Z</time></trkpt><trkpt lat="41.8798968" lon="2.0343395"><ele>542.2</ele><time>2026-04-18T12:11:33.707Z</time></trkpt><trkpt lat="41.8798023" lon="2.0344094"><ele>542.4000000000001</ele><time>2026-04-18T12:11:34.708Z</time></trkpt><trkpt lat="41.8797003" lon="2.0344453"><ele>542.5999999999999</ele><time>2026-04-18T12:11:35.708Z</time></trkpt><trkpt lat="41.8795957" lon="2.0344463"><ele>542.8</ele><time>2026-04-18T12:11:36.708Z</time></trkpt><trkpt lat="41.8794933" lon="2.0344118"><ele>543.0</ele><time>2026-04-18T12:11:37.707Z</time></trkpt><trkpt lat="41.8794033" lon="2.0343637"><ele>543.0</ele><time>2026-04-18T12:11:38.708Z</time></trkpt><trkpt lat="41.8793324" lon="2.0343194"><ele>543.0</ele><time>2026-04-18T12:11:39.708Z</time></trkpt><trkpt lat="41.8792313" lon="2.034245"><ele>543.0</ele><time>2026-04-18T12:11:41.708Z</time></trkpt><trkpt lat="41.8791422" lon="2.0341806"><ele>543.0</ele><time>2026-04-18T12:11:43.708Z</time></trkpt><trkpt lat="41.8790787" lon="2.0341391"><ele>543.0</ele><time>2026-04-18T12:11:44.708Z</time></trkpt><trkpt lat="41.8789968" lon="2.0340939"><ele>540.25</ele><time>2026-04-18T12:11:45.708Z</time></trkpt><trkpt lat="41.8788985" lon="2.0340523"><ele>537.5</ele><time>2026-04-18T12:11:46.708Z</time></trkpt><trkpt lat="41.878783" lon="2.0340351"><ele>534.75</ele><time>2026-04-18T12:11:47.707Z</time></trkpt><trkpt lat="41.8786455" lon="2.0340643"><ele>532.0</ele><time>2026-04-18T12:11:48.707Z</time></trkpt><trkpt lat="41.8784834" lon="2.0341228"><ele>531.3333333333334</ele><time>2026-04-18T12:11:49.707Z</time></trkpt><trkpt lat="41.8782894" lon="2.0341903"><ele>530.6666666666666</ele><time>2026-04-18T12:11:50.708Z</time></trkpt><trkpt lat="41.8780729" lon="2.0342714"><ele>530.0</ele><time>2026-04-18T12:11:51.707Z</time></trkpt><trkpt lat="41.8778832" lon="2.0343692"><ele>530.0</ele><time>2026-04-18T12:11:52.708Z</time></trkpt><trkpt lat="41.8777093" lon="2.0344723"><ele>530.0</ele><time>2026-04-18T12:11:53.708Z</time></trkpt><trkpt lat="41.8775427" lon="2.0345634"><ele>530.0</ele><time>2026-04-18T12:11:54.708Z</time></trkpt><trkpt lat="41.877374" lon="2.0346179"><ele>528.0</ele><time>2026-04-18T12:11:55.707Z</time></trkpt><trkpt lat="41.8772007" lon="2.0346501"><ele>526.0</ele><time>2026-04-18T12:11:56.707Z</time></trkpt><trkpt lat="41.8770195" lon="2.0346723"><ele>524.0</ele><time>2026-04-18T12:11:57.707Z</time></trkpt><trkpt lat="41.8768401" lon="2.0346913"><ele>522.6666666666666</ele><time>2026-04-18T12:11:58.708Z</time></trkpt><trkpt lat="41.8766752" lon="2.0347135"><ele>521.3333333333334</ele><time>2026-04-18T12:11:59.707Z</time></trkpt><trkpt lat="41.8765184" lon="2.0347331"><ele>520.0</ele><time>2026-04-18T12:12:00.707Z</time></trkpt><trkpt lat="41.8763747" lon="2.0347506"><ele>520.0</ele><time>2026-04-18T12:12:01.708Z</time></trkpt><trkpt lat="41.8762466" lon="2.0347659"><ele>520.0</ele><time>2026-04-18T12:12:02.708Z</time></trkpt><trkpt lat="41.8761302" lon="2.0347792"><ele>520.0</ele><time>2026-04-18T12:12:03.707Z</time></trkpt><trkpt lat="41.8760297" lon="2.0347922"><ele>520.0</ele><time>2026-04-18T12:12:04.708Z</time></trkpt><trkpt lat="41.8759395" lon="2.0348033"><ele>520.0</ele><time>2026-04-18T12:12:05.708Z</time></trkpt><trkpt lat="41.8758472" lon="2.0348162"><ele>519.2</ele><time>2026-04-18T12:12:06.708Z</time></trkpt><trkpt lat="41.8757449" lon="2.034834"><ele>518.4</ele><time>2026-04-18T12:12:07.708Z</time></trkpt><trkpt lat="41.8756371" lon="2.0348446"><ele>517.6</ele><time>2026-04-18T12:12:08.708Z</time></trkpt><trkpt lat="41.8755284" lon="2.0348506"><ele>516.8</ele><time>2026-04-18T12:12:09.708Z</time></trkpt><trkpt lat="41.8754243" lon="2.034845"><ele>516.0</ele><time>2026-04-18T12:12:10.708Z</time></trkpt><trkpt lat="41.8753315" lon="2.0348299"><ele>516.0</ele><time>2026-04-18T12:12:11.708Z</time></trkpt><trkpt lat="41.8752466" lon="2.0348042"><ele>516.0</ele><time>2026-04-18T12:12:12.708Z</time></trkpt><trkpt lat="41.8751718" lon="2.0347814"><ele>516.0</ele><time>2026-04-18T12:12:13.708Z</time></trkpt><trkpt lat="41.8750977" lon="2.0347607"><ele>516.0</ele><time>2026-04-18T12:12:14.707Z</time></trkpt><trkpt lat="41.8750166" lon="2.0347368"><ele>516.0</ele><time>2026-04-18T12:12:15.707Z</time></trkpt><trkpt lat="41.8749245" lon="2.0347093"><ele>516.0</ele><time>2026-04-18T12:12:16.708Z</time></trkpt><trkpt lat="41.8748245" lon="2.0346808"><ele>515.4</ele><time>2026-04-18T12:12:17.707Z</time></trkpt><trkpt lat="41.8747216" lon="2.0346551"><ele>514.8</ele><time>2026-04-18T12:12:18.707Z</time></trkpt><trkpt lat="41.8746226" lon="2.0346397"><ele>514.1999999999999</ele><time>2026-04-18T12:12:19.708Z</time></trkpt><trkpt lat="41.8745322" lon="2.0346514"><ele>513.6</ele><time>2026-04-18T12:12:20.708Z</time></trkpt><trkpt lat="41.8744492" lon="2.0346831"><ele>513.0</ele><time>2026-04-18T12:12:21.708Z</time></trkpt><trkpt lat="41.8743818" lon="2.0347176"><ele>513.0</ele><time>2026-04-18T12:12:22.708Z</time></trkpt><trkpt lat="41.8742916" lon="2.0347963"><ele>513.0</ele><time>2026-04-18T12:12:24.708Z</time></trkpt><trkpt lat="41.8742269" lon="2.0348459"><ele>507.0</ele><time>2026-04-18T12:12:26.708Z</time></trkpt><trkpt lat="41.8742217" lon="2.0349315"><ele>507.0</ele><time>2026-04-18T12:14:55.707Z</time></trkpt><trkpt lat="41.8742244" lon="2.0350569"><ele>513.0</ele><time>2026-04-18T12:24:57.707Z</time></trkpt></trkseg><trkseg><trkpt lat="41.8743203" lon="2.0348679"><ele>513.0</ele><time>2026-04-18T14:33:00.346Z</time></trkpt><trkpt lat="41.8743849" lon="2.0347936"><ele>513.0</ele><time>2026-04-18T14:33:01.345Z</time></trkpt><trkpt lat="41.8744407" lon="2.0347475"><ele>513.0</ele><time>2026-04-18T14:33:02.345Z</time></trkpt><trkpt lat="41.8745676" lon="2.0346918"><ele>513.0</ele><time>2026-04-18T14:33:04.345Z</time></trkpt><trkpt lat="41.8746447" lon="2.0346794"><ele>513.0</ele><time>2026-04-18T14:33:05.345Z</time></trkpt><trkpt lat="41.8747245" lon="2.0346832"><ele>513.0</ele><time>2026-04-18T14:33:06.344Z</time></trkpt><trkpt lat="41.8748035" lon="2.0347001"><ele>513.0</ele><time>2026-04-18T14:33:07.345Z</time></trkpt><trkpt lat="41.8748796" lon="2.0347214"><ele>513.0</ele><time>2026-04-18T14:33:08.344Z</time></trkpt><trkpt lat="41.8749474" lon="2.0347445"><ele>513.0</ele><time>2026-04-18T14:33:09.344Z</time></trkpt><trkpt lat="41.8750131" lon="2.0347638"><ele>513.0</ele><time>2026-04-18T14:33:10.345Z</time></trkpt><trkpt lat="41.8750762" lon="2.0347824"><ele>513.0</ele><time>2026-04-18T14:33:11.344Z</time></trkpt><trkpt lat="41.8751973" lon="2.0348189"><ele>513.0</ele><time>2026-04-18T14:33:13.345Z</time></trkpt><trkpt lat="41.8752626" lon="2.0348376"><ele>513.5</ele><time>2026-04-18T14:33:14.345Z</time></trkpt><trkpt lat="41.8753382" lon="2.0348518"><ele>514.0</ele><time>2026-04-18T14:33:15.345Z</time></trkpt><trkpt lat="41.8754188" lon="2.0348639"><ele>514.5</ele><time>2026-04-18T14:33:16.345Z</time></trkpt><trkpt lat="41.875498" lon="2.0348691"><ele>515.0</ele><time>2026-04-18T14:33:17.345Z</time></trkpt><trkpt lat="41.8755747" lon="2.0348663"><ele>515.5</ele><time>2026-04-18T14:33:18.345Z</time></trkpt><trkpt lat="41.875651" lon="2.0348644"><ele>516.0</ele><time>2026-04-18T14:33:19.345Z</time></trkpt><trkpt lat="41.8757247" lon="2.0348603"><ele>515.9999999999999</ele><time>2026-04-18T14:33:20.345Z</time></trkpt><trkpt lat="41.8757962" lon="2.0348545"><ele>516.0</ele><time>2026-04-18T14:33:21.345Z</time></trkpt><trkpt lat="41.8758665" lon="2.0348522"><ele>516.0</ele><time>2026-04-18T14:33:22.344Z</time></trkpt><trkpt lat="41.8759344" lon="2.0348444"><ele>516.0</ele><time>2026-04-18T14:33:23.345Z</time></trkpt><trkpt lat="41.8760028" lon="2.0348329"><ele>516.0</ele><time>2026-04-18T14:33:24.345Z</time></trkpt><trkpt lat="41.8760764" lon="2.034823"><ele>515.9999999999999</ele><time>2026-04-18T14:33:25.346Z</time></trkpt><trkpt lat="41.8761602" lon="2.0348125"><ele>516.0</ele><time>2026-04-18T14:33:26.346Z</time></trkpt><trkpt lat="41.8762462" lon="2.0347992"><ele>516.8</ele><time>2026-04-18T14:33:27.344Z</time></trkpt><trkpt lat="41.8763367" lon="2.0347877"><ele>517.6</ele><time>2026-04-18T14:33:28.345Z</time></trkpt><trkpt lat="41.8764322" lon="2.0347739"><ele>518.4</ele><time>2026-04-18T14:33:29.346Z</time></trkpt><trkpt lat="41.8765322" lon="2.0347626"><ele>519.2</ele><time>2026-04-18T14:33:30.345Z</time></trkpt><trkpt lat="41.8766388" lon="2.0347519"><ele>520.0</ele><time>2026-04-18T14:33:31.345Z</time></trkpt><trkpt lat="41.8767495" lon="2.0347399"><ele>521.0</ele><time>2026-04-18T14:33:32.345Z</time></trkpt><trkpt lat="41.8768582" lon="2.0347264"><ele>522.0</ele><time>2026-04-18T14:33:33.345Z</time></trkpt><trkpt lat="41.8769723" lon="2.0347096"><ele>523.0</ele><time>2026-04-18T14:33:34.344Z</time></trkpt><trkpt lat="41.8770902" lon="2.0346974"><ele>524.0</ele><time>2026-04-18T14:33:35.345Z</time></trkpt><trkpt lat="41.8772108" lon="2.0346809"><ele>524.0</ele><time>2026-04-18T14:33:36.344Z</time></trkpt><trkpt lat="41.877332" lon="2.0346597"><ele>524.0</ele><time>2026-04-18T14:33:37.344Z</time></trkpt><trkpt lat="41.8774541" lon="2.0346293"><ele>524.0</ele><time>2026-04-18T14:33:38.345Z</time></trkpt><trkpt lat="41.8775742" lon="2.0345786"><ele>524.0</ele><time>2026-04-18T14:33:39.345Z</time></trkpt><trkpt lat="41.8776911" lon="2.0345139"><ele>525.5</ele><time>2026-04-18T14:33:40.344Z</time></trkpt><trkpt lat="41.8778078" lon="2.0344449"><ele>527.0</ele><time>2026-04-18T14:33:41.345Z</time></trkpt><trkpt lat="41.8779294" lon="2.0343763"><ele>528.5</ele><time>2026-04-18T14:33:42.346Z</time></trkpt><trkpt lat="41.8780543" lon="2.034318"><ele>530.0</ele><time>2026-04-18T14:33:43.344Z</time></trkpt><trkpt lat="41.8781853" lon="2.03427"><ele>530.0</ele><time>2026-04-18T14:33:44.344Z</time></trkpt><trkpt lat="41.8783202" lon="2.0342217"><ele>530.0</ele><time>2026-04-18T14:33:45.345Z</time></trkpt><trkpt lat="41.8784562" lon="2.034172"><ele>530.0</ele><time>2026-04-18T14:33:46.344Z</time></trkpt><trkpt lat="41.8785919" lon="2.034121"><ele>530.0</ele><time>2026-04-18T14:33:47.344Z</time></trkpt><trkpt lat="41.8787176" lon="2.0340818"><ele>530.5</ele><time>2026-04-18T14:33:48.345Z</time></trkpt><trkpt lat="41.8788406" lon="2.0340729"><ele>531.0</ele><time>2026-04-18T14:33:49.345Z</time></trkpt><trkpt lat="41.8789628" lon="2.0341084"><ele>531.5</ele><time>2026-04-18T14:33:50.344Z</time></trkpt><trkpt lat="41.879084" lon="2.034181"><ele>532.0</ele><time>2026-04-18T14:33:51.346Z</time></trkpt><trkpt lat="41.8792094" lon="2.0342706"><ele>534.75</ele><time>2026-04-18T14:33:52.344Z</time></trkpt><trkpt lat="41.8793447" lon="2.0343659"><ele>537.5</ele><time>2026-04-18T14:33:53.344Z</time></trkpt><trkpt lat="41.8794738" lon="2.0344431"><ele>540.25</ele><time>2026-04-18T14:33:54.345Z</time></trkpt><trkpt lat="41.8795995" lon="2.0344858"><ele>543.0</ele><time>2026-04-18T14:33:55.345Z</time></trkpt><trkpt lat="41.8797262" lon="2.0344829"><ele>543.0</ele><time>2026-04-18T14:33:56.345Z</time></trkpt><trkpt lat="41.8798479" lon="2.0344225"><ele>543.0</ele><time>2026-04-18T14:33:57.345Z</time></trkpt><trkpt lat="41.8799655" lon="2.0343118"><ele>543.0</ele><time>2026-04-18T14:33:58.346Z</time></trkpt><trkpt lat="41.8800809" lon="2.0341833"><ele>543.0</ele><time>2026-04-18T14:33:59.346Z</time></trkpt><trkpt lat="41.8802002" lon="2.0340883"><ele>542.75</ele><time>2026-04-18T14:34:00.344Z</time></trkpt><trkpt lat="41.8803302" lon="2.0340441"><ele>542.5</ele><time>2026-04-18T14:34:01.344Z</time></trkpt><trkpt lat="41.880472" lon="2.0340409"><ele>542.25</ele><time>2026-04-18T14:34:02.345Z</time></trkpt><trkpt lat="41.8806262" lon="2.0340532"><ele>542.0</ele><time>2026-04-18T14:34:03.345Z</time></trkpt><trkpt lat="41.8807955" lon="2.0340755"><ele>544.0</ele><time>2026-04-18T14:34:04.344Z</time></trkpt><trkpt lat="41.8809701" lon="2.0341039"><ele>546.0</ele><time>2026-04-18T14:34:05.345Z</time></trkpt><trkpt lat="41.8811255" lon="2.0341303"><ele>548.0</ele><time>2026-04-18T14:34:06.345Z</time></trkpt><trkpt lat="41.8812736" lon="2.0341583"><ele>548.5</ele><time>2026-04-18T14:34:07.344Z</time></trkpt><trkpt lat="41.88141" lon="2.0342014"><ele>549.0</ele><time>2026-04-18T14:34:08.344Z</time></trkpt><trkpt lat="41.881535" lon="2.0342816"><ele>549.5</ele><time>2026-04-18T14:34:09.344Z</time></trkpt><trkpt lat="41.8816469" lon="2.0344021"><ele>550.0</ele><time>2026-04-18T14:34:10.345Z</time></trkpt><trkpt lat="41.8817336" lon="2.0345579"><ele>552.5</ele><time>2026-04-18T14:34:11.345Z</time></trkpt><trkpt lat="41.8818068" lon="2.0347401"><ele>555.0</ele><time>2026-04-18T14:34:12.345Z</time></trkpt><trkpt lat="41.8818766" lon="2.0349162"><ele>557.5</ele><time>2026-04-18T14:34:13.345Z</time></trkpt><trkpt lat="41.8819514" lon="2.0350504"><ele>560.0</ele><time>2026-04-18T14:34:14.344Z</time></trkpt><trkpt lat="41.882046" lon="2.0351373"><ele>560.0</ele><time>2026-04-18T14:34:15.344Z</time></trkpt><trkpt lat="41.8821555" lon="2.0351747"><ele>560.0</ele><time>2026-04-18T14:34:16.345Z</time></trkpt><trkpt lat="41.8822689" lon="2.0351604"><ele>560.0</ele><time>2026-04-18T14:34:17.345Z</time></trkpt><trkpt lat="41.8823699" lon="2.035095"><ele>560.0</ele><time>2026-04-18T14:34:18.345Z</time></trkpt><trkpt lat="41.8824499" lon="2.0349804"><ele>560.0</ele><time>2026-04-18T14:34:19.345Z</time></trkpt><trkpt lat="41.8825006" lon="2.0348382"><ele>560.0</ele><time>2026-04-18T14:34:20.345Z</time></trkpt><trkpt lat="41.8825254" lon="2.0346728"><ele>560.0</ele><time>2026-04-18T14:34:21.345Z</time></trkpt><trkpt lat="41.8825422" lon="2.0345"><ele>560.0</ele><time>2026-04-18T14:34:22.345Z</time></trkpt><trkpt lat="41.8825842" lon="2.0343644"><ele>562.6666666666666</ele><time>2026-04-18T14:34:23.346Z</time></trkpt><trkpt lat="41.8826507" lon="2.034271"><ele>565.3333333333333</ele><time>2026-04-18T14:34:24.344Z</time></trkpt><trkpt lat="41.8827342" lon="2.0342335"><ele>568.0</ele><time>2026-04-18T14:34:25.344Z</time></trkpt><trkpt lat="41.8828124" lon="2.0342474"><ele>570.6666666666666</ele><time>2026-04-18T14:34:26.345Z</time></trkpt><trkpt lat="41.8828771" lon="2.034308"><ele>573.3333333333334</ele><time>2026-04-18T14:34:27.344Z</time></trkpt><trkpt lat="41.8829246" lon="2.0343989"><ele>576.0</ele><time>2026-04-18T14:34:28.344Z</time></trkpt><trkpt lat="41.8829666" lon="2.0345164"><ele>576.0</ele><time>2026-04-18T14:34:29.345Z</time></trkpt><trkpt lat="41.8830084" lon="2.0346547"><ele>576.0</ele><time>2026-04-18T14:34:30.346Z</time></trkpt><trkpt lat="41.8830548" lon="2.0348035"><ele>576.0</ele><time>2026-04-18T14:34:31.345Z</time></trkpt><trkpt lat="41.8831078" lon="2.0349587"><ele>576.0</ele><time>2026-04-18T14:34:32.345Z</time></trkpt><trkpt lat="41.8831638" lon="2.0351201"><ele>575.5</ele><time>2026-04-18T14:34:33.345Z</time></trkpt><trkpt lat="41.8832245" lon="2.035292"><ele>575.0</ele><time>2026-04-18T14:34:34.345Z</time></trkpt><trkpt lat="41.8832901" lon="2.0354733"><ele>574.5</ele><time>2026-04-18T14:34:35.345Z</time></trkpt><trkpt lat="41.8833594" lon="2.0356631"><ele>574.0</ele><time>2026-04-18T14:34:36.345Z</time></trkpt><trkpt lat="41.8834298" lon="2.0358597"><ele>577.3333333333334</ele><time>2026-04-18T14:34:37.344Z</time></trkpt><trkpt lat="41.8834981" lon="2.036063"><ele>580.6666666666666</ele><time>2026-04-18T14:34:38.345Z</time></trkpt><trkpt lat="41.8835633" lon="2.0362732"><ele>584.0</ele><time>2026-04-18T14:34:39.346Z</time></trkpt><trkpt lat="41.8836229" lon="2.0364899"><ele>583.6666666666666</ele><time>2026-04-18T14:34:40.345Z</time></trkpt><trkpt lat="41.8836728" lon="2.0367104"><ele>583.3333333333334</ele><time>2026-04-18T14:34:41.344Z</time></trkpt><trkpt lat="41.883714" lon="2.0369322"><ele>583.0</ele><time>2026-04-18T14:34:42.345Z</time></trkpt><trkpt lat="41.8837497" lon="2.0371572"><ele>583.0</ele><time>2026-04-18T14:34:43.345Z</time></trkpt><trkpt lat="41.8837822" lon="2.0373845"><ele>583.0</ele><time>2026-04-18T14:34:44.344Z</time></trkpt><trkpt lat="41.8838144" lon="2.0376102"><ele>583.0</ele><time>2026-04-18T14:34:45.345Z</time></trkpt><trkpt lat="41.8838452" lon="2.037834"><ele>584.3333333333334</ele><time>2026-04-18T14:34:46.345Z</time></trkpt><trkpt lat="41.8838763" lon="2.0380589"><ele>585.6666666666666</ele><time>2026-04-18T14:34:47.345Z</time></trkpt><trkpt lat="41.8839028" lon="2.0382868"><ele>587.0</ele><time>2026-04-18T14:34:48.345Z</time></trkpt><trkpt lat="41.8839306" lon="2.0385153"><ele>590.0</ele><time>2026-04-18T14:34:49.344Z</time></trkpt><trkpt lat="41.8839572" lon="2.0387435"><ele>593.0</ele><time>2026-04-18T14:34:50.345Z</time></trkpt><trkpt lat="41.8839851" lon="2.0389728"><ele>596.0</ele><time>2026-04-18T14:34:51.345Z</time></trkpt><trkpt lat="41.8840116" lon="2.0392051"><ele>596.0</ele><time>2026-04-18T14:34:52.345Z</time></trkpt><trkpt lat="41.8840402" lon="2.0394363"><ele>596.0</ele><time>2026-04-18T14:34:53.346Z</time></trkpt><trkpt lat="41.8840665" lon="2.0396721"><ele>596.0</ele><time>2026-04-18T14:34:54.345Z</time></trkpt><trkpt lat="41.8840891" lon="2.0399114"><ele>596.6666666666666</ele><time>2026-04-18T14:34:55.345Z</time></trkpt><trkpt lat="41.884111" lon="2.040158"><ele>597.3333333333334</ele><time>2026-04-18T14:34:56.345Z</time></trkpt><trkpt lat="41.8841305" lon="2.0404122"><ele>598.0</ele><time>2026-04-18T14:34:57.345Z</time></trkpt><trkpt lat="41.8841472" lon="2.0406753"><ele>600.0</ele><time>2026-04-18T14:34:58.346Z</time></trkpt><trkpt lat="41.8841645" lon="2.0409413"><ele>602.0</ele><time>2026-04-18T14:34:59.346Z</time></trkpt><trkpt lat="41.8841816" lon="2.0412143"><ele>604.0</ele><time>2026-04-18T14:35:00.345Z</time></trkpt><trkpt lat="41.8842013" lon="2.0414741"><ele>602.0</ele><time>2026-04-18T14:35:01.346Z</time></trkpt><trkpt lat="41.884218" lon="2.0417208"><ele>600.0</ele><time>2026-04-18T14:35:02.344Z</time></trkpt><trkpt lat="41.8842378" lon="2.041965"><ele>598.0</ele><time>2026-04-18T14:35:03.345Z</time></trkpt><trkpt lat="41.8842619" lon="2.0422121"><ele>597.0</ele><time>2026-04-18T14:35:04.345Z</time></trkpt><trkpt lat="41.8842938" lon="2.0424661"><ele>596.0</ele><time>2026-04-18T14:35:05.345Z</time></trkpt><trkpt lat="41.8843349" lon="2.0427278"><ele>595.0</ele><time>2026-04-18T14:35:06.345Z</time></trkpt><trkpt lat="41.8843856" lon="2.0429927"><ele>595.0</ele><time>2026-04-18T14:35:07.346Z</time></trkpt><trkpt lat="41.8844486" lon="2.043254"><ele>595.0</ele><time>2026-04-18T14:35:08.345Z</time></trkpt><trkpt lat="41.8845279" lon="2.0435134"><ele>595.0</ele><time>2026-04-18T14:35:09.345Z</time></trkpt><trkpt lat="41.8846274" lon="2.0437702"><ele>594.6666666666667</ele><time>2026-04-18T14:35:10.344Z</time></trkpt><trkpt lat="41.8847446" lon="2.0440199"><ele>594.3333333333334</ele><time>2026-04-18T14:35:11.344Z</time></trkpt><trkpt lat="41.8848805" lon="2.044265"><ele>594.0</ele><time>2026-04-18T14:35:12.345Z</time></trkpt><trkpt lat="41.8850289" lon="2.0445054"><ele>598.0</ele><time>2026-04-18T14:35:13.344Z</time></trkpt><trkpt lat="41.8851825" lon="2.0447453"><ele>602.0</ele><time>2026-04-18T14:35:14.344Z</time></trkpt><trkpt lat="41.8853415" lon="2.044998"><ele>603.0</ele><time>2026-04-18T14:35:15.345Z</time></trkpt><trkpt lat="41.8854911" lon="2.0452699"><ele>604.0</ele><time>2026-04-18T14:35:16.345Z</time></trkpt><trkpt lat="41.8856318" lon="2.0455628"><ele>606.0</ele><time>2026-04-18T14:35:17.344Z</time></trkpt><trkpt lat="41.8857596" lon="2.0458681"><ele>608.0</ele><time>2026-04-18T14:35:18.345Z</time></trkpt><trkpt lat="41.8858807" lon="2.0461835"><ele>604.5</ele><time>2026-04-18T14:35:19.345Z</time></trkpt><trkpt lat="41.8860029" lon="2.0465014"><ele>601.0</ele><time>2026-04-18T14:35:20.345Z</time></trkpt><trkpt lat="41.8861235" lon="2.0468242"><ele>601.0</ele><time>2026-04-18T14:35:21.345Z</time></trkpt><trkpt lat="41.8862448" lon="2.0471482"><ele>601.0</ele><time>2026-04-18T14:35:22.345Z</time></trkpt><trkpt lat="41.8863681" lon="2.0474728"><ele>605.0</ele><time>2026-04-18T14:35:23.345Z</time></trkpt><trkpt lat="41.886494" lon="2.0477946"><ele>609.0</ele><time>2026-04-18T14:35:24.345Z</time></trkpt><trkpt lat="41.8866216" lon="2.0481224"><ele>607.0</ele><time>2026-04-18T14:35:25.345Z</time></trkpt><trkpt lat="41.8867509" lon="2.0484437"><ele>605.0</ele><time>2026-04-18T14:35:26.345Z</time></trkpt><trkpt lat="41.8868815" lon="2.0487678"><ele>605.5</ele><time>2026-04-18T14:35:27.346Z</time></trkpt><trkpt lat="41.8870136" lon="2.0490924"><ele>606.0</ele><time>2026-04-18T14:35:28.345Z</time></trkpt><trkpt lat="41.8871396" lon="2.0494172"><ele>606.0</ele><time>2026-04-18T14:35:29.345Z</time></trkpt><trkpt lat="41.8872649" lon="2.0497441"><ele>606.0</ele><time>2026-04-18T14:35:30.345Z</time></trkpt><trkpt lat="41.8873864" lon="2.0500761"><ele>606.5</ele><time>2026-04-18T14:35:31.345Z</time></trkpt><trkpt lat="41.8875031" lon="2.0504089"><ele>607.0</ele><time>2026-04-18T14:35:32.345Z</time></trkpt><trkpt lat="41.8876193" lon="2.0507478"><ele>606.5</ele><time>2026-04-18T14:35:33.345Z</time></trkpt><trkpt lat="41.8877288" lon="2.0510889"><ele>606.0</ele><time>2026-04-18T14:35:34.345Z</time></trkpt><trkpt lat="41.887832" lon="2.0514326"><ele>611.0</ele><time>2026-04-18T14:35:35.346Z</time></trkpt><trkpt lat="41.8879321" lon="2.0517809"><ele>616.0</ele><time>2026-04-18T14:35:36.344Z</time></trkpt><trkpt lat="41.8880262" lon="2.0521355"><ele>618.0</ele><time>2026-04-18T14:35:37.345Z</time></trkpt><trkpt lat="41.8881113" lon="2.0524884"><ele>620.0</ele><time>2026-04-18T14:35:38.344Z</time></trkpt><trkpt lat="41.8881905" lon="2.052849"><ele>620.0</ele><time>2026-04-18T14:35:39.346Z</time></trkpt><trkpt lat="41.8882687" lon="2.0532044"><ele>620.0</ele><time>2026-04-18T14:35:40.345Z</time></trkpt><trkpt lat="41.888345" lon="2.0535631"><ele>620.5</ele><time>2026-04-18T14:35:41.345Z</time></trkpt><trkpt lat="41.8884209" lon="2.0539255"><ele>621.0</ele><time>2026-04-18T14:35:42.345Z</time></trkpt><trkpt lat="41.8884947" lon="2.0542879"><ele>623.5</ele><time>2026-04-18T14:35:43.344Z</time></trkpt><trkpt lat="41.8885717" lon="2.0546476"><ele>626.0</ele><time>2026-04-18T14:35:44.345Z</time></trkpt><trkpt lat="41.8886489" lon="2.05501"><ele>626.0</ele><time>2026-04-18T14:35:45.345Z</time></trkpt><trkpt lat="41.8887246" lon="2.0553707"><ele>626.0</ele><time>2026-04-18T14:35:46.345Z</time></trkpt><trkpt lat="41.8888048" lon="2.0557292"><ele>628.0</ele><time>2026-04-18T14:35:47.345Z</time></trkpt><trkpt lat="41.8888855" lon="2.0560988"><ele>630.0</ele><time>2026-04-18T14:35:48.345Z</time></trkpt><trkpt lat="41.8889595" lon="2.056454"><ele>629.5</ele><time>2026-04-18T14:35:49.345Z</time></trkpt><trkpt lat="41.8890348" lon="2.05682"><ele>629.0</ele><time>2026-04-18T14:35:50.345Z</time></trkpt><trkpt lat="41.8891087" lon="2.0571827"><ele>628.0</ele><time>2026-04-18T14:35:51.345Z</time></trkpt><trkpt lat="41.8891782" lon="2.0575483"><ele>627.0</ele><time>2026-04-18T14:35:52.345Z</time></trkpt><trkpt lat="41.8892449" lon="2.0579126"><ele>627.5</ele><time>2026-04-18T14:35:53.346Z</time></trkpt><trkpt lat="41.8893138" lon="2.0582755"><ele>628.0</ele><time>2026-04-18T14:35:54.345Z</time></trkpt><trkpt lat="41.8893877" lon="2.0586364"><ele>628.0</ele><time>2026-04-18T14:35:55.345Z</time></trkpt><trkpt lat="41.8894628" lon="2.0589976"><ele>628.0</ele><time>2026-04-18T14:35:56.345Z</time></trkpt><trkpt lat="41.8895413" lon="2.0593538"><ele>628.5</ele><time>2026-04-18T14:35:57.345Z</time></trkpt><trkpt lat="41.8896192" lon="2.0597089"><ele>629.0</ele><time>2026-04-18T14:35:58.346Z</time></trkpt><trkpt lat="41.8897013" lon="2.060064"><ele>627.5</ele><time>2026-04-18T14:35:59.345Z</time></trkpt><trkpt lat="41.889785" lon="2.0604182"><ele>626.0</ele><time>2026-04-18T14:36:00.346Z</time></trkpt><trkpt lat="41.8898734" lon="2.0607687"><ele>626.5</ele><time>2026-04-18T14:36:01.344Z</time></trkpt><trkpt lat="41.8899682" lon="2.0611134"><ele>627.0</ele><time>2026-04-18T14:36:02.345Z</time></trkpt><trkpt lat="41.8900684" lon="2.0614577"><ele>634.0</ele><time>2026-04-18T14:36:03.345Z</time></trkpt><trkpt lat="41.890179" lon="2.0617968"><ele>641.0</ele><time>2026-04-18T14:36:04.345Z</time></trkpt><trkpt lat="41.8902954" lon="2.0621353"><ele>647.0</ele><time>2026-04-18T14:36:05.345Z</time></trkpt><trkpt lat="41.8904188" lon="2.0624704"><ele>653.0</ele><time>2026-04-18T14:36:06.345Z</time></trkpt><trkpt lat="41.8905489" lon="2.0628057"><ele>653.0</ele><time>2026-04-18T14:36:07.345Z</time></trkpt><trkpt lat="41.890687" lon="2.0631388"><ele>653.0</ele><time>2026-04-18T14:36:08.344Z</time></trkpt><trkpt lat="41.8908296" lon="2.0634628"><ele>656.0</ele><time>2026-04-18T14:36:09.345Z</time></trkpt><trkpt lat="41.8909786" lon="2.0637849"><ele>659.0</ele><time>2026-04-18T14:36:10.344Z</time></trkpt><trkpt lat="41.8911363" lon="2.0641011"><ele>657.5</ele><time>2026-04-18T14:36:11.345Z</time></trkpt><trkpt lat="41.8912978" lon="2.0644128"><ele>656.0</ele><time>2026-04-18T14:36:12.345Z</time></trkpt><trkpt lat="41.8914637" lon="2.0647223"><ele>652.5</ele><time>2026-04-18T14:36:13.344Z</time></trkpt><trkpt lat="41.8916278" lon="2.0650271"><ele>649.0</ele><time>2026-04-18T14:36:14.345Z</time></trkpt><trkpt lat="41.8917962" lon="2.065333"><ele>649.5</ele><time>2026-04-18T14:36:15.345Z</time></trkpt><trkpt lat="41.8919588" lon="2.0656417"><ele>650.0</ele><time>2026-04-18T14:36:16.345Z</time></trkpt><trkpt lat="41.8921216" lon="2.0659499"><ele>650.0</ele><time>2026-04-18T14:36:17.344Z</time></trkpt><trkpt lat="41.8922836" lon="2.0662594"><ele>650.0</ele><time>2026-04-18T14:36:18.346Z</time></trkpt><trkpt lat="41.8924457" lon="2.0665676"><ele>650.0</ele><time>2026-04-18T14:36:19.345Z</time></trkpt><trkpt lat="41.8926112" lon="2.0668776"><ele>650.0</ele><time>2026-04-18T14:36:20.346Z</time></trkpt><trkpt lat="41.8927739" lon="2.0671862"><ele>653.0</ele><time>2026-04-18T14:36:21.345Z</time></trkpt><trkpt lat="41.8929279" lon="2.0675009"><ele>656.0</ele><time>2026-04-18T14:36:22.344Z</time></trkpt><trkpt lat="41.89307" lon="2.0678224"><ele>656.0</ele><time>2026-04-18T14:36:23.345Z</time></trkpt><trkpt lat="41.8932017" lon="2.0681535"><ele>656.0</ele><time>2026-04-18T14:36:24.345Z</time></trkpt><trkpt lat="41.893323" lon="2.0684925"><ele>658.0</ele><time>2026-04-18T14:36:25.345Z</time></trkpt><trkpt lat="41.8934339" lon="2.0688303"><ele>660.0</ele><time>2026-04-18T14:36:26.344Z</time></trkpt><trkpt lat="41.8935363" lon="2.0691781"><ele>660.5</ele><time>2026-04-18T14:36:27.344Z</time></trkpt><trkpt lat="41.8936294" lon="2.0695317"><ele>661.0</ele><time>2026-04-18T14:36:28.344Z</time></trkpt><trkpt lat="41.8937151" lon="2.0698951"><ele>661.5</ele><time>2026-04-18T14:36:29.345Z</time></trkpt><trkpt lat="41.8937922" lon="2.0702566"><ele>662.0</ele><time>2026-04-18T14:36:30.346Z</time></trkpt><trkpt lat="41.893868" lon="2.0706204"><ele>665.0</ele><time>2026-04-18T14:36:31.344Z</time></trkpt><trkpt lat="41.8939432" lon="2.0709865"><ele>668.0</ele><time>2026-04-18T14:36:32.344Z</time></trkpt><trkpt lat="41.8940199" lon="2.0713488"><ele>670.5</ele><time>2026-04-18T14:36:33.344Z</time></trkpt><trkpt lat="41.894098" lon="2.0717133"><ele>673.0</ele><time>2026-04-18T14:36:34.345Z</time></trkpt><trkpt lat="41.8941793" lon="2.0720712"><ele>674.5</ele><time>2026-04-18T14:36:35.345Z</time></trkpt><trkpt lat="41.8942665" lon="2.0724295"><ele>676.0</ele><time>2026-04-18T14:36:36.345Z</time></trkpt><trkpt lat="41.8943606" lon="2.0727831"><ele>677.0</ele><time>2026-04-18T14:36:37.344Z</time></trkpt><trkpt lat="41.8944637" lon="2.0731343"><ele>678.0</ele><time>2026-04-18T14:36:38.344Z</time></trkpt><trkpt lat="41.8945778" lon="2.0734808"><ele>678.0</ele><time>2026-04-18T14:36:39.344Z</time></trkpt><trkpt lat="41.8947031" lon="2.0738227"><ele>678.0</ele><time>2026-04-18T14:36:40.344Z</time></trkpt><trkpt lat="41.8948398" lon="2.074156"><ele>677.5</ele><time>2026-04-18T14:36:41.344Z</time></trkpt><trkpt lat="41.8949856" lon="2.0744894"><ele>677.0</ele><time>2026-04-18T14:36:42.344Z</time></trkpt><trkpt lat="41.8951412" lon="2.0748135"><ele>678.5</ele><time>2026-04-18T14:36:43.345Z</time></trkpt><trkpt lat="41.8953053" lon="2.0751342"><ele>680.0</ele><time>2026-04-18T14:36:44.345Z</time></trkpt><trkpt lat="41.8954799" lon="2.0754397"><ele>680.0</ele><time>2026-04-18T14:36:45.344Z</time></trkpt><trkpt lat="41.8956609" lon="2.0757438"><ele>680.0</ele><time>2026-04-18T14:36:46.344Z</time></trkpt><trkpt lat="41.8958455" lon="2.0760357"><ele>683.5</ele><time>2026-04-18T14:36:47.345Z</time></trkpt><trkpt lat="41.8960355" lon="2.0763242"><ele>687.0</ele><time>2026-04-18T14:36:48.344Z</time></trkpt><trkpt lat="41.8962236" lon="2.076612"><ele>687.0</ele><time>2026-04-18T14:36:49.344Z</time></trkpt><trkpt lat="41.8964086" lon="2.076902"><ele>687.0</ele><time>2026-04-18T14:36:50.344Z</time></trkpt><trkpt lat="41.8965897" lon="2.0771952"><ele>689.0</ele><time>2026-04-18T14:36:51.344Z</time></trkpt><trkpt lat="41.8967669" lon="2.0774984"><ele>691.0</ele><time>2026-04-18T14:36:52.346Z</time></trkpt><trkpt lat="41.8969352" lon="2.0778072"><ele>691.0</ele><time>2026-04-18T14:36:53.345Z</time></trkpt><trkpt lat="41.8970901" lon="2.0781307"><ele>691.0</ele><time>2026-04-18T14:36:54.344Z</time></trkpt><trkpt lat="41.8972405" lon="2.0784591"><ele>695.5</ele><time>2026-04-18T14:36:55.344Z</time></trkpt><trkpt lat="41.8973841" lon="2.0787932"><ele>700.0</ele><time>2026-04-18T14:36:56.345Z</time></trkpt><trkpt lat="41.8975171" lon="2.0791342"><ele>693.5</ele><time>2026-04-18T14:36:57.345Z</time></trkpt><trkpt lat="41.897643" lon="2.0794798"><ele>687.0</ele><time>2026-04-18T14:36:58.345Z</time></trkpt><trkpt lat="41.8977617" lon="2.0798253"><ele>689.0</ele><time>2026-04-18T14:36:59.346Z</time></trkpt><trkpt lat="41.8978792" lon="2.0801746"><ele>691.0</ele><time>2026-04-18T14:37:00.345Z</time></trkpt><trkpt lat="41.8979948" lon="2.0805254"><ele>695.5</ele><time>2026-04-18T14:37:01.345Z</time></trkpt><trkpt lat="41.8981086" lon="2.0808724"><ele>700.0</ele><time>2026-04-18T14:37:02.345Z</time></trkpt><trkpt lat="41.8982257" lon="2.0812196"><ele>700.0</ele><time>2026-04-18T14:37:03.345Z</time></trkpt><trkpt lat="41.8983421" lon="2.0815685"><ele>700.0</ele><time>2026-04-18T14:37:04.345Z</time></trkpt><trkpt lat="41.8984601" lon="2.0819201"><ele>697.0</ele><time>2026-04-18T14:37:05.345Z</time></trkpt><trkpt lat="41.8985774" lon="2.0822717"><ele>694.0</ele><time>2026-04-18T14:37:06.345Z</time></trkpt><trkpt lat="41.898694" lon="2.0826264"><ele>703.0</ele><time>2026-04-18T14:37:07.345Z</time></trkpt><trkpt lat="41.8988106" lon="2.0829867"><ele>712.0</ele><time>2026-04-18T14:37:08.345Z</time></trkpt><trkpt lat="41.8989267" lon="2.0833491"><ele>714.0</ele><time>2026-04-18T14:37:09.345Z</time></trkpt><trkpt lat="41.8990464" lon="2.0837095"><ele>716.0</ele><time>2026-04-18T14:37:10.345Z</time></trkpt><trkpt lat="41.8991703" lon="2.0840692"><ele>705.0</ele><time>2026-04-18T14:37:11.345Z</time></trkpt><trkpt lat="41.8993023" lon="2.0844238"><ele>694.0</ele><time>2026-04-18T14:37:12.346Z</time></trkpt><trkpt lat="41.8994437" lon="2.0847671"><ele>702.5</ele><time>2026-04-18T14:37:13.345Z</time></trkpt><trkpt lat="41.8996001" lon="2.0850989"><ele>711.0</ele><time>2026-04-18T14:37:14.345Z</time></trkpt><trkpt lat="41.8997592" lon="2.085426"><ele>711.0</ele><time>2026-04-18T14:37:15.345Z</time></trkpt><trkpt lat="41.8999248" lon="2.0857463"><ele>711.0</ele><time>2026-04-18T14:37:16.344Z</time></trkpt><trkpt lat="41.9000916" lon="2.086064"><ele>711.5</ele><time>2026-04-18T14:37:17.345Z</time></trkpt><trkpt lat="41.90026" lon="2.0863775"><ele>712.0</ele><time>2026-04-18T14:37:18.345Z</time></trkpt><trkpt lat="41.9004306" lon="2.0866897"><ele>717.0</ele><time>2026-04-18T14:37:19.345Z</time></trkpt><trkpt lat="41.9005972" lon="2.0870063"><ele>722.0</ele><time>2026-04-18T14:37:20.346Z</time></trkpt><trkpt lat="41.9007559" lon="2.0873272"><ele>722.5</ele><time>2026-04-18T14:37:21.345Z</time></trkpt><trkpt lat="41.9009069" lon="2.0876537"><ele>723.0</ele><time>2026-04-18T14:37:22.345Z</time></trkpt><trkpt lat="41.9010508" lon="2.0879894"><ele>722.5</ele><time>2026-04-18T14:37:23.344Z</time></trkpt><trkpt lat="41.9011857" lon="2.0883331"><ele>722.0</ele><time>2026-04-18T14:37:24.346Z</time></trkpt><trkpt lat="41.9013173" lon="2.0886792"><ele>722.0</ele><time>2026-04-18T14:37:25.344Z</time></trkpt><trkpt lat="41.9014499" lon="2.0890236"><ele>722.0</ele><time>2026-04-18T14:37:26.345Z</time></trkpt><trkpt lat="41.9015817" lon="2.0893713"><ele>721.5</ele><time>2026-04-18T14:37:27.345Z</time></trkpt><trkpt lat="41.9017116" lon="2.0897191"><ele>721.0</ele><time>2026-04-18T14:37:28.345Z</time></trkpt><trkpt lat="41.901835" lon="2.0900657"><ele>719.0</ele><time>2026-04-18T14:37:29.344Z</time></trkpt><trkpt lat="41.9019575" lon="2.090421"><ele>717.0</ele><time>2026-04-18T14:37:30.345Z</time></trkpt><trkpt lat="41.9020714" lon="2.0907757"><ele>716.5</ele><time>2026-04-18T14:37:31.345Z</time></trkpt><trkpt lat="41.9021768" lon="2.0911392"><ele>716.0</ele><time>2026-04-18T14:37:32.345Z</time></trkpt><trkpt lat="41.9022711" lon="2.0915081"><ele>716.5</ele><time>2026-04-18T14:37:33.345Z</time></trkpt><trkpt lat="41.9023528" lon="2.0918872"><ele>717.0</ele><time>2026-04-18T14:37:34.344Z</time></trkpt><trkpt lat="41.9024269" lon="2.0922659"><ele>717.0</ele><time>2026-04-18T14:37:35.345Z</time></trkpt><trkpt lat="41.902491" lon="2.0926486"><ele>717.0</ele><time>2026-04-18T14:37:36.345Z</time></trkpt><trkpt lat="41.902552" lon="2.09304"><ele>722.5</ele><time>2026-04-18T14:37:37.345Z</time></trkpt><trkpt lat="41.9026028" lon="2.0934264"><ele>728.0</ele><time>2026-04-18T14:37:38.345Z</time></trkpt><trkpt lat="41.9026465" lon="2.0938175"><ele>731.0</ele><time>2026-04-18T14:37:39.345Z</time></trkpt><trkpt lat="41.9026872" lon="2.0942072"><ele>734.0</ele><time>2026-04-18T14:37:40.345Z</time></trkpt><trkpt lat="41.902723" lon="2.0945973"><ele>735.5</ele><time>2026-04-18T14:37:41.345Z</time></trkpt><trkpt lat="41.9027584" lon="2.094988"><ele>737.0</ele><time>2026-04-18T14:37:42.345Z</time></trkpt><trkpt lat="41.9027892" lon="2.0953761"><ele>740.0</ele><time>2026-04-18T14:37:43.345Z</time></trkpt><trkpt lat="41.9028193" lon="2.0957668"><ele>743.0</ele><time>2026-04-18T14:37:44.345Z</time></trkpt><trkpt lat="41.9028536" lon="2.0961583"><ele>743.0</ele><time>2026-04-18T14:37:45.346Z</time></trkpt><trkpt lat="41.9028888" lon="2.0965487"><ele>743.0</ele><time>2026-04-18T14:37:46.345Z</time></trkpt><trkpt lat="41.9029191" lon="2.0969389"><ele>739.5</ele><time>2026-04-18T14:37:47.345Z</time></trkpt><trkpt lat="41.9029508" lon="2.0973277"><ele>736.0</ele><time>2026-04-18T14:37:48.344Z</time></trkpt><trkpt lat="41.9029801" lon="2.0977129"><ele>732.0</ele><time>2026-04-18T14:37:49.346Z</time></trkpt><trkpt lat="41.9030113" lon="2.0980983"><ele>728.0</ele><time>2026-04-18T14:37:50.346Z</time></trkpt><trkpt lat="41.90304" lon="2.0984818"><ele>728.0</ele><time>2026-04-18T14:37:51.345Z</time></trkpt><trkpt lat="41.9030694" lon="2.0988636"><ele>728.0</ele><time>2026-04-18T14:37:52.345Z</time></trkpt><trkpt lat="41.9030976" lon="2.0992459"><ele>728.0</ele><time>2026-04-18T14:37:53.345Z</time></trkpt><trkpt lat="41.9031268" lon="2.0996241"><ele>728.0</ele><time>2026-04-18T14:37:54.346Z</time></trkpt><trkpt lat="41.9031587" lon="2.1000015"><ele>729.5</ele><time>2026-04-18T14:37:55.345Z</time></trkpt><trkpt lat="41.9031882" lon="2.1003803"><ele>731.0</ele><time>2026-04-18T14:37:56.345Z</time></trkpt><trkpt lat="41.9032182" lon="2.1007585"><ele>732.0</ele><time>2026-04-18T14:37:57.346Z</time></trkpt><trkpt lat="41.9032489" lon="2.1011375"><ele>733.0</ele><time>2026-04-18T14:37:58.344Z</time></trkpt><trkpt lat="41.9032769" lon="2.1015196"><ele>734.0</ele><time>2026-04-18T14:37:59.345Z</time></trkpt><trkpt lat="41.9033089" lon="2.1018989"><ele>735.0</ele><time>2026-04-18T14:38:00.345Z</time></trkpt><trkpt lat="41.9033404" lon="2.1022768"><ele>735.0</ele><time>2026-04-18T14:38:01.345Z</time></trkpt><trkpt lat="41.9033765" lon="2.1026765"><ele>735.0</ele><time>2026-04-18T14:38:02.345Z</time></trkpt><trkpt lat="41.9034193" lon="2.1030678"><ele>728.0</ele><time>2026-04-18T14:38:03.346Z</time></trkpt><trkpt lat="41.9034695" lon="2.1034534"><ele>721.0</ele><time>2026-04-18T14:38:04.345Z</time></trkpt><trkpt lat="41.9035261" lon="2.1038378"><ele>722.5</ele><time>2026-04-18T14:38:05.346Z</time></trkpt><trkpt lat="41.9035923" lon="2.1042261"><ele>724.0</ele><time>2026-04-18T14:38:06.345Z</time></trkpt><trkpt lat="41.9036696" lon="2.1046118"><ele>722.0</ele><time>2026-04-18T14:38:07.345Z</time></trkpt><trkpt lat="41.9037594" lon="2.104988"><ele>720.0</ele><time>2026-04-18T14:38:08.344Z</time></trkpt><trkpt lat="41.903859" lon="2.1053625"><ele>720.0</ele><time>2026-04-18T14:38:09.345Z</time></trkpt><trkpt lat="41.9039692" lon="2.1057322"><ele>720.0</ele><time>2026-04-18T14:38:10.346Z</time></trkpt><trkpt lat="41.9040873" lon="2.106097"><ele>721.5</ele><time>2026-04-18T14:38:11.345Z</time></trkpt><trkpt lat="41.9042157" lon="2.1064585"><ele>723.0</ele><time>2026-04-18T14:38:12.345Z</time></trkpt><trkpt lat="41.9043518" lon="2.1068133"><ele>722.0</ele><time>2026-04-18T14:38:13.345Z</time></trkpt><trkpt lat="41.9044977" lon="2.1071634"><ele>721.0</ele><time>2026-04-18T14:38:14.345Z</time></trkpt><trkpt lat="41.9046513" lon="2.1075089"><ele>721.0</ele><time>2026-04-18T14:38:15.345Z</time></trkpt><trkpt lat="41.9048115" lon="2.1078467"><ele>721.0</ele><time>2026-04-18T14:38:16.344Z</time></trkpt><trkpt lat="41.9049785" lon="2.1081795"><ele>718.5</ele><time>2026-04-18T14:38:17.345Z</time></trkpt><trkpt lat="41.9051484" lon="2.108513"><ele>716.0</ele><time>2026-04-18T14:38:18.345Z</time></trkpt><trkpt lat="41.9053188" lon="2.108846"><ele>722.5</ele><time>2026-04-18T14:38:19.344Z</time></trkpt><trkpt lat="41.9054869" lon="2.1091762"><ele>729.0</ele><time>2026-04-18T14:38:20.345Z</time></trkpt><trkpt lat="41.9056538" lon="2.109513"><ele>729.0</ele><time>2026-04-18T14:38:21.345Z</time></trkpt><trkpt lat="41.9058167" lon="2.109847"><ele>729.0</ele><time>2026-04-18T14:38:22.344Z</time></trkpt><trkpt lat="41.905982" lon="2.1101804"><ele>728.0</ele><time>2026-04-18T14:38:23.344Z</time></trkpt><trkpt lat="41.9061476" lon="2.1105136"><ele>727.0</ele><time>2026-04-18T14:38:24.345Z</time></trkpt><trkpt lat="41.9063124" lon="2.1108458"><ele>727.0</ele><time>2026-04-18T14:38:25.345Z</time></trkpt><trkpt lat="41.9064733" lon="2.1111815"><ele>727.0</ele><time>2026-04-18T14:38:26.345Z</time></trkpt><trkpt lat="41.9066301" lon="2.1115172"><ele>722.0</ele><time>2026-04-18T14:38:27.345Z</time></trkpt><trkpt lat="41.9067768" lon="2.1118579"><ele>717.0</ele><time>2026-04-18T14:38:28.345Z</time></trkpt><trkpt lat="41.90691" lon="2.1122085"><ele>723.5</ele><time>2026-04-18T14:38:29.344Z</time></trkpt><trkpt lat="41.9070266" lon="2.1125687"><ele>730.0</ele><time>2026-04-18T14:38:30.344Z</time></trkpt><trkpt lat="41.9071291" lon="2.1129363"><ele>735.0</ele><time>2026-04-18T14:38:31.345Z</time></trkpt><trkpt lat="41.9072184" lon="2.1133114"><ele>740.0</ele><time>2026-04-18T14:38:32.345Z</time></trkpt><trkpt lat="41.9072955" lon="2.1136925"><ele>741.0</ele><time>2026-04-18T14:38:33.345Z</time></trkpt><trkpt lat="41.9073631" lon="2.1140747"><ele>742.0</ele><time>2026-04-18T14:38:34.344Z</time></trkpt><trkpt lat="41.9074275" lon="2.1144571"><ele>742.0</ele><time>2026-04-18T14:38:35.345Z</time></trkpt><trkpt lat="41.9074968" lon="2.1148367"><ele>742.0</ele><time>2026-04-18T14:38:36.344Z</time></trkpt><trkpt lat="41.9075682" lon="2.1152143"><ele>739.0</ele><time>2026-04-18T14:38:37.344Z</time></trkpt><trkpt lat="41.9076486" lon="2.1155928"><ele>736.0</ele><time>2026-04-18T14:38:38.345Z</time></trkpt><trkpt lat="41.9077454" lon="2.1159655"><ele>736.0</ele><time>2026-04-18T14:38:39.345Z</time></trkpt><trkpt lat="41.9078561" lon="2.1163282"><ele>736.0</ele><time>2026-04-18T14:38:40.345Z</time></trkpt><trkpt lat="41.9079785" lon="2.1166837"><ele>740.0</ele><time>2026-04-18T14:38:41.344Z</time></trkpt><trkpt lat="41.9081151" lon="2.1170299"><ele>744.0</ele><time>2026-04-18T14:38:42.344Z</time></trkpt><trkpt lat="41.908264" lon="2.1173655"><ele>740.0</ele><time>2026-04-18T14:38:43.345Z</time></trkpt><trkpt lat="41.9084241" lon="2.1176927"><ele>736.0</ele><time>2026-04-18T14:38:44.346Z</time></trkpt><trkpt lat="41.9085976" lon="2.1180128"><ele>742.5</ele><time>2026-04-18T14:38:45.346Z</time></trkpt><trkpt lat="41.9087819" lon="2.1183148"><ele>749.0</ele><time>2026-04-18T14:38:46.344Z</time></trkpt><trkpt lat="41.9089779" lon="2.1186083"><ele>749.0</ele><time>2026-04-18T14:38:47.345Z</time></trkpt><trkpt lat="41.9091822" lon="2.1188888"><ele>749.0</ele><time>2026-04-18T14:38:48.345Z</time></trkpt><trkpt lat="41.9093897" lon="2.1191709"><ele>747.0</ele><time>2026-04-18T14:38:49.345Z</time></trkpt><trkpt lat="41.9095927" lon="2.1194571"><ele>745.0</ele><time>2026-04-18T14:38:50.345Z</time></trkpt><trkpt lat="41.9097907" lon="2.1197468"><ele>746.0</ele><time>2026-04-18T14:38:51.344Z</time></trkpt><trkpt lat="41.9099819" lon="2.1200509"><ele>747.0</ele><time>2026-04-18T14:38:52.344Z</time></trkpt><trkpt lat="41.9101607" lon="2.1203629"><ele>747.0</ele><time>2026-04-18T14:38:53.345Z</time></trkpt><trkpt lat="41.9103236" lon="2.1206875"><ele>747.0</ele><time>2026-04-18T14:38:54.345Z</time></trkpt><trkpt lat="41.910475" lon="2.1210232"><ele>751.5</ele><time>2026-04-18T14:38:55.345Z</time></trkpt><trkpt lat="41.9106142" lon="2.1213695"><ele>756.0</ele><time>2026-04-18T14:38:56.344Z</time></trkpt><trkpt lat="41.9107433" lon="2.1217224"><ele>754.5</ele><time>2026-04-18T14:38:57.345Z</time></trkpt><trkpt lat="41.9108613" lon="2.1220909"><ele>753.0</ele><time>2026-04-18T14:38:58.345Z</time></trkpt><trkpt lat="41.9109647" lon="2.1224608"><ele>753.0</ele><time>2026-04-18T14:38:59.345Z</time></trkpt><trkpt lat="41.9110572" lon="2.1228388"><ele>753.0</ele><time>2026-04-18T14:39:00.344Z</time></trkpt><trkpt lat="41.9111312" lon="2.1232278"><ele>755.0</ele><time>2026-04-18T14:39:01.345Z</time></trkpt><trkpt lat="41.9111923" lon="2.1236216"><ele>757.0</ele><time>2026-04-18T14:39:02.345Z</time></trkpt><trkpt lat="41.9112398" lon="2.1240233"><ele>759.5</ele><time>2026-04-18T14:39:03.345Z</time></trkpt><trkpt lat="41.9112707" lon="2.1244296"><ele>762.0</ele><time>2026-04-18T14:39:04.345Z</time></trkpt><trkpt lat="41.9112863" lon="2.124837"><ele>762.0</ele><time>2026-04-18T14:39:05.345Z</time></trkpt><trkpt lat="41.9112895" lon="2.1252493"><ele>762.0</ele><time>2026-04-18T14:39:06.345Z</time></trkpt><trkpt lat="41.9112832" lon="2.1256566"><ele>761.0</ele><time>2026-04-18T14:39:07.344Z</time></trkpt><trkpt lat="41.9112762" lon="2.1260667"><ele>760.0</ele><time>2026-04-18T14:39:08.345Z</time></trkpt><trkpt lat="41.9112692" lon="2.1264753"><ele>757.5</ele><time>2026-04-18T14:39:09.345Z</time></trkpt><trkpt lat="41.9112667" lon="2.1268816"><ele>755.0</ele><time>2026-04-18T14:39:10.345Z</time></trkpt><trkpt lat="41.9112792" lon="2.1272853"><ele>754.5</ele><time>2026-04-18T14:39:11.345Z</time></trkpt><trkpt lat="41.9113037" lon="2.1276835"><ele>754.0</ele><time>2026-04-18T14:39:12.345Z</time></trkpt><trkpt lat="41.9113446" lon="2.1280746"><ele>755.5</ele><time>2026-04-18T14:39:13.345Z</time></trkpt><trkpt lat="41.911402" lon="2.1284557"><ele>757.0</ele><time>2026-04-18T14:39:14.345Z</time></trkpt><trkpt lat="41.9114807" lon="2.1288289"><ele>760.0</ele><time>2026-04-18T14:39:15.345Z</time></trkpt><trkpt lat="41.9115838" lon="2.1291872"><ele>763.0</ele><time>2026-04-18T14:39:16.344Z</time></trkpt><trkpt lat="41.9117186" lon="2.1295286"><ele>759.5</ele><time>2026-04-18T14:39:17.344Z</time></trkpt><trkpt lat="41.9118641" lon="2.1298502"><ele>756.0</ele><time>2026-04-18T14:39:18.344Z</time></trkpt><trkpt lat="41.9120313" lon="2.1301541"><ele>756.0</ele><time>2026-04-18T14:39:19.345Z</time></trkpt><trkpt lat="41.912216" lon="2.1304349"><ele>756.0</ele><time>2026-04-18T14:39:20.345Z</time></trkpt><trkpt lat="41.9124112" lon="2.1306951"><ele>763.0</ele><time>2026-04-18T14:39:21.345Z</time></trkpt><trkpt lat="41.9126195" lon="2.1309365"><ele>770.0</ele><time>2026-04-18T14:39:22.344Z</time></trkpt><trkpt lat="41.9128343" lon="2.1311627"><ele>770.0</ele><time>2026-04-18T14:39:23.345Z</time></trkpt><trkpt lat="41.9130531" lon="2.1313797"><ele>770.0</ele><time>2026-04-18T14:39:24.345Z</time></trkpt><trkpt lat="41.9132709" lon="2.1315931"><ele>786.0</ele><time>2026-04-18T14:39:25.344Z</time></trkpt><trkpt lat="41.9134877" lon="2.1318103"><ele>802.0</ele><time>2026-04-18T14:39:26.345Z</time></trkpt><trkpt lat="41.9137064" lon="2.1320237"><ele>802.0</ele><time>2026-04-18T14:39:27.344Z</time></trkpt><trkpt lat="41.9139283" lon="2.1322296"><ele>802.0</ele><time>2026-04-18T14:39:28.345Z</time></trkpt><trkpt lat="41.9185493" lon="2.1376565"><ele>785.0</ele><time>2026-04-18T14:39:50.345Z</time></trkpt><trkpt lat="41.9188219" lon="2.1378353"><ele>768.0</ele><time>2026-04-18T14:39:51.346Z</time></trkpt><trkpt lat="41.9190961" lon="2.1379883"><ele>764.0</ele><time>2026-04-18T14:39:52.345Z</time></trkpt><trkpt lat="41.9193734" lon="2.1381297"><ele>760.0</ele><time>2026-04-18T14:39:53.345Z</time></trkpt><trkpt lat="41.9196535" lon="2.138268"><ele>757.5</ele><time>2026-04-18T14:39:54.344Z</time></trkpt><trkpt lat="41.9199271" lon="2.1384137"><ele>755.0</ele><time>2026-04-18T14:39:55.345Z</time></trkpt><trkpt lat="41.9201963" lon="2.1385736"><ele>750.5</ele><time>2026-04-18T14:39:56.344Z</time></trkpt><trkpt lat="41.9204565" lon="2.1387549"><ele>746.0</ele><time>2026-04-18T14:39:57.345Z</time></trkpt><trkpt lat="41.920711" lon="2.1389555"><ele>740.5</ele><time>2026-04-18T14:39:58.345Z</time></trkpt><trkpt lat="41.9209565" lon="2.139178"><ele>735.0</ele><time>2026-04-18T14:39:59.344Z</time></trkpt><trkpt lat="41.9211953" lon="2.1394118"><ele>735.0</ele><time>2026-04-18T14:40:00.345Z</time></trkpt><trkpt lat="41.921429" lon="2.1396484"><ele>735.0</ele><time>2026-04-18T14:40:01.345Z</time></trkpt><trkpt lat="41.9216615" lon="2.139888"><ele>733.5</ele><time>2026-04-18T14:40:02.344Z</time></trkpt><trkpt lat="41.9218935" lon="2.1401204"><ele>732.0</ele><time>2026-04-18T14:40:03.345Z</time></trkpt><trkpt lat="41.9221271" lon="2.1403458"><ele>732.0</ele><time>2026-04-18T14:40:04.345Z</time></trkpt><trkpt lat="41.9223642" lon="2.1405633"><ele>732.0</ele><time>2026-04-18T14:40:05.345Z</time></trkpt><trkpt lat="41.9226064" lon="2.1407689"><ele>729.5</ele><time>2026-04-18T14:40:06.345Z</time></trkpt><trkpt lat="41.9228563" lon="2.1409588"><ele>727.0</ele><time>2026-04-18T14:40:07.344Z</time></trkpt><trkpt lat="41.9231117" lon="2.1411371"><ele>727.0</ele><time>2026-04-18T14:40:08.344Z</time></trkpt><trkpt lat="41.9233726" lon="2.1413045"><ele>727.0</ele><time>2026-04-18T14:40:09.346Z</time></trkpt><trkpt lat="41.9236397" lon="2.141462"><ele>726.0</ele><time>2026-04-18T14:40:10.344Z</time></trkpt><trkpt lat="41.9239074" lon="2.1416133"><ele>725.0</ele><time>2026-04-18T14:40:11.345Z</time></trkpt><trkpt lat="41.9241782" lon="2.1417611"><ele>730.5</ele><time>2026-04-18T14:40:12.344Z</time></trkpt><trkpt lat="41.9244529" lon="2.1419104"><ele>736.0</ele><time>2026-04-18T14:40:13.345Z</time></trkpt><trkpt lat="41.9247264" lon="2.1420734"><ele>736.0</ele><time>2026-04-18T14:40:14.345Z</time></trkpt><trkpt lat="41.924995" lon="2.1422499"><ele>736.0</ele><time>2026-04-18T14:40:15.345Z</time></trkpt><trkpt lat="41.9252577" lon="2.1424441"><ele>729.0</ele><time>2026-04-18T14:40:16.345Z</time></trkpt><trkpt lat="41.9255127" lon="2.1426547"><ele>722.0</ele><time>2026-04-18T14:40:17.345Z</time></trkpt><trkpt lat="41.9257597" lon="2.1428819"><ele>726.0</ele><time>2026-04-18T14:40:18.344Z</time></trkpt><trkpt lat="41.9259994" lon="2.1431232"><ele>730.0</ele><time>2026-04-18T14:40:19.344Z</time></trkpt><trkpt lat="41.926233" lon="2.1433761"><ele>730.0</ele><time>2026-04-18T14:40:20.345Z</time></trkpt><trkpt lat="41.9264596" lon="2.1436399"><ele>730.0</ele><time>2026-04-18T14:40:21.345Z</time></trkpt><trkpt lat="41.9266809" lon="2.1439155"><ele>722.5</ele><time>2026-04-18T14:40:22.345Z</time></trkpt><trkpt lat="41.9268975" lon="2.1441983"><ele>715.0</ele><time>2026-04-18T14:40:23.345Z</time></trkpt><trkpt lat="41.9271151" lon="2.1444853"><ele>715.0</ele><time>2026-04-18T14:40:24.344Z</time></trkpt><trkpt lat="41.9273323" lon="2.1447788"><ele>715.0</ele><time>2026-04-18T14:40:25.345Z</time></trkpt><trkpt lat="41.9275529" lon="2.1450659"><ele>721.5</ele><time>2026-04-18T14:40:26.345Z</time></trkpt><trkpt lat="41.9277783" lon="2.1453445"><ele>728.0</ele><time>2026-04-18T14:40:27.345Z</time></trkpt><trkpt lat="41.9280062" lon="2.1456282"><ele>724.5</ele><time>2026-04-18T14:40:28.345Z</time></trkpt><trkpt lat="41.9282357" lon="2.1459196"><ele>721.0</ele><time>2026-04-18T14:40:29.345Z</time></trkpt><trkpt lat="41.9284649" lon="2.1462163"><ele>720.5</ele><time>2026-04-18T14:40:30.345Z</time></trkpt><trkpt lat="41.9286915" lon="2.1465168"><ele>720.0</ele><time>2026-04-18T14:40:31.344Z</time></trkpt><trkpt lat="41.9289202" lon="2.1468228"><ele>710.5</ele><time>2026-04-18T14:40:32.345Z</time></trkpt><trkpt lat="41.9291474" lon="2.1471278"><ele>701.0</ele><time>2026-04-18T14:40:33.346Z</time></trkpt><trkpt lat="41.9293784" lon="2.147432"><ele>701.0</ele><time>2026-04-18T14:40:34.345Z</time></trkpt><trkpt lat="41.929608" lon="2.1477348"><ele>701.0</ele><time>2026-04-18T14:40:35.345Z</time></trkpt><trkpt lat="41.9298407" lon="2.1480379"><ele>707.0</ele><time>2026-04-18T14:40:36.345Z</time></trkpt><trkpt lat="41.9300733" lon="2.1483436"><ele>713.0</ele><time>2026-04-18T14:40:37.345Z</time></trkpt><trkpt lat="41.9303048" lon="2.1486506"><ele>713.0</ele><time>2026-04-18T14:40:38.344Z</time></trkpt><trkpt lat="41.9305331" lon="2.1489651"><ele>713.0</ele><time>2026-04-18T14:40:39.345Z</time></trkpt><trkpt lat="41.930754" lon="2.1492919"><ele>706.0</ele><time>2026-04-18T14:40:40.345Z</time></trkpt><trkpt lat="41.9309666" lon="2.14963"><ele>699.0</ele><time>2026-04-18T14:40:41.344Z</time></trkpt><trkpt lat="41.9311694" lon="2.149974"><ele>690.0</ele><time>2026-04-18T14:40:42.344Z</time></trkpt><trkpt lat="41.9313611" lon="2.1503309"><ele>681.0</ele><time>2026-04-18T14:40:43.344Z</time></trkpt><trkpt lat="41.9315413" lon="2.1506893"><ele>674.5</ele><time>2026-04-18T14:40:44.345Z</time></trkpt><trkpt lat="41.9317077" lon="2.1510613"><ele>668.0</ele><time>2026-04-18T14:40:45.345Z</time></trkpt><trkpt lat="41.9318639" lon="2.151431"><ele>670.5</ele><time>2026-04-18T14:40:46.345Z</time></trkpt><trkpt lat="41.9320105" lon="2.1518098"><ele>673.0</ele><time>2026-04-18T14:40:47.345Z</time></trkpt><trkpt lat="41.932149" lon="2.152194"><ele>669.5</ele><time>2026-04-18T14:40:48.345Z</time></trkpt><trkpt lat="41.932278" lon="2.1525846"><ele>666.0</ele><time>2026-04-18T14:40:49.345Z</time></trkpt><trkpt lat="41.9323966" lon="2.152983"><ele>667.0</ele><time>2026-04-18T14:40:50.344Z</time></trkpt><trkpt lat="41.9325022" lon="2.1533876"><ele>668.0</ele><time>2026-04-18T14:40:51.345Z</time></trkpt><trkpt lat="41.9325984" lon="2.1537978"><ele>666.0</ele><time>2026-04-18T14:40:52.345Z</time></trkpt><trkpt lat="41.9326815" lon="2.154213"><ele>664.0</ele><time>2026-04-18T14:40:53.345Z</time></trkpt><trkpt lat="41.9327506" lon="2.1546325"><ele>660.5</ele><time>2026-04-18T14:40:54.345Z</time></trkpt><trkpt lat="41.9328118" lon="2.1550534"><ele>657.0</ele><time>2026-04-18T14:40:55.345Z</time></trkpt><trkpt lat="41.932859" lon="2.1554765"><ele>652.5</ele><time>2026-04-18T14:40:56.345Z</time></trkpt><trkpt lat="41.9328943" lon="2.1559036"><ele>648.0</ele><time>2026-04-18T14:40:57.345Z</time></trkpt><trkpt lat="41.9329174" lon="2.1563305"><ele>645.5</ele><time>2026-04-18T14:40:58.345Z</time></trkpt><trkpt lat="41.9329302" lon="2.1567597"><ele>643.0</ele><time>2026-04-18T14:40:59.345Z</time></trkpt><trkpt lat="41.9329345" lon="2.157188"><ele>642.0</ele><time>2026-04-18T14:41:00.345Z</time></trkpt><trkpt lat="41.9329264" lon="2.157618"><ele>641.0</ele><time>2026-04-18T14:41:01.344Z</time></trkpt><trkpt lat="41.932904" lon="2.1580482"><ele>637.0</ele><time>2026-04-18T14:41:02.344Z</time></trkpt><trkpt lat="41.9328725" lon="2.1584791"><ele>633.0</ele><time>2026-04-18T14:41:03.345Z</time></trkpt><trkpt lat="41.9328297" lon="2.1589141"><ele>633.5</ele><time>2026-04-18T14:41:04.345Z</time></trkpt><trkpt lat="41.9327752" lon="2.1593473"><ele>634.0</ele><time>2026-04-18T14:41:05.345Z</time></trkpt><trkpt lat="41.9327115" lon="2.1597812"><ele>632.0</ele><time>2026-04-18T14:41:06.344Z</time></trkpt><trkpt lat="41.9326451" lon="2.1602154"><ele>630.0</ele><time>2026-04-18T14:41:07.345Z</time></trkpt><trkpt lat="41.9325807" lon="2.1606491"><ele>635.5</ele><time>2026-04-18T14:41:08.345Z</time></trkpt><trkpt lat="41.9325211" lon="2.1610813"><ele>641.0</ele><time>2026-04-18T14:41:09.345Z</time></trkpt><trkpt lat="41.932472" lon="2.1615098"><ele>644.0</ele><time>2026-04-18T14:41:10.344Z</time></trkpt><trkpt lat="41.9324324" lon="2.1619332"><ele>647.0</ele><time>2026-04-18T14:41:11.344Z</time></trkpt><trkpt lat="41.932406" lon="2.162357"><ele>646.5</ele><time>2026-04-18T14:41:12.344Z</time></trkpt><trkpt lat="41.932391" lon="2.1627793"><ele>646.0</ele><time>2026-04-18T14:41:13.345Z</time></trkpt><trkpt lat="41.9323874" lon="2.1632007"><ele>646.0</ele><time>2026-04-18T14:41:14.345Z</time></trkpt><trkpt lat="41.9323942" lon="2.1636231"><ele>646.0</ele><time>2026-04-18T14:41:15.344Z</time></trkpt><trkpt lat="41.9324138" lon="2.1640436"><ele>646.0</ele><time>2026-04-18T14:41:16.345Z</time></trkpt><trkpt lat="41.9324428" lon="2.1644579"><ele>646.0</ele><time>2026-04-18T14:41:17.345Z</time></trkpt><trkpt lat="41.9324819" lon="2.1648724"><ele>639.5</ele><time>2026-04-18T14:41:18.345Z</time></trkpt><trkpt lat="41.9325291" lon="2.165287"><ele>633.0</ele><time>2026-04-18T14:41:19.345Z</time></trkpt><trkpt lat="41.9325859" lon="2.1656956"><ele>630.0</ele><time>2026-04-18T14:41:20.345Z</time></trkpt><trkpt lat="41.9326557" lon="2.1661008"><ele>627.0</ele><time>2026-04-18T14:41:21.345Z</time></trkpt><trkpt lat="41.9327379" lon="2.1665047"><ele>632.5</ele><time>2026-04-18T14:41:22.345Z</time></trkpt><trkpt lat="41.9328348" lon="2.1669067"><ele>638.0</ele><time>2026-04-18T14:41:23.344Z</time></trkpt><trkpt lat="41.9329443" lon="2.167309"><ele>638.5</ele><time>2026-04-18T14:41:24.344Z</time></trkpt><trkpt lat="41.933065" lon="2.1677118"><ele>639.0</ele><time>2026-04-18T14:41:25.344Z</time></trkpt><trkpt lat="41.9331984" lon="2.1681107"><ele>636.0</ele><time>2026-04-18T14:41:26.344Z</time></trkpt><trkpt lat="41.933346" lon="2.1685067"><ele>633.0</ele><time>2026-04-18T14:41:27.344Z</time></trkpt><trkpt lat="41.9335051" lon="2.168897"><ele>620.5</ele><time>2026-04-18T14:41:28.345Z</time></trkpt><trkpt lat="41.9336716" lon="2.1692844"><ele>608.0</ele><time>2026-04-18T14:41:29.346Z</time></trkpt><trkpt lat="41.9338428" lon="2.1696669"><ele>616.5</ele><time>2026-04-18T14:41:30.346Z</time></trkpt><trkpt lat="41.9340218" lon="2.1700531"><ele>625.0</ele><time>2026-04-18T14:41:31.345Z</time></trkpt><trkpt lat="41.9342039" lon="2.1704332"><ele>622.0</ele><time>2026-04-18T14:41:32.345Z</time></trkpt><trkpt lat="41.9343848" lon="2.1708156"><ele>619.0</ele><time>2026-04-18T14:41:33.345Z</time></trkpt><trkpt lat="41.9345626" lon="2.1711971"><ele>622.0</ele><time>2026-04-18T14:41:34.345Z</time></trkpt><trkpt lat="41.9347371" lon="2.171574"><ele>625.0</ele><time>2026-04-18T14:41:35.344Z</time></trkpt><trkpt lat="41.934909" lon="2.1719558"><ele>614.0</ele><time>2026-04-18T14:41:36.345Z</time></trkpt><trkpt lat="41.935082" lon="2.1723382"><ele>603.0</ele><time>2026-04-18T14:41:37.344Z</time></trkpt><trkpt lat="41.9352536" lon="2.1727125"><ele>603.0</ele><time>2026-04-18T14:41:38.345Z</time></trkpt><trkpt lat="41.9354248" lon="2.1730901"><ele>603.0</ele><time>2026-04-18T14:41:39.345Z</time></trkpt><trkpt lat="41.935594" lon="2.1734656"><ele>606.0</ele><time>2026-04-18T14:41:40.346Z</time></trkpt><trkpt lat="41.935761" lon="2.1738421"><ele>609.0</ele><time>2026-04-18T14:41:41.345Z</time></trkpt><trkpt lat="41.9359237" lon="2.1742251"><ele>593.0</ele><time>2026-04-18T14:41:42.344Z</time></trkpt><trkpt lat="41.9360745" lon="2.1746156"><ele>577.0</ele><time>2026-04-18T14:41:43.345Z</time></trkpt><trkpt lat="41.9362134" lon="2.1750146"><ele>577.0</ele><time>2026-04-18T14:41:44.345Z</time></trkpt><trkpt lat="41.9363355" lon="2.1754239"><ele>577.0</ele><time>2026-04-18T14:41:45.345Z</time></trkpt><trkpt lat="41.9364402" lon="2.1758441"><ele>577.0</ele><time>2026-04-18T14:41:46.346Z</time></trkpt><trkpt lat="41.9365284" lon="2.1762736"><ele>577.0</ele><time>2026-04-18T14:41:47.345Z</time></trkpt><trkpt lat="41.9366042" lon="2.1767072"><ele>577.0</ele><time>2026-04-18T14:41:48.345Z</time></trkpt><trkpt lat="41.9366645" lon="2.1771457"><ele>577.0</ele><time>2026-04-18T14:41:49.344Z</time></trkpt><trkpt lat="41.9367096" lon="2.1775924"><ele>593.5</ele><time>2026-04-18T14:41:50.345Z</time></trkpt><trkpt lat="41.936737" lon="2.178035"><ele>610.0</ele><time>2026-04-18T14:41:51.344Z</time></trkpt><trkpt lat="41.9367451" lon="2.1784834"><ele>613.0</ele><time>2026-04-18T14:41:52.345Z</time></trkpt><trkpt lat="41.9367294" lon="2.1789253"><ele>616.0</ele><time>2026-04-18T14:41:53.345Z</time></trkpt><trkpt lat="41.9366977" lon="2.1793664"><ele>602.5</ele><time>2026-04-18T14:41:54.346Z</time></trkpt><trkpt lat="41.9366538" lon="2.1798125"><ele>589.0</ele><time>2026-04-18T14:41:55.345Z</time></trkpt><trkpt lat="41.9365987" lon="2.1802532"><ele>590.0</ele><time>2026-04-18T14:41:56.345Z</time></trkpt><trkpt lat="41.9365395" lon="2.1806918"><ele>591.0</ele><time>2026-04-18T14:41:57.344Z</time></trkpt><trkpt lat="41.9364691" lon="2.1811264"><ele>594.0</ele><time>2026-04-18T14:41:58.345Z</time></trkpt><trkpt lat="41.9363853" lon="2.1815549"><ele>597.0</ele><time>2026-04-18T14:41:59.345Z</time></trkpt><trkpt lat="41.9362909" lon="2.1819797"><ele>601.0</ele><time>2026-04-18T14:42:00.345Z</time></trkpt><trkpt lat="41.9361874" lon="2.1824002"><ele>605.0</ele><time>2026-04-18T14:42:01.344Z</time></trkpt><trkpt lat="41.9360732" lon="2.1828206"><ele>607.0</ele><time>2026-04-18T14:42:02.345Z</time></trkpt><trkpt lat="41.935949" lon="2.1832389"><ele>609.0</ele><time>2026-04-18T14:42:03.344Z</time></trkpt><trkpt lat="41.9358161" lon="2.1836523"><ele>591.5</ele><time>2026-04-18T14:42:04.345Z</time></trkpt><trkpt lat="41.9356744" lon="2.1840604"><ele>574.0</ele><time>2026-04-18T14:42:05.345Z</time></trkpt><trkpt lat="41.9355215" lon="2.184461"><ele>574.0</ele><time>2026-04-18T14:42:06.345Z</time></trkpt><trkpt lat="41.9353617" lon="2.1848567"><ele>574.0</ele><time>2026-04-18T14:42:07.345Z</time></trkpt><trkpt lat="41.9351984" lon="2.1852517"><ele>569.5</ele><time>2026-04-18T14:42:08.345Z</time></trkpt><trkpt lat="41.9350338" lon="2.1856472"><ele>565.0</ele><time>2026-04-18T14:42:09.345Z</time></trkpt><trkpt lat="41.9348705" lon="2.1860437"><ele>565.0</ele><time>2026-04-18T14:42:10.345Z</time></trkpt><trkpt lat="41.9347138" lon="2.1864433"><ele>565.0</ele><time>2026-04-18T14:42:11.345Z</time></trkpt><trkpt lat="41.9345658" lon="2.1868471"><ele>565.5</ele><time>2026-04-18T14:42:12.345Z</time></trkpt><trkpt lat="41.9344278" lon="2.1872547"><ele>566.0</ele><time>2026-04-18T14:42:13.345Z</time></trkpt><trkpt lat="41.9342988" lon="2.1876644"><ele>563.0</ele><time>2026-04-18T14:42:14.345Z</time></trkpt><trkpt lat="41.9341815" lon="2.1880821"><ele>560.0</ele><time>2026-04-18T14:42:15.345Z</time></trkpt><trkpt lat="41.9340773" lon="2.1885059"><ele>559.5</ele><time>2026-04-18T14:42:16.345Z</time></trkpt><trkpt lat="41.9339843" lon="2.1889362"><ele>559.0</ele><time>2026-04-18T14:42:17.344Z</time></trkpt><trkpt lat="41.9339039" lon="2.1893742"><ele>558.5</ele><time>2026-04-18T14:42:18.344Z</time></trkpt><trkpt lat="41.9338344" lon="2.1898154"><ele>558.0</ele><time>2026-04-18T14:42:19.344Z</time></trkpt><trkpt lat="41.9337748" lon="2.1902572"><ele>560.0</ele><time>2026-04-18T14:42:20.345Z</time></trkpt><trkpt lat="41.9337305" lon="2.1907003"><ele>562.0</ele><time>2026-04-18T14:42:21.345Z</time></trkpt><trkpt lat="41.9336983" lon="2.1911396"><ele>564.5</ele><time>2026-04-18T14:42:22.346Z</time></trkpt><trkpt lat="41.9336797" lon="2.1915658"><ele>567.0</ele><time>2026-04-18T14:42:23.345Z</time></trkpt><trkpt lat="41.933673" lon="2.1919798"><ele>566.5</ele><time>2026-04-18T14:42:24.345Z</time></trkpt><trkpt lat="41.9336716" lon="2.1923895"><ele>566.0</ele><time>2026-04-18T14:42:25.345Z</time></trkpt><trkpt lat="41.9336769" lon="2.1927934"><ele>566.0</ele><time>2026-04-18T14:42:26.345Z</time></trkpt><trkpt lat="41.9336834" lon="2.1931927"><ele>566.0</ele><time>2026-04-18T14:42:27.345Z</time></trkpt><trkpt lat="41.9336932" lon="2.1935831"><ele>566.0</ele><time>2026-04-18T14:42:28.345Z</time></trkpt><trkpt lat="41.9337014" lon="2.1939649"><ele>566.0</ele><time>2026-04-18T14:42:29.345Z</time></trkpt><trkpt lat="41.9337127" lon="2.1943419"><ele>565.5</ele><time>2026-04-18T14:42:30.345Z</time></trkpt><trkpt lat="41.9337234" lon="2.1947168"><ele>565.0</ele><time>2026-04-18T14:42:31.345Z</time></trkpt><trkpt lat="41.9337353" lon="2.1950895"><ele>563.0</ele><time>2026-04-18T14:42:32.345Z</time></trkpt><trkpt lat="41.9337457" lon="2.1954624"><ele>561.0</ele><time>2026-04-18T14:42:33.345Z</time></trkpt><trkpt lat="41.9337527" lon="2.1958384"><ele>560.0</ele><time>2026-04-18T14:42:34.344Z</time></trkpt><trkpt lat="41.9337574" lon="2.1962192"><ele>559.0</ele><time>2026-04-18T14:42:35.345Z</time></trkpt><trkpt lat="41.9337603" lon="2.1966014"><ele>558.5</ele><time>2026-04-18T14:42:36.345Z</time></trkpt><trkpt lat="41.9337624" lon="2.196985"><ele>558.0</ele><time>2026-04-18T14:42:37.345Z</time></trkpt><trkpt lat="41.9337648" lon="2.1973685"><ele>558.0</ele><time>2026-04-18T14:42:38.344Z</time></trkpt><trkpt lat="41.933765" lon="2.1977511"><ele>558.0</ele><time>2026-04-18T14:42:39.344Z</time></trkpt><trkpt lat="41.9337568" lon="2.1981379"><ele>561.0</ele><time>2026-04-18T14:42:40.344Z</time></trkpt><trkpt lat="41.933738" lon="2.1985306"><ele>564.0</ele><time>2026-04-18T14:42:41.346Z</time></trkpt><trkpt lat="41.933706" lon="2.1989293"><ele>560.5</ele><time>2026-04-18T14:42:42.344Z</time></trkpt><trkpt lat="41.9336599" lon="2.1993271"><ele>557.0</ele><time>2026-04-18T14:42:43.345Z</time></trkpt><trkpt lat="41.9336005" lon="2.1997174"><ele>554.0</ele><time>2026-04-18T14:42:44.346Z</time></trkpt><trkpt lat="41.9335265" lon="2.2001055"><ele>551.0</ele><time>2026-04-18T14:42:45.345Z</time></trkpt><trkpt lat="41.9334459" lon="2.2004881"><ele>550.5</ele><time>2026-04-18T14:42:46.344Z</time></trkpt><trkpt lat="41.9333615" lon="2.2008691"><ele>550.0</ele><time>2026-04-18T14:42:47.344Z</time></trkpt><trkpt lat="41.9332722" lon="2.2012445"><ele>551.0</ele><time>2026-04-18T14:42:48.345Z</time></trkpt><trkpt lat="41.9331812" lon="2.2016172"><ele>552.0</ele><time>2026-04-18T14:42:49.345Z</time></trkpt><trkpt lat="41.9330903" lon="2.2019894"><ele>551.5</ele><time>2026-04-18T14:42:50.345Z</time></trkpt><trkpt lat="41.933004" lon="2.2023614"><ele>551.0</ele><time>2026-04-18T14:42:51.346Z</time></trkpt><trkpt lat="41.9329215" lon="2.2027288"><ele>551.0</ele><time>2026-04-18T14:42:52.345Z</time></trkpt><trkpt lat="41.9328416" lon="2.2031064"><ele>551.0</ele><time>2026-04-18T14:42:53.345Z</time></trkpt><trkpt lat="41.9327661" lon="2.2034823"><ele>551.0</ele><time>2026-04-18T14:42:54.345Z</time></trkpt><trkpt lat="41.9326994" lon="2.2038599"><ele>551.0</ele><time>2026-04-18T14:42:55.346Z</time></trkpt><trkpt lat="41.9326383" lon="2.2042421"><ele>550.0</ele><time>2026-04-18T14:42:56.345Z</time></trkpt><trkpt lat="41.9325865" lon="2.2046283"><ele>549.0</ele><time>2026-04-18T14:42:57.345Z</time></trkpt><trkpt lat="41.9325429" lon="2.2050148"><ele>548.5</ele><time>2026-04-18T14:42:58.344Z</time></trkpt><trkpt lat="41.9325052" lon="2.2054026"><ele>548.0</ele><time>2026-04-18T14:42:59.344Z</time></trkpt><trkpt lat="41.9324779" lon="2.2057931"><ele>548.0</ele><time>2026-04-18T14:43:00.345Z</time></trkpt><trkpt lat="41.9324589" lon="2.2061877"><ele>548.0</ele><time>2026-04-18T14:43:01.344Z</time></trkpt><trkpt lat="41.9324451" lon="2.2065823"><ele>548.0</ele><time>2026-04-18T14:43:02.345Z</time></trkpt><trkpt lat="41.9324431" lon="2.2069796"><ele>548.0</ele><time>2026-04-18T14:43:03.345Z</time></trkpt><trkpt lat="41.9324505" lon="2.207377"><ele>548.0</ele><time>2026-04-18T14:43:04.344Z</time></trkpt><trkpt lat="41.9324649" lon="2.2077749"><ele>548.0</ele><time>2026-04-18T14:43:05.345Z</time></trkpt><trkpt lat="41.9324862" lon="2.2081691"><ele>546.0</ele><time>2026-04-18T14:43:06.345Z</time></trkpt><trkpt lat="41.9325145" lon="2.2085616"><ele>544.0</ele><time>2026-04-18T14:43:07.345Z</time></trkpt><trkpt lat="41.9325496" lon="2.2089478"><ele>545.5</ele><time>2026-04-18T14:43:08.345Z</time></trkpt><trkpt lat="41.9325924" lon="2.2093311"><ele>547.0</ele><time>2026-04-18T14:43:09.344Z</time></trkpt><trkpt lat="41.9326414" lon="2.2097102"><ele>548.5</ele><time>2026-04-18T14:43:10.345Z</time></trkpt><trkpt lat="41.9326951" lon="2.2100884"><ele>550.0</ele><time>2026-04-18T14:43:11.345Z</time></trkpt><trkpt lat="41.932753" lon="2.2104599"><ele>549.5</ele><time>2026-04-18T14:43:12.345Z</time></trkpt><trkpt lat="41.9328119" lon="2.2108073"><ele>549.0</ele><time>2026-04-18T14:43:13.344Z</time></trkpt><trkpt lat="41.9328631" lon="2.211135"><ele>549.0</ele><time>2026-04-18T14:43:14.345Z</time></trkpt><trkpt lat="41.9329019" lon="2.2114569"><ele>549.0</ele><time>2026-04-18T14:43:15.345Z</time></trkpt><trkpt lat="41.9329237" lon="2.2117754"><ele>548.6666666666666</ele><time>2026-04-18T14:43:16.345Z</time></trkpt><trkpt lat="41.9329329" lon="2.2120785"><ele>548.3333333333333</ele><time>2026-04-18T14:43:17.344Z</time></trkpt><trkpt lat="41.932929" lon="2.2123647"><ele>548.0</ele><time>2026-04-18T14:43:18.345Z</time></trkpt><trkpt lat="41.9329119" lon="2.2126322"><ele>549.3333333333333</ele><time>2026-04-18T14:43:19.345Z</time></trkpt><trkpt lat="41.9328632" lon="2.2128892"><ele>550.6666666666666</ele><time>2026-04-18T14:43:20.344Z</time></trkpt><trkpt lat="41.9327823" lon="2.2131327"><ele>552.0</ele><time>2026-04-18T14:43:21.345Z</time></trkpt><trkpt lat="41.9326694" lon="2.2133541"><ele>553.0</ele><time>2026-04-18T14:43:22.344Z</time></trkpt><trkpt lat="41.9325231" lon="2.2135574"><ele>554.0</ele><time>2026-04-18T14:43:23.345Z</time></trkpt><trkpt lat="41.932353" lon="2.2137516"><ele>555.0</ele><time>2026-04-18T14:43:24.345Z</time></trkpt><trkpt lat="41.9321686" lon="2.2139421"><ele>555.0</ele><time>2026-04-18T14:43:25.345Z</time></trkpt><trkpt lat="41.931984" lon="2.214141"><ele>555.0</ele><time>2026-04-18T14:43:26.345Z</time></trkpt><trkpt lat="41.9317986" lon="2.2143434"><ele>553.0</ele><time>2026-04-18T14:43:27.345Z</time></trkpt><trkpt lat="41.9316207" lon="2.2145405"><ele>551.0</ele><time>2026-04-18T14:43:28.345Z</time></trkpt><trkpt lat="41.9314607" lon="2.2147465"><ele>551.5</ele><time>2026-04-18T14:43:29.344Z</time></trkpt><trkpt lat="41.9313072" lon="2.21497"><ele>552.0</ele><time>2026-04-18T14:43:30.344Z</time></trkpt><trkpt lat="41.9311644" lon="2.2152129"><ele>552.0</ele><time>2026-04-18T14:43:31.345Z</time></trkpt><trkpt lat="41.9310403" lon="2.2154807"><ele>552.0</ele><time>2026-04-18T14:43:32.345Z</time></trkpt><trkpt lat="41.9309379" lon="2.2157716"><ele>546.0</ele><time>2026-04-18T14:43:33.345Z</time></trkpt><trkpt lat="41.9308494" lon="2.2160814"><ele>540.0</ele><time>2026-04-18T14:43:34.344Z</time></trkpt><trkpt lat="41.9307743" lon="2.2164079"><ele>543.0</ele><time>2026-04-18T14:43:35.345Z</time></trkpt><trkpt lat="41.9306989" lon="2.2167368"><ele>546.0</ele><time>2026-04-18T14:43:36.345Z</time></trkpt><trkpt lat="41.9306147" lon="2.2170616"><ele>548.0</ele><time>2026-04-18T14:43:37.345Z</time></trkpt><trkpt lat="41.9305207" lon="2.2173833"><ele>550.0</ele><time>2026-04-18T14:43:38.345Z</time></trkpt><trkpt lat="41.9304289" lon="2.2177077"><ele>550.0</ele><time>2026-04-18T14:43:39.345Z</time></trkpt><trkpt lat="41.9303408" lon="2.2180325"><ele>550.0</ele><time>2026-04-18T14:43:40.345Z</time></trkpt><trkpt lat="41.9302564" lon="2.2183573"><ele>547.5</ele><time>2026-04-18T14:43:41.344Z</time></trkpt><trkpt lat="41.9301741" lon="2.2186846"><ele>545.0</ele><time>2026-04-18T14:43:42.345Z</time></trkpt><trkpt lat="41.9300915" lon="2.2190132"><ele>541.0</ele><time>2026-04-18T14:43:43.345Z</time></trkpt><trkpt lat="41.9300058" lon="2.2193419"><ele>537.0</ele><time>2026-04-18T14:43:44.344Z</time></trkpt><trkpt lat="41.9299171" lon="2.2196713"><ele>536.5</ele><time>2026-04-18T14:43:45.345Z</time></trkpt><trkpt lat="41.9298301" lon="2.2199962"><ele>536.0</ele><time>2026-04-18T14:43:46.345Z</time></trkpt><trkpt lat="41.9297441" lon="2.2203243"><ele>537.0</ele><time>2026-04-18T14:43:47.345Z</time></trkpt><trkpt lat="41.9296588" lon="2.2206543"><ele>538.0</ele><time>2026-04-18T14:43:48.345Z</time></trkpt><trkpt lat="41.9295736" lon="2.2209863"><ele>538.0</ele><time>2026-04-18T14:43:49.345Z</time></trkpt><trkpt lat="41.9294884" lon="2.2213164"><ele>538.0</ele><time>2026-04-18T14:43:50.345Z</time></trkpt><trkpt lat="41.9294035" lon="2.2216426"><ele>537.5</ele><time>2026-04-18T14:43:51.344Z</time></trkpt><trkpt lat="41.9293165" lon="2.2219673"><ele>537.0</ele><time>2026-04-18T14:43:52.344Z</time></trkpt><trkpt lat="41.9292329" lon="2.2222895"><ele>533.5</ele><time>2026-04-18T14:43:53.345Z</time></trkpt><trkpt lat="41.9291522" lon="2.222601"><ele>530.0</ele><time>2026-04-18T14:43:54.344Z</time></trkpt><trkpt lat="41.9290705" lon="2.2229151"><ele>529.5</ele><time>2026-04-18T14:43:55.345Z</time></trkpt><trkpt lat="41.9289903" lon="2.2232332"><ele>529.0</ele><time>2026-04-18T14:43:56.345Z</time></trkpt><trkpt lat="41.9289075" lon="2.2235533"><ele>529.0</ele><time>2026-04-18T14:43:57.345Z</time></trkpt><trkpt lat="41.9288237" lon="2.2238757"><ele>529.0</ele><time>2026-04-18T14:43:58.344Z</time></trkpt><trkpt lat="41.92874" lon="2.2241964"><ele>529.0</ele><time>2026-04-18T14:43:59.345Z</time></trkpt><trkpt lat="41.928657" lon="2.2245159"><ele>529.0</ele><time>2026-04-18T14:44:00.346Z</time></trkpt><trkpt lat="41.9285741" lon="2.2248344"><ele>529.0</ele><time>2026-04-18T14:44:01.345Z</time></trkpt><trkpt lat="41.9284898" lon="2.2251512"><ele>529.0</ele><time>2026-04-18T14:44:02.344Z</time></trkpt><trkpt lat="41.9284065" lon="2.2254669"><ele>526.0</ele><time>2026-04-18T14:44:03.345Z</time></trkpt><trkpt lat="41.9283273" lon="2.22578"><ele>523.0</ele><time>2026-04-18T14:44:04.345Z</time></trkpt><trkpt lat="41.9282459" lon="2.2260922"><ele>523.0</ele><time>2026-04-18T14:44:05.345Z</time></trkpt><trkpt lat="41.9281616" lon="2.2263989"><ele>523.0</ele><time>2026-04-18T14:44:06.344Z</time></trkpt><trkpt lat="41.9280797" lon="2.2267049"><ele>524.0</ele><time>2026-04-18T14:44:07.344Z</time></trkpt><trkpt lat="41.9280025" lon="2.2270106"><ele>525.0</ele><time>2026-04-18T14:44:08.345Z</time></trkpt><trkpt lat="41.9279277" lon="2.2273225"><ele>526.5</ele><time>2026-04-18T14:44:09.345Z</time></trkpt><trkpt lat="41.9278561" lon="2.2276441"><ele>528.0</ele><time>2026-04-18T14:44:10.345Z</time></trkpt><trkpt lat="41.9277947" lon="2.2279703"><ele>528.5</ele><time>2026-04-18T14:44:11.345Z</time></trkpt><trkpt lat="41.9277403" lon="2.2283015"><ele>529.0</ele><time>2026-04-18T14:44:12.345Z</time></trkpt><trkpt lat="41.9276856" lon="2.2286352"><ele>529.0</ele><time>2026-04-18T14:44:13.345Z</time></trkpt><trkpt lat="41.9276302" lon="2.2289731"><ele>529.0</ele><time>2026-04-18T14:44:14.345Z</time></trkpt><trkpt lat="41.9275754" lon="2.2293102"><ele>529.0</ele><time>2026-04-18T14:44:15.345Z</time></trkpt><trkpt lat="41.9275098" lon="2.2296443"><ele>529.0</ele><time>2026-04-18T14:44:16.345Z</time></trkpt><trkpt lat="41.9274222" lon="2.2299699"><ele>524.5</ele><time>2026-04-18T14:44:17.345Z</time></trkpt><trkpt lat="41.9273073" lon="2.2302818"><ele>520.0</ele><time>2026-04-18T14:44:18.344Z</time></trkpt><trkpt lat="41.9271655" lon="2.2305773"><ele>518.0</ele><time>2026-04-18T14:44:19.345Z</time></trkpt><trkpt lat="41.927005" lon="2.2308556"><ele>516.0</ele><time>2026-04-18T14:44:20.345Z</time></trkpt><trkpt lat="41.9268162" lon="2.2311068"><ele>515.5</ele><time>2026-04-18T14:44:21.344Z</time></trkpt><trkpt lat="41.9266085" lon="2.2313296"><ele>515.0</ele><time>2026-04-18T14:44:22.345Z</time></trkpt><trkpt lat="41.9263876" lon="2.2315369"><ele>515.0</ele><time>2026-04-18T14:44:23.345Z</time></trkpt><trkpt lat="41.9261618" lon="2.2317411"><ele>515.0</ele><time>2026-04-18T14:44:24.345Z</time></trkpt><trkpt lat="41.9259367" lon="2.2319552"><ele>511.0</ele><time>2026-04-18T14:44:25.344Z</time></trkpt><trkpt lat="41.9257151" lon="2.232182"><ele>507.0</ele><time>2026-04-18T14:44:26.345Z</time></trkpt><trkpt lat="41.9254985" lon="2.2324247"><ele>505.5</ele><time>2026-04-18T14:44:27.344Z</time></trkpt><trkpt lat="41.9252854" lon="2.2326735"><ele>504.0</ele><time>2026-04-18T14:44:28.345Z</time></trkpt><trkpt lat="41.9250778" lon="2.2329269"><ele>502.0</ele><time>2026-04-18T14:44:29.345Z</time></trkpt><trkpt lat="41.9248713" lon="2.2331782"><ele>500.0</ele><time>2026-04-18T14:44:30.344Z</time></trkpt><trkpt lat="41.9246702" lon="2.2334243"><ele>500.0</ele><time>2026-04-18T14:44:31.345Z</time></trkpt><trkpt lat="41.9244715" lon="2.2336643"><ele>500.0</ele><time>2026-04-18T14:44:32.345Z</time></trkpt><trkpt lat="41.9242669" lon="2.2339047"><ele>499.0</ele><time>2026-04-18T14:44:33.344Z</time></trkpt><trkpt lat="41.9240573" lon="2.2341395"><ele>498.0</ele><time>2026-04-18T14:44:34.345Z</time></trkpt><trkpt lat="41.9238449" lon="2.2343756"><ele>498.0</ele><time>2026-04-18T14:44:35.345Z</time></trkpt><trkpt lat="41.9236229" lon="2.2346046"><ele>498.0</ele><time>2026-04-18T14:44:36.345Z</time></trkpt><trkpt lat="41.923394" lon="2.2348251"><ele>498.0</ele><time>2026-04-18T14:44:37.344Z</time></trkpt><trkpt lat="41.9231604" lon="2.2350411"><ele>498.0</ele><time>2026-04-18T14:44:38.344Z</time></trkpt><trkpt lat="41.9229201" lon="2.2352556"><ele>498.0</ele><time>2026-04-18T14:44:39.345Z</time></trkpt><trkpt lat="41.9226701" lon="2.2354587"><ele>498.0</ele><time>2026-04-18T14:44:40.345Z</time></trkpt><trkpt lat="41.9224143" lon="2.2356452"><ele>498.5</ele><time>2026-04-18T14:44:41.345Z</time></trkpt><trkpt lat="41.9221493" lon="2.2358179"><ele>499.0</ele><time>2026-04-18T14:44:42.345Z</time></trkpt><trkpt lat="41.9218794" lon="2.2359709"><ele>499.5</ele><time>2026-04-18T14:44:43.344Z</time></trkpt><trkpt lat="41.9216015" lon="2.2361066"><ele>500.0</ele><time>2026-04-18T14:44:44.345Z</time></trkpt><trkpt lat="41.9213222" lon="2.2362284"><ele>500.0</ele><time>2026-04-18T14:44:45.345Z</time></trkpt><trkpt lat="41.9210393" lon="2.2363376"><ele>500.0</ele><time>2026-04-18T14:44:46.345Z</time></trkpt><trkpt lat="41.9207511" lon="2.2364351"><ele>499.5</ele><time>2026-04-18T14:44:47.345Z</time></trkpt><trkpt lat="41.9204616" lon="2.2365292"><ele>499.0</ele><time>2026-04-18T14:44:48.344Z</time></trkpt><trkpt lat="41.9201762" lon="2.2366161"><ele>499.5</ele><time>2026-04-18T14:44:49.345Z</time></trkpt><trkpt lat="41.9198876" lon="2.2367017"><ele>500.0</ele><time>2026-04-18T14:44:50.345Z</time></trkpt><trkpt lat="41.9196013" lon="2.2367822"><ele>500.0</ele><time>2026-04-18T14:44:51.345Z</time></trkpt><trkpt lat="41.9193141" lon="2.2368643"><ele>500.0</ele><time>2026-04-18T14:44:52.344Z</time></trkpt><trkpt lat="41.9190318" lon="2.236946"><ele>499.5</ele><time>2026-04-18T14:44:53.344Z</time></trkpt><trkpt lat="41.9187537" lon="2.237039"><ele>499.0</ele><time>2026-04-18T14:44:54.345Z</time></trkpt><trkpt lat="41.9184782" lon="2.2371415"><ele>499.5</ele><time>2026-04-18T14:44:55.345Z</time></trkpt><trkpt lat="41.9182025" lon="2.2372542"><ele>500.0</ele><time>2026-04-18T14:44:56.345Z</time></trkpt><trkpt lat="41.917927" lon="2.2373807"><ele>499.0</ele><time>2026-04-18T14:44:57.345Z</time></trkpt><trkpt lat="41.9176604" lon="2.2375113"><ele>498.0</ele><time>2026-04-18T14:44:58.344Z</time></trkpt><trkpt lat="41.917391" lon="2.2376566"><ele>497.5</ele><time>2026-04-18T14:44:59.345Z</time></trkpt><trkpt lat="41.9171263" lon="2.237822"><ele>497.0</ele><time>2026-04-18T14:45:00.345Z</time></trkpt><trkpt lat="41.9168635" lon="2.2379982"><ele>497.5</ele><time>2026-04-18T14:45:01.345Z</time></trkpt><trkpt lat="41.9166079" lon="2.2381852"><ele>498.0</ele><time>2026-04-18T14:45:02.345Z</time></trkpt><trkpt lat="41.9163605" lon="2.2383806"><ele>498.0</ele><time>2026-04-18T14:45:03.345Z</time></trkpt><trkpt lat="41.91612" lon="2.2385871"><ele>498.0</ele><time>2026-04-18T14:45:04.344Z</time></trkpt><trkpt lat="41.9158883" lon="2.2388069"><ele>498.5</ele><time>2026-04-18T14:45:05.345Z</time></trkpt><trkpt lat="41.9156595" lon="2.2390384"><ele>499.0</ele><time>2026-04-18T14:45:06.345Z</time></trkpt><trkpt lat="41.9154337" lon="2.2392817"><ele>499.0</ele><time>2026-04-18T14:45:07.344Z</time></trkpt><trkpt lat="41.9152163" lon="2.2395354"><ele>499.0</ele><time>2026-04-18T14:45:08.345Z</time></trkpt><trkpt lat="41.9150039" lon="2.2398005"><ele>496.5</ele><time>2026-04-18T14:45:09.345Z</time></trkpt><trkpt lat="41.9147983" lon="2.2400727"><ele>494.0</ele><time>2026-04-18T14:45:10.344Z</time></trkpt><trkpt lat="41.9146029" lon="2.240355"><ele>493.0</ele><time>2026-04-18T14:45:11.345Z</time></trkpt><trkpt lat="41.9144153" lon="2.2406411"><ele>492.0</ele><time>2026-04-18T14:45:12.346Z</time></trkpt><trkpt lat="41.9142368" lon="2.2409325"><ele>492.0</ele><time>2026-04-18T14:45:13.345Z</time></trkpt><trkpt lat="41.9140709" lon="2.2412256"><ele>492.0</ele><time>2026-04-18T14:45:14.345Z</time></trkpt><trkpt lat="41.9139176" lon="2.2415138"><ele>491.0</ele><time>2026-04-18T14:45:15.344Z</time></trkpt><trkpt lat="41.9137789" lon="2.2417957"><ele>490.0</ele><time>2026-04-18T14:45:16.345Z</time></trkpt><trkpt lat="41.9136496" lon="2.2420762"><ele>489.0</ele><time>2026-04-18T14:45:17.345Z</time></trkpt><trkpt lat="41.9135297" lon="2.2423574"><ele>488.0</ele><time>2026-04-18T14:45:18.345Z</time></trkpt><trkpt lat="41.9134174" lon="2.2426377"><ele>489.0</ele><time>2026-04-18T14:45:19.345Z</time></trkpt><trkpt lat="41.9133135" lon="2.2429196"><ele>490.0</ele><time>2026-04-18T14:45:20.344Z</time></trkpt><trkpt lat="41.9132143" lon="2.2432081"><ele>490.0</ele><time>2026-04-18T14:45:21.345Z</time></trkpt><trkpt lat="41.9131235" lon="2.2434942"><ele>490.0</ele><time>2026-04-18T14:45:22.345Z</time></trkpt><trkpt lat="41.9130367" lon="2.2437888"><ele>489.5</ele><time>2026-04-18T14:45:23.345Z</time></trkpt><trkpt lat="41.9129534" lon="2.2440883"><ele>489.0</ele><time>2026-04-18T14:45:24.344Z</time></trkpt><trkpt lat="41.9128683" lon="2.2443924"><ele>489.0</ele><time>2026-04-18T14:45:25.345Z</time></trkpt><trkpt lat="41.9127793" lon="2.2447029"><ele>489.0</ele><time>2026-04-18T14:45:26.345Z</time></trkpt><trkpt lat="41.9126898" lon="2.2450145"><ele>489.5</ele><time>2026-04-18T14:45:27.344Z</time></trkpt><trkpt lat="41.9126035" lon="2.2453351"><ele>490.0</ele><time>2026-04-18T14:45:28.345Z</time></trkpt><trkpt lat="41.9125178" lon="2.2456643"><ele>491.0</ele><time>2026-04-18T14:45:29.345Z</time></trkpt><trkpt lat="41.9124279" lon="2.2459982"><ele>492.0</ele><time>2026-04-18T14:45:30.345Z</time></trkpt><trkpt lat="41.9123341" lon="2.2463199"><ele>491.5</ele><time>2026-04-18T14:45:31.346Z</time></trkpt><trkpt lat="41.9122283" lon="2.2466111"><ele>491.0</ele><time>2026-04-18T14:45:32.345Z</time></trkpt><trkpt lat="41.9121117" lon="2.2468719"><ele>491.0</ele><time>2026-04-18T14:45:33.345Z</time></trkpt><trkpt lat="41.911984" lon="2.2471092"><ele>491.0</ele><time>2026-04-18T14:45:34.345Z</time></trkpt><trkpt lat="41.9118416" lon="2.2473301"><ele>491.0</ele><time>2026-04-18T14:45:35.344Z</time></trkpt><trkpt lat="41.911691" lon="2.2475391"><ele>492.0</ele><time>2026-04-18T14:45:36.344Z</time></trkpt><trkpt lat="41.9115247" lon="2.2477347"><ele>493.0</ele><time>2026-04-18T14:45:37.345Z</time></trkpt><trkpt lat="41.911355" lon="2.2479119"><ele>494.0</ele><time>2026-04-18T14:45:38.345Z</time></trkpt><trkpt lat="41.9111929" lon="2.2480698"><ele>494.3333333333333</ele><time>2026-04-18T14:45:39.344Z</time></trkpt><trkpt lat="41.9110311" lon="2.2482056"><ele>494.66666666666663</ele><time>2026-04-18T14:45:40.345Z</time></trkpt><trkpt lat="41.9108762" lon="2.2483272"><ele>495.0</ele><time>2026-04-18T14:45:41.344Z</time></trkpt><trkpt lat="41.9107336" lon="2.2484271"><ele>495.5</ele><time>2026-04-18T14:45:42.345Z</time></trkpt><trkpt lat="41.9106009" lon="2.2485111"><ele>496.0</ele><time>2026-04-18T14:45:43.345Z</time></trkpt><trkpt lat="41.9104801" lon="2.2485783"><ele>496.5</ele><time>2026-04-18T14:45:44.345Z</time></trkpt><trkpt lat="41.9103732" lon="2.2486342"><ele>497.0</ele><time>2026-04-18T14:45:45.344Z</time></trkpt><trkpt lat="41.9102902" lon="2.2486714"><ele>497.0</ele><time>2026-04-18T14:45:46.344Z</time></trkpt><trkpt lat="41.910184" lon="2.2487066"><ele>497.00000000000006</ele><time>2026-04-18T14:45:48.346Z</time></trkpt><trkpt lat="41.9100469" lon="2.2487145"><ele>497.00000000000006</ele><time>2026-04-18T14:45:50.344Z</time></trkpt><trkpt lat="41.909969" lon="2.248713"><ele>497.0</ele><time>2026-04-18T14:45:51.345Z</time></trkpt><trkpt lat="41.9098851" lon="2.2487124"><ele>497.0</ele><time>2026-04-18T14:45:52.344Z</time></trkpt><trkpt lat="41.9097913" lon="2.2487177"><ele>496.6</ele><time>2026-04-18T14:45:53.344Z</time></trkpt><trkpt lat="41.9096973" lon="2.2487401"><ele>496.20000000000005</ele><time>2026-04-18T14:45:54.344Z</time></trkpt><trkpt lat="41.9096037" lon="2.2487845"><ele>495.8</ele><time>2026-04-18T14:45:55.346Z</time></trkpt><trkpt lat="41.9095102" lon="2.2488585"><ele>495.4</ele><time>2026-04-18T14:45:56.345Z</time></trkpt><trkpt lat="41.9094245" lon="2.248958"><ele>495.0</ele><time>2026-04-18T14:45:57.345Z</time></trkpt><trkpt lat="41.9093554" lon="2.2490785"><ele>495.0</ele><time>2026-04-18T14:45:58.345Z</time></trkpt><trkpt lat="41.9093028" lon="2.2492199"><ele>495.0</ele><time>2026-04-18T14:45:59.345Z</time></trkpt><trkpt lat="41.9092746" lon="2.2493654"><ele>495.0</ele><time>2026-04-18T14:46:00.345Z</time></trkpt><trkpt lat="41.909283" lon="2.2495205"><ele>495.0</ele><time>2026-04-18T14:46:01.345Z</time></trkpt><trkpt lat="41.9093092" lon="2.2496653"><ele>494.5</ele><time>2026-04-18T14:46:02.345Z</time></trkpt><trkpt lat="41.9093569" lon="2.2498057"><ele>494.0</ele><time>2026-04-18T14:46:03.345Z</time></trkpt><trkpt lat="41.9094248" lon="2.249932"><ele>493.5</ele><time>2026-04-18T14:46:04.345Z</time></trkpt><trkpt lat="41.9095051" lon="2.2500429"><ele>493.0</ele><time>2026-04-18T14:46:05.345Z</time></trkpt><trkpt lat="41.9096038" lon="2.2501237"><ele>493.0</ele><time>2026-04-18T14:46:06.345Z</time></trkpt><trkpt lat="41.9097156" lon="2.2501762"><ele>493.0</ele><time>2026-04-18T14:46:07.345Z</time></trkpt><trkpt lat="41.9098314" lon="2.250195"><ele>493.0</ele><time>2026-04-18T14:46:08.346Z</time></trkpt><trkpt lat="41.9099488" lon="2.2501768"><ele>493.0</ele><time>2026-04-18T14:46:09.346Z</time></trkpt><trkpt lat="41.9100592" lon="2.2501209"><ele>492.75</ele><time>2026-04-18T14:46:10.345Z</time></trkpt><trkpt lat="41.9101639" lon="2.2500427"><ele>492.5</ele><time>2026-04-18T14:46:11.345Z</time></trkpt><trkpt lat="41.9102715" lon="2.2499688"><ele>492.25</ele><time>2026-04-18T14:46:12.345Z</time></trkpt><trkpt lat="41.9103875" lon="2.2499371"><ele>492.0</ele><time>2026-04-18T14:46:13.344Z</time></trkpt><trkpt lat="41.9105085" lon="2.2499421"><ele>492.0</ele><time>2026-04-18T14:46:14.345Z</time></trkpt><trkpt lat="41.9106345" lon="2.2499768"><ele>492.0</ele><time>2026-04-18T14:46:15.345Z</time></trkpt><trkpt lat="41.9107698" lon="2.250015"><ele>492.0</ele><time>2026-04-18T14:46:16.345Z</time></trkpt><trkpt lat="41.9109091" lon="2.2500511"><ele>492.0</ele><time>2026-04-18T14:46:17.345Z</time></trkpt><trkpt lat="41.9110576" lon="2.2500861"><ele>491.66666666666663</ele><time>2026-04-18T14:46:18.346Z</time></trkpt><trkpt lat="41.9112105" lon="2.2501168"><ele>491.3333333333333</ele><time>2026-04-18T14:46:19.345Z</time></trkpt><trkpt lat="41.9113715" lon="2.2501471"><ele>491.0</ele><time>2026-04-18T14:46:20.345Z</time></trkpt><trkpt lat="41.9115376" lon="2.2501674"><ele>491.0</ele><time>2026-04-18T14:46:21.345Z</time></trkpt><trkpt lat="41.9117072" lon="2.2501861"><ele>491.0</ele><time>2026-04-18T14:46:22.345Z</time></trkpt><trkpt lat="41.9118852" lon="2.2502049"><ele>491.0</ele><time>2026-04-18T14:46:23.344Z</time></trkpt><trkpt lat="41.9120661" lon="2.2502265"><ele>491.3333333333333</ele><time>2026-04-18T14:46:24.345Z</time></trkpt><trkpt lat="41.9122469" lon="2.2502598"><ele>491.66666666666663</ele><time>2026-04-18T14:46:25.344Z</time></trkpt><trkpt lat="41.9124228" lon="2.2503009"><ele>492.0</ele><time>2026-04-18T14:46:26.345Z</time></trkpt><trkpt lat="41.912597" lon="2.2503447"><ele>492.0</ele><time>2026-04-18T14:46:27.345Z</time></trkpt><trkpt lat="41.9127683" lon="2.2503888"><ele>492.0</ele><time>2026-04-18T14:46:28.345Z</time></trkpt><trkpt lat="41.9129379" lon="2.2504347"><ele>492.0</ele><time>2026-04-18T14:46:29.346Z</time></trkpt><trkpt lat="41.9131055" lon="2.250485"><ele>492.0</ele><time>2026-04-18T14:46:30.344Z</time></trkpt><trkpt lat="41.9132725" lon="2.2505348"><ele>492.0</ele><time>2026-04-18T14:46:31.344Z</time></trkpt><trkpt lat="41.9134389" lon="2.2505852"><ele>492.0</ele><time>2026-04-18T14:46:32.345Z</time></trkpt><trkpt lat="41.9136065" lon="2.250631"><ele>491.33333333333337</ele><time>2026-04-18T14:46:33.345Z</time></trkpt><trkpt lat="41.913776" lon="2.2506766"><ele>490.6666666666667</ele><time>2026-04-18T14:46:34.346Z</time></trkpt><trkpt lat="41.91395" lon="2.250724"><ele>490.0</ele><time>2026-04-18T14:46:35.345Z</time></trkpt><trkpt lat="41.9141267" lon="2.2507723"><ele>489.6666666666667</ele><time>2026-04-18T14:46:36.344Z</time></trkpt><trkpt lat="41.9143083" lon="2.2508202"><ele>489.33333333333337</ele><time>2026-04-18T14:46:37.345Z</time></trkpt><trkpt lat="41.9144883" lon="2.2508692"><ele>489.0</ele><time>2026-04-18T14:46:38.345Z</time></trkpt><trkpt lat="41.9146676" lon="2.2509169"><ele>489.0</ele><time>2026-04-18T14:46:39.345Z</time></trkpt><trkpt lat="41.9148428" lon="2.2509622"><ele>489.0</ele><time>2026-04-18T14:46:40.345Z</time></trkpt><trkpt lat="41.9150159" lon="2.2510109"><ele>489.0</ele><time>2026-04-18T14:46:41.345Z</time></trkpt><trkpt lat="41.9151915" lon="2.2510627"><ele>489.0</ele><time>2026-04-18T14:46:42.344Z</time></trkpt><trkpt lat="41.915369" lon="2.2511099"><ele>489.0</ele><time>2026-04-18T14:46:43.344Z</time></trkpt><trkpt lat="41.9155487" lon="2.2511603"><ele>489.0</ele><time>2026-04-18T14:46:44.345Z</time></trkpt><trkpt lat="41.9157348" lon="2.2512113"><ele>489.0</ele><time>2026-04-18T14:46:45.345Z</time></trkpt><trkpt lat="41.9159218" lon="2.2512624"><ele>489.0</ele><time>2026-04-18T14:46:46.345Z</time></trkpt><trkpt lat="41.9161117" lon="2.2513162"><ele>489.0</ele><time>2026-04-18T14:46:47.344Z</time></trkpt><trkpt lat="41.916301" lon="2.2513703"><ele>489.0</ele><time>2026-04-18T14:46:48.344Z</time></trkpt><trkpt lat="41.9164908" lon="2.2514255"><ele>489.0</ele><time>2026-04-18T14:46:49.344Z</time></trkpt><trkpt lat="41.9166778" lon="2.251475"><ele>489.0</ele><time>2026-04-18T14:46:50.345Z</time></trkpt><trkpt lat="41.9168523" lon="2.2515244"><ele>489.66666666666663</ele><time>2026-04-18T14:46:51.345Z</time></trkpt><trkpt lat="41.9170179" lon="2.2515726"><ele>490.3333333333333</ele><time>2026-04-18T14:46:52.344Z</time></trkpt><trkpt lat="41.9171741" lon="2.2516177"><ele>491.0</ele><time>2026-04-18T14:46:53.345Z</time></trkpt><trkpt lat="41.9173255" lon="2.2516591"><ele>491.0</ele><time>2026-04-18T14:46:54.345Z</time></trkpt><trkpt lat="41.9174721" lon="2.2517034"><ele>491.0</ele><time>2026-04-18T14:46:55.345Z</time></trkpt><trkpt lat="41.917606" lon="2.2517401"><ele>491.0</ele><time>2026-04-18T14:46:56.346Z</time></trkpt><trkpt lat="41.9177252" lon="2.2517744"><ele>491.0</ele><time>2026-04-18T14:46:57.345Z</time></trkpt><trkpt lat="41.917822" lon="2.2518"><ele>490.8333333333333</ele><time>2026-04-18T14:46:58.345Z</time></trkpt><trkpt lat="41.9178889" lon="2.2518181"><ele>490.66666666666663</ele><time>2026-04-18T14:46:59.345Z</time></trkpt><trkpt lat="41.9179748" lon="2.2518327"><ele>490.5</ele><time>2026-04-18T14:47:01.345Z</time></trkpt><trkpt lat="41.9180462" lon="2.2518519"><ele>490.33333333333337</ele><time>2026-04-18T14:47:04.345Z</time></trkpt><trkpt lat="41.918112" lon="2.2519047"><ele>490.1666666666667</ele><time>2026-04-18T14:47:06.344Z</time></trkpt><trkpt lat="41.9181867" lon="2.2520362"><ele>490.0</ele><time>2026-04-18T14:47:08.345Z</time></trkpt><trkpt lat="41.9182144" lon="2.2521312"><ele>490.0</ele><time>2026-04-18T14:47:09.345Z</time></trkpt><trkpt lat="41.9182275" lon="2.2522458"><ele>490.0</ele><time>2026-04-18T14:47:10.345Z</time></trkpt><trkpt lat="41.9182212" lon="2.2523777"><ele>490.0</ele><time>2026-04-18T14:47:11.345Z</time></trkpt><trkpt lat="41.9182023" lon="2.252535"><ele>490.0</ele><time>2026-04-18T14:47:12.344Z</time></trkpt><trkpt lat="41.9181913" lon="2.2527136"><ele>490.0</ele><time>2026-04-18T14:47:13.345Z</time></trkpt><trkpt lat="41.9181892" lon="2.2529104"><ele>489.6666666666667</ele><time>2026-04-18T14:47:14.345Z</time></trkpt><trkpt lat="41.9181951" lon="2.2531183"><ele>489.33333333333337</ele><time>2026-04-18T14:47:15.345Z</time></trkpt><trkpt lat="41.9182112" lon="2.2533394"><ele>489.0</ele><time>2026-04-18T14:47:16.344Z</time></trkpt><trkpt lat="41.9182406" lon="2.2535699"><ele>489.0</ele><time>2026-04-18T14:47:17.345Z</time></trkpt><trkpt lat="41.9182837" lon="2.2537963"><ele>489.0</ele><time>2026-04-18T14:47:18.345Z</time></trkpt><trkpt lat="41.9183331" lon="2.2540066"><ele>489.0</ele><time>2026-04-18T14:47:19.345Z</time></trkpt><trkpt lat="41.9183869" lon="2.2542007"><ele>488.79999999999995</ele><time>2026-04-18T14:47:20.345Z</time></trkpt><trkpt lat="41.9184393" lon="2.2543728"><ele>488.59999999999997</ele><time>2026-04-18T14:47:21.345Z</time></trkpt><trkpt lat="41.9184835" lon="2.2545078"><ele>488.4</ele><time>2026-04-18T14:47:22.345Z</time></trkpt><trkpt lat="41.9185104" lon="2.2545973"><ele>488.2</ele><time>2026-04-18T14:47:23.344Z</time></trkpt><trkpt lat="41.9185395" lon="2.2546798"><ele>488.0</ele><time>2026-04-18T14:47:25.345Z</time></trkpt><trkpt lat="41.918563" lon="2.2548157"><ele>488.0</ele><time>2026-04-18T14:47:28.345Z</time></trkpt><trkpt lat="41.918545" lon="2.2549505"><ele>487.99999999999994</ele><time>2026-04-18T14:47:30.345Z</time></trkpt><trkpt lat="41.9185315" lon="2.2551218"><ele>487.99999999999994</ele><time>2026-04-18T14:47:32.345Z</time></trkpt><trkpt lat="41.9185383" lon="2.2552753"><ele>488.0</ele><time>2026-04-18T14:47:34.345Z</time></trkpt><trkpt lat="41.918518" lon="2.2553987"><ele>488.0</ele><time>2026-04-18T14:47:36.345Z</time></trkpt><trkpt lat="41.9184522" lon="2.2555248"><ele>487.8333333333333</ele><time>2026-04-18T14:47:38.345Z</time></trkpt><trkpt lat="41.9184011" lon="2.2555865"><ele>487.66666666666663</ele><time>2026-04-18T14:47:39.344Z</time></trkpt><trkpt lat="41.9183452" lon="2.2556453"><ele>487.5</ele><time>2026-04-18T14:47:40.345Z</time></trkpt><trkpt lat="41.9182828" lon="2.2556984"><ele>487.33333333333337</ele><time>2026-04-18T14:47:41.345Z</time></trkpt><trkpt lat="41.9182114" lon="2.2557446"><ele>487.1666666666667</ele><time>2026-04-18T14:47:42.345Z</time></trkpt><trkpt lat="41.9181434" lon="2.2557841"><ele>487.0</ele><time>2026-04-18T14:47:43.345Z</time></trkpt><trkpt lat="41.9180306" lon="2.2558396"><ele>487.0</ele><time>2026-04-18T14:47:45.346Z</time></trkpt><trkpt lat="41.9179348" lon="2.2558943"><ele>487.00000000000006</ele><time>2026-04-18T14:47:47.345Z</time></trkpt><trkpt lat="41.9178443" lon="2.2559377"><ele>487.00000000000006</ele><time>2026-04-18T14:47:49.345Z</time></trkpt><trkpt lat="41.9177505" lon="2.2559853"><ele>487.0</ele><time>2026-04-18T14:47:51.345Z</time></trkpt><trkpt lat="41.917661" lon="2.2560377"><ele>487.0</ele><time>2026-04-18T14:47:53.345Z</time></trkpt><trkpt lat="41.9175964" lon="2.256136"><ele>487.0</ele><time>2026-04-18T14:47:55.345Z</time></trkpt><trkpt lat="41.9175918" lon="2.2562556"><ele>487.00000000000006</ele><time>2026-04-18T14:47:57.345Z</time></trkpt><trkpt lat="41.9176098" lon="2.2563931"><ele>487.00000000000006</ele><time>2026-04-18T14:47:59.344Z</time></trkpt><trkpt lat="41.9176377" lon="2.2565485"><ele>487.0</ele><time>2026-04-18T14:48:01.345Z</time></trkpt><trkpt lat="41.9176576" lon="2.2566415"><ele>487.0</ele><time>2026-04-18T14:48:02.345Z</time></trkpt><trkpt lat="41.9176779" lon="2.2567381"><ele>487.1666666666667</ele><time>2026-04-18T14:48:03.345Z</time></trkpt><trkpt lat="41.917698" lon="2.2568377"><ele>487.33333333333337</ele><time>2026-04-18T14:48:04.345Z</time></trkpt><trkpt lat="41.917719" lon="2.2569406"><ele>487.5</ele><time>2026-04-18T14:48:05.345Z</time></trkpt><trkpt lat="41.9177435" lon="2.2570428"><ele>487.66666666666663</ele><time>2026-04-18T14:48:06.345Z</time></trkpt><trkpt lat="41.9177655" lon="2.257148"><ele>487.8333333333333</ele><time>2026-04-18T14:48:07.345Z</time></trkpt><trkpt lat="41.9177854" lon="2.2572515"><ele>488.0</ele><time>2026-04-18T14:48:08.345Z</time></trkpt><trkpt lat="41.9178064" lon="2.2573542"><ele>487.99999999999994</ele><time>2026-04-18T14:48:09.345Z</time></trkpt><trkpt lat="41.9178268" lon="2.257456"><ele>488.0</ele><time>2026-04-18T14:48:10.345Z</time></trkpt><trkpt lat="41.9178452" lon="2.2575486"><ele>488.0</ele><time>2026-04-18T14:48:11.345Z</time></trkpt><trkpt lat="41.9178618" lon="2.2576327"><ele>488.0</ele><time>2026-04-18T14:48:12.345Z</time></trkpt><trkpt lat="41.9178924" lon="2.2577867"><ele>487.99999999999994</ele><time>2026-04-18T14:48:14.345Z</time></trkpt><trkpt lat="41.917917" lon="2.2579172"><ele>488.0</ele><time>2026-04-18T14:48:16.345Z</time></trkpt><trkpt lat="41.9178843" lon="2.2580235"><ele>487.99999999999994</ele><time>2026-04-18T14:48:18.345Z</time></trkpt><trkpt lat="41.9177823" lon="2.2580698"><ele>488.0</ele><time>2026-04-18T14:48:20.344Z</time></trkpt><trkpt lat="41.9177182" lon="2.2580855"><ele>488.0</ele><time>2026-04-18T14:48:21.344Z</time></trkpt><trkpt lat="41.9176487" lon="2.2580963"><ele>488.0</ele><time>2026-04-18T14:48:22.345Z</time></trkpt><trkpt lat="41.9175731" lon="2.2581099"><ele>487.99999999999994</ele><time>2026-04-18T14:48:23.345Z</time></trkpt><trkpt lat="41.9174921" lon="2.2581267"><ele>488.0</ele><time>2026-04-18T14:48:24.344Z</time></trkpt><trkpt lat="41.9174096" lon="2.2581442"><ele>487.4</ele><time>2026-04-18T14:48:25.344Z</time></trkpt><trkpt lat="41.917321" lon="2.2581643"><ele>486.79999999999995</ele><time>2026-04-18T14:48:26.344Z</time></trkpt><trkpt lat="41.9172271" lon="2.2581845"><ele>486.2</ele><time>2026-04-18T14:48:27.345Z</time></trkpt><trkpt lat="41.9171296" lon="2.2582052"><ele>485.6</ele><time>2026-04-18T14:48:28.344Z</time></trkpt><trkpt lat="41.9170305" lon="2.2582291"><ele>485.0</ele><time>2026-04-18T14:48:29.345Z</time></trkpt><trkpt lat="41.9169291" lon="2.2582537"><ele>485.0</ele><time>2026-04-18T14:48:30.346Z</time></trkpt><trkpt lat="41.9168281" lon="2.2582788"><ele>485.0</ele><time>2026-04-18T14:48:31.345Z</time></trkpt><trkpt lat="41.9167253" lon="2.258304"><ele>485.0</ele><time>2026-04-18T14:48:32.344Z</time></trkpt><trkpt lat="41.9166212" lon="2.2583282"><ele>485.0</ele><time>2026-04-18T14:48:33.346Z</time></trkpt><trkpt lat="41.9165171" lon="2.2583522"><ele>485.0</ele><time>2026-04-18T14:48:34.345Z</time></trkpt><trkpt lat="41.9164114" lon="2.2583763"><ele>485.2</ele><time>2026-04-18T14:48:35.344Z</time></trkpt><trkpt lat="41.9163066" lon="2.2583998"><ele>485.4</ele><time>2026-04-18T14:48:36.345Z</time></trkpt><trkpt lat="41.9162052" lon="2.2584257"><ele>485.6</ele><time>2026-04-18T14:48:37.345Z</time></trkpt><trkpt lat="41.9161105" lon="2.2584505"><ele>485.8</ele><time>2026-04-18T14:48:38.345Z</time></trkpt><trkpt lat="41.9160167" lon="2.2584725"><ele>486.0</ele><time>2026-04-18T14:48:39.345Z</time></trkpt><trkpt lat="41.9159235" lon="2.2584894"><ele>487.0</ele><time>2026-04-18T14:48:40.344Z</time></trkpt><trkpt lat="41.915832" lon="2.2585023"><ele>488.0</ele><time>2026-04-18T14:48:41.345Z</time></trkpt><trkpt lat="41.9157377" lon="2.2585132"><ele>489.0</ele><time>2026-04-18T14:48:42.345Z</time></trkpt><trkpt lat="41.9156448" lon="2.2585217"><ele>490.0</ele><time>2026-04-18T14:48:43.345Z</time></trkpt><trkpt lat="41.9155478" lon="2.2585281"><ele>491.0</ele><time>2026-04-18T14:48:44.344Z</time></trkpt><trkpt lat="41.9154523" lon="2.2585366"><ele>491.0</ele><time>2026-04-18T14:48:45.344Z</time></trkpt><trkpt lat="41.9153546" lon="2.2585467"><ele>491.0</ele><time>2026-04-18T14:48:46.345Z</time></trkpt><trkpt lat="41.9152586" lon="2.2585572"><ele>491.0</ele><time>2026-04-18T14:48:47.345Z</time></trkpt><trkpt lat="41.9151664" lon="2.2585625"><ele>491.0</ele><time>2026-04-18T14:48:48.345Z</time></trkpt><trkpt lat="41.9150806" lon="2.2585664"><ele>491.0</ele><time>2026-04-18T14:48:49.345Z</time></trkpt><trkpt lat="41.9150031" lon="2.2585706"><ele>491.49999999999994</ele><time>2026-04-18T14:48:50.345Z</time></trkpt><trkpt lat="41.9149252" lon="2.2585768"><ele>492.0</ele><time>2026-04-18T14:48:51.345Z</time></trkpt><trkpt lat="41.9148386" lon="2.2585821"><ele>492.5</ele><time>2026-04-18T14:48:52.346Z</time></trkpt><trkpt lat="41.9147467" lon="2.2585871"><ele>493.0</ele><time>2026-04-18T14:48:53.345Z</time></trkpt><trkpt lat="41.9146543" lon="2.2585972"><ele>493.49999999999994</ele><time>2026-04-18T14:48:54.345Z</time></trkpt><trkpt lat="41.9145576" lon="2.2586095"><ele>494.0</ele><time>2026-04-18T14:48:55.345Z</time></trkpt><trkpt lat="41.9144642" lon="2.258622"><ele>493.99999999999994</ele><time>2026-04-18T14:48:56.344Z</time></trkpt><trkpt lat="41.9143738" lon="2.2586283"><ele>494.0</ele><time>2026-04-18T14:48:57.345Z</time></trkpt><trkpt lat="41.9142934" lon="2.258627"><ele>494.0</ele><time>2026-04-18T14:48:58.345Z</time></trkpt><trkpt lat="41.9142291" lon="2.2586043"><ele>494.0</ele><time>2026-04-18T14:48:59.345Z</time></trkpt><trkpt lat="41.9141803" lon="2.2584685"><ele>493.99999999999994</ele><time>2026-04-18T14:49:01.345Z</time></trkpt><trkpt lat="41.9141805" lon="2.2583718"><ele>494.0</ele><time>2026-04-18T14:49:02.344Z</time></trkpt><trkpt lat="41.9141851" lon="2.2582514"><ele>495.0</ele><time>2026-04-18T14:49:03.344Z</time></trkpt><trkpt lat="41.9141885" lon="2.2581073"><ele>496.0</ele><time>2026-04-18T14:49:04.345Z</time></trkpt><trkpt lat="41.9141952" lon="2.2579502"><ele>497.0</ele><time>2026-04-18T14:49:05.346Z</time></trkpt><trkpt lat="41.9141967" lon="2.2577756"><ele>498.0</ele><time>2026-04-18T14:49:06.344Z</time></trkpt><trkpt lat="41.9141975" lon="2.2575941"><ele>498.0</ele><time>2026-04-18T14:49:07.345Z</time></trkpt><trkpt lat="41.9141986" lon="2.2574144"><ele>497.99999999999994</ele><time>2026-04-18T14:49:08.345Z</time></trkpt><trkpt lat="41.9141971" lon="2.2572543"><ele>497.99999999999994</ele><time>2026-04-18T14:49:09.345Z</time></trkpt><trkpt lat="41.9141988" lon="2.2571283"><ele>498.0</ele><time>2026-04-18T14:49:10.346Z</time></trkpt><trkpt lat="41.9141965" lon="2.2570411"><ele>498.0</ele><time>2026-04-18T14:49:11.345Z</time></trkpt><trkpt lat="41.914173" lon="2.2569441"><ele>498.2</ele><time>2026-04-18T14:49:13.344Z</time></trkpt><trkpt lat="41.914078" lon="2.2568956"><ele>498.4</ele><time>2026-04-18T14:49:15.345Z</time></trkpt><trkpt lat="41.9140042" lon="2.2569005"><ele>498.59999999999997</ele><time>2026-04-18T14:49:16.344Z</time></trkpt><trkpt lat="41.9139177" lon="2.2569034"><ele>498.79999999999995</ele><time>2026-04-18T14:49:17.346Z</time></trkpt><trkpt lat="41.9138246" lon="2.2568981"><ele>499.0</ele><time>2026-04-18T14:49:18.344Z</time></trkpt><trkpt lat="41.9137255" lon="2.2568845"><ele>499.0</ele><time>2026-04-18T14:49:19.345Z</time></trkpt><trkpt lat="41.9136182" lon="2.2568643"><ele>499.0</ele><time>2026-04-18T14:49:20.345Z</time></trkpt><trkpt lat="41.9135119" lon="2.2568375"><ele>499.0</ele><time>2026-04-18T14:49:21.345Z</time></trkpt><trkpt lat="41.9134037" lon="2.2568064"><ele>499.0</ele><time>2026-04-18T14:49:22.345Z</time></trkpt><trkpt lat="41.9133" lon="2.2567746"><ele>499.0</ele><time>2026-04-18T14:49:23.345Z</time></trkpt><trkpt lat="41.9131974" lon="2.2567459"><ele>499.79999999999995</ele><time>2026-04-18T14:49:24.345Z</time></trkpt><trkpt lat="41.9130954" lon="2.2567202"><ele>500.59999999999997</ele><time>2026-04-18T14:49:25.344Z</time></trkpt><trkpt lat="41.9129937" lon="2.2566919"><ele>501.4</ele><time>2026-04-18T14:49:26.345Z</time></trkpt><trkpt lat="41.9128945" lon="2.2566669"><ele>502.2</ele><time>2026-04-18T14:49:27.345Z</time></trkpt><trkpt lat="41.9127975" lon="2.2566422"><ele>503.0</ele><time>2026-04-18T14:49:28.345Z</time></trkpt><trkpt lat="41.9127028" lon="2.2566155"><ele>502.99999999999994</ele><time>2026-04-18T14:49:29.344Z</time></trkpt><trkpt lat="41.9126077" lon="2.2565863"><ele>503.0</ele><time>2026-04-18T14:49:30.344Z</time></trkpt><trkpt lat="41.9125199" lon="2.2565597"><ele>503.0</ele><time>2026-04-18T14:49:31.344Z</time></trkpt><trkpt lat="41.9124391" lon="2.2565379"><ele>503.0</ele><time>2026-04-18T14:49:32.345Z</time></trkpt><trkpt lat="41.9123762" lon="2.2565175"><ele>502.99999999999994</ele><time>2026-04-18T14:49:33.346Z</time></trkpt><trkpt lat="41.9123025" lon="2.2565108"><ele>503.0</ele><time>2026-04-18T14:49:35.345Z</time></trkpt><trkpt lat="41.9122711" lon="2.2565987"><ele>505.0</ele><time>2026-04-18T14:49:37.345Z</time></trkpt><trkpt lat="41.912259" lon="2.2567623"><ele>505.0</ele><time>2026-04-18T14:49:39.345Z</time></trkpt><trkpt lat="41.9122586" lon="2.2569105"><ele>505.0</ele><time>2026-04-18T14:49:41.345Z</time></trkpt></trkseg></trk></gpx>